Upgrade Notice

The CPAN Testers Statistics site has been upgraded since you last accessed the site. Please press the F5 key or CTRL-R to refresh your browser cache to use the latest javascript and CSS files.

New Distributions submitted during 2012

Contents

Below are all the distributions released for the first time during 2012

New Distributions for January 2012 (223)

AuthorDistributionVersionRelease Date/Time
ANAZAWABlosxom-Header0.010022012-01-01 02:48:47
MNUNBERGTest-MockSleep0.012012-01-01 03:47:04
BARBIELabyrinth-Plugin-Links1.002012-01-01 10:58:03
CFAERBERNet-IDN-UTS460.999_201201012012-01-01 18:11:42
TROXELPhysics-Water-SoundSpeed0.92012-01-01 19:17:35
MNUNBERGSub-Stubber0.012012-01-01 21:03:00
BPMEDLEYApache2-FileHash0.012012-01-01 21:35:37
TEAMParse-WBXML0.0012012-01-02 00:43:17
WROGNet-OAuth2-Scheme0.010001_0012012-01-02 07:19:16
ARJONESWWW-XBoxLive1.1200202012-01-02 07:24:53
OLEGLWP-UserAgent-Cached0.012012-01-02 10:26:29
UGEXEText-Levenshtein-Damerau0.022012-01-02 12:32:39
EXODISTMooseX-LeakCheck0.0012012-01-02 13:50:15
JBERGERModule-UseFrom0.012012-01-02 16:24:35
IRONCAMELApp-Rad-Plugin-MoreHelp0.00012012-01-03 00:09:48
JKEGLMarpa-HTML-XS0.001_0002012-01-03 01:08:06
NIXUSStuff-Exception0.0.12012-01-03 03:43:37
ZIGOROULoop-Sustainable0.022012-01-03 10:10:57
AHERNITDevel-NYTProf-Callgrind-TicksDiff0.012012-01-03 10:33:33
MITHALDUDist-Zilla-PluginBundle-MITHALDU1.1200302012-01-03 10:51:38
HELENASOAP-Transport-HTTP-Plack0.012012-01-03 11:20:56
PERIGRINAlgorithm-Paxos0.0012012-01-03 14:20:37
AYOUNGDist-Zilla-Plugin-Test-Legal0.012012-01-03 22:18:18
RENEEBData-Validate-WithYAML0.082012-01-03 23:38:23
AUBERTGIPC-Concurrency-DBI1.0.02012-01-04 00:04:27
OVIDDB-Color0.032012-01-04 01:31:12
NEKOKAKClutch0.012012-01-04 03:11:38
RENEEBData-Validate-WithYAML-Plugin-EMail0.012012-01-04 04:38:49
RENEEBData-Validate-WithYAML-Plugin-NoSpam0.012012-01-04 04:55:30
RENEEBData-Validate-WithYAML-Plugin-Phone0.012012-01-04 06:02:18
RENEEBData-Validate-WithYAML-Plugin-URL0.012012-01-04 06:08:55
BARBIELabyrinth-Plugin-Album1.002012-01-04 08:22:02
GSULLIVANVerilog-VCD0.012012-01-04 10:04:06
DLAMBLEYMogileFS-Client-Async0.0152012-01-04 10:48:07
STEFFENWHash-Map0.0012012-01-04 13:11:02
WYANTCPAN-Access-AdHoc0.000_012012-01-04 13:47:41
MARKFArray-Extract1.002012-01-04 15:08:42
SANTEXFinance-NASDAQ-Markets0.012012-01-04 17:28:33
SANTEXFinance-Google-Sector-Mean0.012012-01-05 01:32:51
TOBYINKXML-LibXML-QuerySelector0.0012012-01-05 05:17:37
XAICRONWWW-Google-ClientLogin0.012012-01-05 06:12:31
XAICRONWWW-Google-C2DM0.012012-01-05 06:16:38
KTATTeng-Plugin-SearchBySQLAbstractMore0.012012-01-05 10:09:30
SAXJAZMANRT-CIFMinimal0.00_012012-01-05 12:34:02
RTHOMPSONDist-Zilla-Plugin-CheckVersionIncrement0.1200502012-01-05 14:12:28
SANTEXFinance-Optical-StrongBuy0.012012-01-05 14:25:42
LTPIBM-XCLI0.22012-01-05 16:51:30
EXODISTCycle-Detect0.0012012-01-05 22:42:09
SYOHEXText-AAlib0.012012-01-06 10:32:57
TOBYINKObject-Tap0.0012012-01-06 17:17:13
GETTYWWW-DNSMadeEasy0.0012012-01-06 22:04:21
RENEEBHTML-Template-Compiled-Plugins-RENEEB0.012012-01-06 22:19:48
MLEHMANNUrlader0.22012-01-08 04:13:42
CAUGUSTINTemplate-Replace0.042012-01-08 12:12:34
KUBINAText-Categorize-Textrank0.502012-01-08 15:15:18
DUKKIEBokkaKumiai0.022012-01-09 00:22:38
SYAGINet-OAuth-Yahoo0.012012-01-09 01:42:34
MITHALDUDist-Zilla-Util-FileGenerator0.1200902012-01-09 08:22:30
COPPERLYPerl-Tutorial0.0012012-01-09 13:34:52
KABLAMOTest-WWW-Selenium-More0.0012012-01-09 15:42:21
LBROCARDNet-Azure-BlobService0.352012-01-09 16:04:15
LEPREVOSTBio-Tools-Alignment-Overview0.012012-01-09 21:15:00
NORBUGiovanni0.012012-01-09 22:22:51
LAJANDYHeliosX-Logger-File0.01_02212012-01-10 02:28:04
MITHALDUParallel-Downloader0.1201002012-01-10 06:37:39
RSHADOWrshadow-gallery0.01-0-g4847cb62012-01-10 07:14:29
RSHADOWNginx-Module-Gallery0.012012-01-10 08:46:11
KOORCHIKMojolicious-Plugin-ValidateTiny0.072012-01-10 10:35:54
MDIETRICHCatalyst-Plugin-Authorization-RoleAbilities0.001-TRIAL2012-01-10 11:27:15
ILYAZUI-KeyboardLayout0.012012-01-10 13:52:51
MRUIZOpsview-REST0.0012012-01-10 18:15:44
MGOULDGames-Dice-Loaded0.001_012012-01-10 18:35:45
AQUILINAStringify-Deep0.012012-01-10 23:18:21
TLINDENDancer-Forms0.012012-01-11 06:26:49
ZPMORGANAI-Nerl0.001-TRIAL2012-01-11 08:02:33
TLINDENHTML-FormsDj0.022012-01-11 10:21:42
AUBERTGTest-Dist-VersionSync1.0.02012-01-11 10:29:55
BHILDREDlibPam-Perl0.0032012-01-11 11:27:05
TLINDENDancer-Plugin-HTML-FormDj0.012012-01-11 14:46:05
GAISSMAINet-SNMP-Mixin-CiscoDot1qVlanStaticTrunks0.012012-01-12 08:21:11
IOANRDist-Zilla-Plugin-ChangelogFromGit-CPAN-Changes0.0.12012-01-12 09:08:54
JLLOYDWebService-SendGrid1.02012-01-12 11:22:40
CORNELIUSApp-RepoSync0.012012-01-12 11:56:33
GRAYPOSIX-RT-Spawn0.012012-01-12 11:59:28
JJACKTest-Mock-Alarm0.102012-01-12 14:05:31
CJFIELDSBio-EUtilities1.70-TRIAL2012-01-12 15:38:53
BINGOSunless0.022012-01-12 19:16:56
AGORDONAuthen-ModAuthToken0.032012-01-12 20:32:55
AYOUNGConfig-NameValue1.012012-01-12 21:18:32
SALVALinux-Proc-Mounts0.012012-01-13 07:46:57
MAROSGames-Lacuna-Task2.002012-01-13 14:45:57
VOEGELASCPANPLUS-Dist-Slackware0.012012-01-13 15:26:58
DAGOLDENPantry0.0012012-01-13 18:24:37
MNUNBERGArray-Assign0.012012-01-13 21:00:28
ALEXBYKWWW-Yandex-BarTIC0.012012-01-13 22:08:49
GETTYCPAN-Distribution0.0012012-01-14 00:20:31
STEFFENWTest-HexDifferences0.0012012-01-14 03:22:59
PERLERMooseX-Accessor-Chained1.0.02012-01-14 09:33:35
PERLERMooseX-Attribute-Chained1.0.12012-01-14 11:03:45
WREISPlack-Middleware-RequestHeaders0.012012-01-14 13:25:23
NOBODYLucyX-Simple0.0012012-01-14 19:47:11
GETTYDist-Data0.0012012-01-14 20:43:26
BRAINBUZString-Validator-Password0.902012-01-14 22:09:41
BRAINBUZString-Validator0.902012-01-14 22:09:54
STEFFENWPPM-Test-HexDifferences0.0022012-01-15 14:30:17
RTHOMPSONDist-Zilla-PluginBundle-Author-RTHOMPSON0.1201602012-01-15 21:45:23
MOBREST-Google-Translate21.0.82012-01-15 22:42:53
NHEINRICWebService-MyGengo0.0102012-01-16 09:04:24
NHEINRICCatalyst-Model-WebService-MyGengo0.0012012-01-16 09:19:05
ROCKYDevel-Trepan-Disassemble1.02012-01-16 10:19:16
ROCKYDevel-Trepan-Shell1.02012-01-16 10:52:38
ROCKYTask-Trepan1.02012-01-16 11:14:32
GRAYText-Dice0.012012-01-16 15:33:10
RJRAYTest-AgainstSchema0.1002012-01-16 17:00:26
MALLENConvert-SSH20.012012-01-16 21:36:08
GETTYCPAN-Repository0.0012012-01-16 21:50:21
AUBERTGEmail-ExactTarget1.2.02012-01-17 00:15:57
SHARYANTORinci1.1.02012-01-17 00:55:16
SHARYANTORinci-HTTP1.1.02012-01-17 00:55:27
SHARYANTOSub-Spec-To-POD0.192012-01-17 00:57:44
PATCHUnicode-Util0.012012-01-17 01:13:54
LEVREST-Client-Simple0.12012-01-17 09:23:03
LEVWWW-BTjunkie0.012012-01-17 09:42:18
ALUCASCriteria-Compile0.0412012-01-17 10:12:03
XENUBusiness-PL-PESEL0.012012-01-17 10:48:58
SHARYANTORiap1.1.22012-01-17 13:11:24
MALLENAuthen-HTTP-Signature0.012012-01-17 14:36:24
LCARMICHWWW-DirectAdmin-API0.012012-01-17 17:51:52
WREISPlack-Middleware-Session-RemoveCookies0.012012-01-17 18:23:21
VOJTest-JSON-Entails0.12012-01-18 07:08:26
NHORNECGI-Untaint-CSP0.012012-01-18 11:02:49
SALVALinux-Proc-Mountinfo0.012012-01-18 12:53:55
USMANOVSpreadsheet-XML_to_XLS0.012012-01-18 13:18:15
NHORNECGI-Untaint-CSP-GB0.012012-01-18 16:37:08
CANIDYote-WebAppServer0.012012-01-18 17:15:08
GETTYDist-Zilla-Plugin-UploadToDuckPAN0.0012012-01-18 20:45:33
RENEEBEPublisher0.32012-01-19 09:42:03
JEAGLEDNS-ZoneSerialNumber1.002012-01-19 10:06:26
SYPHTML-AsText-Fix0.0012012-01-19 11:24:39
SEOVISUALWebService-SEOmoz-FreeAPI0.012012-01-19 11:37:52
CJCOLLIERAMPR-Rip440.032012-01-19 14:09:10
BHEISIGRT-Extension-ReferenceIDoitObjects0.22012-01-20 09:52:15
NHORNECGI-Untaint-CountyStateProvince0.032012-01-20 11:52:04
NHORNECGI-Untaint-CountyStateProvince-GB0.022012-01-20 12:05:43
MWENDLStatistics-Normality0.012012-01-20 14:16:01
ZZZNginx-Redis1.1.12.22012-01-20 17:37:39
ZZZNginx-HTTP0.012012-01-20 17:39:06
UKAUTZGetopt-Validv0.1.02012-01-20 17:44:29
MIKERNet-DNS-QueryID0.012012-01-21 04:25:40
JETEVELaTeX-CatSuit1.00_012012-01-21 11:42:42
RCLWWW-EFA0.012012-01-21 11:42:53
RSRCHBOYTest-Moose-More0.0012012-01-21 13:53:44
RIZENiTransact-Lite0.01002012-01-21 19:18:37
ZBYWebPrototypes-Registration0.0012012-01-22 04:00:22
CANIDYote0.032012-01-22 05:43:15
VTIProtocol-SocketIO0.00012012-01-22 07:36:25
TOMHUKINSWebService-Flattr0.502012-01-22 13:03:43
ZBLAIRPolycom-App-Push0.012012-01-22 14:51:28
PATCHTask-Unicode0.012012-01-22 21:02:22
MITHUNJar-Manifest0.012012-01-23 00:58:51
SLAFFANTask-Biodiverse-NoGUI0.160012012-01-23 05:25:09
SLAFFANTask-Biodiverse0.160012012-01-23 05:50:38
CFORPCAudio-C4Stream-Mixer1.002012-01-23 05:52:12
CFORPCAudio-C4Stream-Wav1.002012-01-23 05:53:39
SANTEXFinance-Quant0.012012-01-23 06:18:17
CJUANHam-Resources-Propagation0.012012-01-23 11:04:30
MSTROUTPackage-Variant1.0000002012-01-23 12:54:30
JBERGERText-AsciiTeX0.012012-01-23 16:58:55
CHIGGINSText-Table-Tiny0.0012012-01-23 17:53:04
HOLLYWWW-Giraffi-API0.12012-01-24 02:22:49
ANAZAWABlosxom-Template0.010022012-01-24 11:28:47
CJCOLLIEREarth-USA-Washington-Cascadia0.012012-01-24 14:11:56
PATCHText-Emoticon-Unicode0.012012-01-25 00:11:50
SHERWINJSON-RPC-Dispatcher-ClassMapping0.012012-01-25 03:43:18
YUKISorauta-Utility0.012012-01-25 05:44:58
TAKUJIDateTime-Factory0.012012-01-25 09:38:55
TAKUJIDateTimeX-Factory0.012012-01-25 10:34:28
THAVELICKAWS-SNS-Confess0.0012012-01-25 19:58:49
VINSWORLDNet-Frame-Layer-DNS1.00-w2012-01-25 20:18:20
RSRCHBOYMooseX-CurriedDelegation0.0012012-01-25 20:30:33
VINSWORLDNet-Frame-Layer-RIP1.00-w2012-01-25 20:34:36
VINSWORLDNet-Frame-Layer-RIPng1.00-w2012-01-25 20:36:03
VINSWORLDNet-Frame-Layer-Syslog1.00-w2012-01-25 20:54:28
RCLTV-Mediathek0.012012-01-26 04:12:24
SHARYANTOTask-Perinci0.032012-01-26 04:21:36
YUKISorauta-SVN-AutoCommit0.012012-01-26 05:52:06
TOBYINKall-your-base-are-belong-tov85.832012-01-26 06:13:50
JAMHEDDancer-OO0.012012-01-26 11:32:25
YUKISorauta-Cache-HTTP-Request-Image0.012012-01-27 01:04:09
SANTEXFinance-Quant-Charter0.012012-01-27 03:02:23
SANTEXFinance-Quant-TA0.012012-01-27 03:02:34
SANTEXFinance-Quant-Quotes0.012012-01-27 03:04:01
HORNBURGDancer-Plugin-LDAP0.00012012-01-27 04:16:45
YUKISorauta-Capture-ScreenShot0.012012-01-27 04:36:09
YUKISorauta-SVN-Updater0.012012-01-27 05:32:43
CHIPSOIDAPI-DirectAdmin0.032012-01-27 07:47:14
MLEHMANNPerl-LibExtractor1.02012-01-27 15:39:22
BHANNImage-WordCloud0.01_012012-01-27 17:23:15
TEAMProtocol-PerlDebugCLI0.0012012-01-28 11:23:40
TEAMTAP-Harness-Async0.0012012-01-28 14:33:32
CJMIO-HTML0.012012-01-28 16:28:47
YUKISorauta-Device-USB-Synchronizer0.012012-01-28 19:44:59
TMUELLERPlack-Middleware-Debug-Dancer-TemplateVariables0.0012012-01-28 19:49:05
JBERGERApp-makebeamerinfo2.0002012-01-29 01:53:00
BRADHModule-Loader0.0012012-01-29 07:03:00
DOGGYParallel-QueueWorker0.0012012-01-29 11:13:00
DOGGYNet-UpYun0.0012012-01-29 11:20:00
FROGGSGames-PangZero1.32012-01-29 11:35:00
TOBYINKRT-ClientX-GrabBugs0.0012012-01-29 15:47:07
RJHUnicode-Subscript0.12012-01-29 18:02:13
AUBERTGGit-Repository-Plugin-Blame1.0.02012-01-29 19:40:54
JANERTMath-HoltWinters0.032012-01-29 19:52:33
FUJIWARAFluent-Logger0.032012-01-29 22:48:34
DHOSSGrimlock0.0012012-01-29 23:20:23
AUBERTGPerl-Critic-Git1.0.02012-01-30 00:35:45
ALEXMASSHON-Deploy0.012012-01-30 08:01:33
LCARMICHGeo-Distance-Google0.012012-01-30 13:31:12
TOBYINKHTML-HTML5-ToText0.0012012-01-30 17:58:11
YANICKPerl-Achievements0.0.22012-01-30 20:50:12
JBERGERTie-Select0.012012-01-31 01:44:21
NORDAAKERParallol0.12012-01-31 05:26:40
LEVIAAI-Logic-AnswerSet0.012012-01-31 07:26:56
SEBNOWSQL-Stashv0.1.02012-01-31 09:14:53

New Distributions for February 2012 (196)

AuthorDistributionVersionRelease Date/Time
SMUELLERExtUtils-Typemaps-Excommunicated0.012012-02-01 13:02:20
RCLGoogle-Directions0.012012-02-01 13:03:47
MAGGIEXYZPDL-Graphics-ColorSpace0.0.62012-02-01 19:32:17
ALEXBYKMojoX-IOLoop-Throttle0.01_022012-02-01 19:52:45
CHENGANGHTTP-Server-Encrypt0.012012-02-02 06:04:28
TOBYINKCrypt-XkcdPassword0.0012012-02-02 10:03:49
ARTHASArthas-Defaults1.0.02012-02-02 11:52:13
VTIUnderscore0.012012-02-02 13:53:36
SHARYANTOSerabi0.002012-02-02 14:00:15
JOKERGOOList-Vectorize0.102012-02-03 04:22:03
MEMOWEMojolicious-Plugin-Subdispatch0.012012-02-03 06:47:24
MEMOWEMojolicious-Plugin-RelativeUrlFor0.012012-02-03 06:50:15
KIMOTOTest-ModuleVersion0.012012-02-03 07:04:45
CWIMMERHadoop-Admin0.12012-02-03 09:01:00
TRSKIProc-Forkmap0.012012-02-04 00:10:40
MFUToFroDos1.002012-02-04 11:37:34
LEONTthreads-posix0.0012012-02-04 11:40:24
YANICKDist-Zilla-Plugin-CoalescePod0.1.02012-02-04 13:08:57
RJHUnicode-Fraction0.12012-02-04 13:54:35
RJHApp-GSD0.12012-02-04 14:49:33
RSAVAGEGraphViz2-Marpa1.002012-02-04 19:39:44
MFUunix2dos0.012012-02-04 21:44:32
IOANRParse-USDA-NNDB0.12012-02-05 08:57:00
LOSYMEConfig-Any-Log4perl0.012012-02-05 09:38:42
YANICKTemplate-Caribou0.1.02012-02-05 15:04:11
ZBYWebPrototypes-ResetPass0.0012012-02-05 15:48:28
BARBIECPAN-Testers-WWW-Reports1.002012-02-05 17:02:31
GDEYTemplate-Provider-Amazon-S30.0012012-02-06 02:15:35
JOKERGOOStatistics-Multtest0.102012-02-06 08:23:02
JOKERGOOMicroarray-ExprSet0.102012-02-06 08:23:12
JOKERGOOMicroarray-GEO-SOFT0.102012-02-06 08:23:24
TOBYINKAcme-What0.0012012-02-06 08:37:11
KENTAROData-Mapper0.012012-02-06 10:14:12
CFABERFile-Fingerprint-Huge1.22012-02-06 13:34:46
ZEFRAMScalar-Construct0.0002012-02-06 14:14:27
MSTOCKPlack-Middleware-JSON-ForBrowsers0.0010002012-02-06 15:54:01
RPLATELNet-OpenSRS-OMA0.01_012012-02-06 16:03:08
RSRCHBOYDist-Zilla-PluginBundle-Git-CheckFor0.0012012-02-06 16:12:35
TOBYINKPerlX-Perform0.0012012-02-06 16:17:58
DROLSKYModule-Implementation0.012012-02-06 17:26:32
POLETTIXGraphics-Potrace0.1.0_012012-02-06 21:48:18
DRSTEVEnet-lastfmapi0.602012-02-07 01:51:07
ASIMONMojolicious-Plugin-Mason1Renderer0.022012-02-07 04:55:53
ASIMONMojolicious-Plugin-Mason2Renderer0.032012-02-07 04:56:05
JEENDate-Holidays-KR0.012012-02-07 06:07:38
STEFANOSHTMLTMPL-Extended1.02012-02-07 08:26:11
STEFANOSNet-FTP-Recursive-AutoReconnect1.02012-02-07 08:26:23
CJUANHam-Resources-HamQTH0.012012-02-07 14:46:05
RSIMOESWWW-Parallels-Agentv0.0.1-TRIAL2012-02-08 05:16:39
ZDKCatalyst-Plugin-ConfigLoader-Etc0.012012-02-08 06:01:36
AARDBIx-Lite0.112012-02-08 06:11:59
MALLENNet-CronIO0.012012-02-08 23:10:31
KYLEDGeo-DNA0.012012-02-09 04:09:33
SHARYANTOPerinci-Sub-ConvertArgs-Array0.042012-02-09 06:45:02
RSIMOESVM-Virtuozzov0.0.1-TRIAL2012-02-09 10:50:22
MEHHam-Fldigi0.022012-02-09 18:07:39
SHARYANTOPerinci-Sub-DepChecker0.042012-02-09 23:11:45
CJCOLLIERNIST-NVD-Store-SQLite30.012012-02-10 01:20:32
TJOHNSONObject-KVC0.012012-02-10 15:34:59
TJOHNSONFarly0.012012-02-10 15:41:33
GETTYMooX-Cmd0.0012012-02-10 18:02:22
UNDEFAnyEvent-Ping0.0012012-02-10 21:13:57
STEFFENWData-Page-Pagination0.0012012-02-11 02:15:32
BORISDEBook-MOBI0.12012-02-11 05:57:51
UNDEFNginx-Runner0.000001_12012-02-11 10:32:15
GRAYCompress-LZ40.012012-02-11 11:33:26
KEICHNERWin32-Scsv0.012012-02-11 13:21:58
AWNCORPtinycgi0.0.0_012012-02-11 13:39:00
MNUNBERGCouchbase-Client0.10_02012-02-11 23:15:52
REDICAPSDist-Zilla-Plugin-Moz0.1012012-02-12 01:46:12
YOREEKXML-Hash-XS0.012012-02-12 11:25:00
BMORROWB-Hooks-AtRuntime12012-02-13 01:16:03
PHREDWebService-Strava0.012012-02-13 03:51:39
LCONSConfig-Validator0.12012-02-13 07:32:16
UNDEFSMS-API-SMSC0.0012012-02-13 09:26:18
XSAWYERXWWW-xkcd0.0012012-02-14 03:11:49
SMUELLERData-FlexSerializer1.002012-02-14 05:08:34
SHARYANTOPerinci0.012012-02-14 05:44:22
SHARYANTOPerinci-Sub-property-drops_privilege0.032012-02-14 05:44:33
SHARYANTOPerinci-Examples0.062012-02-14 05:46:00
SHARYANTOPerinci-Sub-property-retry0.012012-02-14 05:46:11
SHARYANTOPerinci-Sub-property-timeout0.012012-02-14 05:46:22
SHARYANTOPerinci-Sub-Wrapper0.062012-02-14 05:46:32
BEROVDBIx-Simple-Class0.52012-02-14 07:44:55
TOBYINKAcme-RunDoc0.0012012-02-14 08:48:30
GPHATNet-Flowdock0.012012-02-14 08:53:34
TDRUGEONFile-HTTP0.872012-02-14 13:53:11
SANTEXFinance-Quant-Symbols0.012012-02-14 14:09:51
RSRCHBOYHTML-Builder0.0012012-02-14 14:22:49
AURUMText-Tradition0.12012-02-14 15:58:12
MMCLERICUbic-Service-InitScriptWrapper0.012012-02-14 19:49:28
AZAWAWIPadre-Plugin-Moose0.012012-02-15 05:25:13
TOBYINKPerlX-Maybe0.0012012-02-15 12:08:03
DARRENNet-IPInfoDB3.02012-02-15 12:09:30
SYXANASHDevice-SerialPort-Arduino0.022012-02-15 14:29:01
JWBThread-Task-Concurrent0.01012012-02-15 15:02:22
AWWAIIDAudio-NoiseGen0.012012-02-15 20:46:09
SONGMUHTTP-MobileAgent-Plugin-SmartPhone0.012012-02-16 08:26:14
SONGMUEncode-JP-Mobile-UnicodeEmoji0.012012-02-16 09:13:32
TOBYINKSyntax-Collector0.0012012-02-16 09:43:13
CLKAOMooseX-CoverableModifiers0.302012-02-16 11:58:09
BORISDEPublisher-Target-Plugin-Mobi0.012012-02-16 15:18:13
GETTYlocal-c0.0012012-02-16 22:39:17
MNUNBERGPkgConfig0.01_02012-02-17 00:39:11
LOGIEPlack-Middleware-GoogleAnalytics0.0012012-02-17 00:45:52
DOYNet-Flowdock-Stream0.012012-02-17 00:52:35
TOBYINKTOBYINK-PerlX-A0.000_0012012-02-17 09:48:04
SALVAArray-Shuffle0.012012-02-17 11:33:58
JHTHORSENApplify0.012012-02-17 14:43:51
PEVANSAlien-libtermkey0.012012-02-17 14:49:28
TAGAnyEvent-Blackboardv0.2.22012-02-17 15:02:18
JWILLIAMSClass-Mixer0.52012-02-17 15:23:04
ZEFRAMIO-ExplicitHandle0.0002012-02-17 17:52:38
FLORAList-Gather0.01-TRIAL2012-02-17 19:57:29
KOCEASYDancer-Plugin-I18N0.102012-02-17 20:53:23
LOGIEPlack-Middleware-GitRevisionInfo0.0012012-02-18 02:59:21
BAYASHIPlack-Middleware-Debug-LazyLoadModules0.022012-02-18 04:52:07
SYMKATDaemon-Control0.0000042012-02-18 05:55:43
FREDERICDMooseX-RW0.0012012-02-18 08:49:04
LANCETLPDS0.012012-02-18 09:15:33
DFRETTMogileFS-Client-Fuse0.022012-02-18 14:06:49
SIMONWCrypt-Nash0.12012-02-18 14:23:29
POTYLApp-s5pdf0.012012-02-19 09:58:24
FUJIWARAParallel-Benchmark0.012012-02-19 10:06:40
MJGARDNERTree-Path-Class0.001-TRIAL2012-02-19 14:14:04
POTYLApp-deckjs2pdf0.012012-02-19 16:35:52
FREDERICDAnyEvent-Processor0.0012012-02-20 05:25:47
KAARERole-REST-Client0.012012-02-20 11:29:23
ASPFilter-Rijndael0.012012-02-20 12:13:45
ZEFRAMNet-FTP-Tiny0.0002012-02-20 15:46:14
ZEFRAMNet-HTTP-Tiny0.0002012-02-20 15:49:11
DOMMApp-ArchiveDevelCover1.0002012-02-20 15:52:02
BRAINBUZString-Validator-Common0.932012-02-20 16:49:54
BRAINBUZString-Validator-Email0.932012-02-20 16:50:30
DROLSKYMoose-OldDocs0.01-TRIAL2012-02-20 17:44:43
TOBYINKSmart-Dispatch0.0012012-02-20 17:54:40
JWANGImage-Robohash0.012012-02-21 01:07:35
STEFANOSData-Password-Entropy-Old0.12012-02-21 05:29:54
MUGENKENRuby-VersionManagerv0.1.02012-02-21 09:26:54
TOBYINKCapture-Attribute0.0012012-02-21 09:30:01
NATELEWISFWS-Lite0.0012012-02-21 13:12:26
GNUSTAVOJIRA-Client0.34-TRIAL2012-02-21 21:34:02
ATHOMASONLog-Dispatch-Log-Syslog-Fast1.002012-02-21 22:17:50
SHARYANTOPerinci-Sub-GetArgs-Array0.082012-02-22 05:45:20
SHARYANTOPerinci-Sub-GetArgs-Argv0.112012-02-22 06:29:26
XYFDateTime-Format-Variant0.12012-02-22 07:52:40
SHARYANTOPerinci-BashComplete0.192012-02-23 02:14:51
SHARYANTOPerinci-Use0.022012-02-23 04:33:02
RENEEBEPublisher-Target-Plugin-EPub0.12012-02-23 08:30:04
NINEWWW-WebKit0.012012-02-23 10:30:55
NINETest-WWW-WebKit0.012012-02-23 10:34:54
NINETest-WWW-WebKit-Catalyst0.012012-02-23 10:50:20
TOBYINKjunk0.0012012-02-23 11:12:38
TENGUCatalyst-Authentication-Credential-MultiFactor1.02012-02-23 12:44:55
RDOBio-KBase0.012012-02-23 17:38:41
PERLPROXYWWW-eBridge0.172012-02-23 22:24:51
SHARYANTOPerinci-CmdLine0.382012-02-24 00:16:05
AJCTBot-BasicBot-Pluggable-Module-Tea0.012012-02-24 04:17:48
MJGARDNERSVN-Tree0.001-TRIAL2012-02-24 10:34:21
ZWONDevice-FTDI0.012012-02-24 10:38:25
ERIAMCatalyst-View-R0.01_12012-02-24 12:25:55
KARASIKFile-Redirect0.012012-02-24 17:12:52
JJNAPIORKDBIx-Class-Migration0.0012012-02-24 21:53:36
RHOELZLog-Dispatch-UDP0.012012-02-25 12:57:58
GNUSTAVOSVN-Look0.31-TRIAL2012-02-25 19:04:15
NEILBTemplate-Plugin-HTTP-UserAgent0.012012-02-25 19:59:56
RJHPod-Constant0.12012-02-25 20:04:03
GNUSTAVOSVN-Hooks1.122012-02-25 20:36:46
TEMPIRENet-Heroku0.012012-02-25 22:09:26
BARTENDERFacebook-OpenGraph0.12012-02-25 22:40:21
BRAINBUZString-Validator-Phone-NANP0.102012-02-26 03:47:46
SHERWINLingua-TL-Numbers0.012012-02-26 03:51:00
ODYNIECFile-PlainPath0.012012-02-26 14:16:01
ARJONESNet-TVDB1.1205702012-02-26 16:20:02
DCMERTENSPDL-Drawing-Prima0.012012-02-26 16:50:54
DAVIDPWeblogic-WLST0.012012-02-26 19:19:49
DCMERTENSPDL-Graphics-Prima0.012012-02-26 22:56:37
DCMERTENSApp-Prima-REPL0.012012-02-26 22:56:48
MSABRAMOApp-TarColor0.0052012-02-27 00:29:19
DYLANPOE-Component-Runner0.012012-02-27 01:47:45
EDIPRETODancer-Plugin-Lucy0.0012012-02-27 03:57:04
RJHX11-Wallpaper0.12012-02-27 12:07:54
GYPARKApp-gitfancy0.0012012-02-27 14:25:05
NATELEWISFWS-V20.0012012-02-27 15:40:02
ARJONESWebService-TVDB1.1205802012-02-27 16:32:53
RSRCHBOYPod-Elemental-Transformer-List-Converter0.0012012-02-27 23:25:48
EXODISTarchlib0.0012012-02-28 00:50:33
SVERBERNLingua-NL-FactoidExtractor1.02012-02-28 10:29:50
KATECarp-Parse1.0.12012-02-28 11:40:38
KATECarp-Parse-Redact1.0.12012-02-28 12:17:27
SHARYANTOPerinci-Sub-property-result_postfilter0.012012-02-28 12:36:58
KATELog-Log4perl-Layout-PatternLayout-Redact1.0.02012-02-28 14:02:22
CORYBTest-Trivial1.62012-02-28 21:43:27
GETTYApp-DuckPAN0.0012012-02-28 22:02:04
ZARQUONCatalyst-Manual-Monthly0.012012-02-29 04:12:04
FLORACond-Expr0.012012-02-29 07:58:49

New Distributions for March 2012 (257)

AuthorDistributionVersionRelease Date/Time
UNDEFTwiggy-Server-TLS0.0001_12012-03-01 08:18:53
YAMAMOTOPlack-App-GitSmartHttp0.012012-03-01 09:33:56
XSAWYERXTemplate-Plugin-xkcd0.0012012-03-01 10:32:54
KAARERole-REST-Client-Auth-Client0.012012-03-01 15:21:10
EDUARDOWKinghost-Painel0.12012-03-02 01:01:43
VOJPlack-App-unAPI0.12012-03-02 06:53:41
MPAPPUpp-Reader0.12012-03-02 08:13:42
MEMOWEcontenticious0.312012-03-02 08:26:42
TRONApp-epoch0.92012-03-02 10:59:36
KAARERole-REST-Client-Auth-Basic0.012012-03-02 12:49:48
PINKHASNAlgorithm-MCL0.0012012-03-02 17:06:46
STEVEBDevel-Trace-Method0.032012-03-02 19:24:33
MEMOWEContenticious0.3112012-03-03 09:25:11
TULSOFTDist-Zilla-Plugin-CheckEmacsChangeLog0.0.12012-03-03 09:29:20
MARCELApp-perlfind2.012012-03-03 10:32:34
CORIONImage-CCV0.012012-03-03 13:10:16
CJMApache2-HttpEquiv0.012012-03-03 14:30:20
ARFREITASSiebel-Srvrmgr0.012012-03-03 17:01:00
TEAMProtocol-SPDY0.0012012-03-03 17:42:45
RVOSABio-Phylo-Beagle0.012012-03-03 19:17:05
TEAMEntityModel-Cache-Memcached-Async0.0012012-03-03 23:33:35
TULSOFTApp-combinesheets0.2.12012-03-04 01:40:45
UNCLEANDYFCGI-ProcManager-Dynamic0.12012-03-04 08:58:51
CWIMMERWWW-Shorten-Yahooit0.0012012-03-04 19:28:17
TEAMEntityModel-EventLoop0.0012012-03-04 20:17:44
TEAMEntityModel-EventLoop-IO-Async0.0012012-03-04 20:20:39
WWOLFText-Xslate-Bridge-MultiMarkdown0.0012012-03-05 05:24:37
UKAUTZNet-Amazon-DynamoDBv0.1.22012-03-05 07:05:44
BESSARABVApp-IsGitSynced0.012012-03-05 10:22:49
EDUARDOWWWW-Kinghost-Painel0.012012-03-05 12:52:02
TOMCEncode-Guess-Educated0.032012-03-05 14:57:55
DRZIGMANWWW-LogicBoxes0.0.12012-03-05 21:35:50
MNUNBERGProc-Terminator0.012012-03-05 22:16:07
JWIELANDWebService-Embedly0.0012012-03-06 00:10:34
SSCAFFIDIDevel-Valgrind-Massif-OutputParser0.0.0_0012012-03-06 00:29:50
IAMCALAcme-Goatse0.022012-03-06 01:52:58
IAMCALAcme-OneBit0.012012-03-06 01:53:10
STEFANOSFinance-Bank-DE-LBB-Creditcard0.12012-03-06 02:17:32
REALHOLGINet-OpenIdLogin0.1.02012-03-06 06:51:57
DROBERTSFile-RelDir0.12012-03-06 07:57:36
AUBERTGData-Validate-Type1.0.02012-03-06 11:03:23
ASPGeo-Calc-XS0.232012-03-06 12:14:41
SSCAFFIDIDist-Zilla-Plugin-Git-GatherDir0.0.1_0012012-03-06 12:45:15
RSIMOESMozilla-PublicSuffixv0.0.1-TRIAL2012-03-06 14:08:03
DOYTerm-Filter0.012012-03-07 04:04:04
DOYApp-Ttyrec0.012012-03-07 04:10:49
VOJPlack-App-SeeAlso0.012012-03-07 08:18:01
ELBOWWWW-Mailgun0.12012-03-07 12:11:40
STEVEBBusiness-ISP0.13_022012-03-07 18:50:25
AJCTWWW-Mixcloud0.012012-03-08 04:10:53
HOREANet-MessageBus0.012012-03-08 05:41:05
AANOAADateTime-Format-Diotek0.0.12012-03-08 10:08:54
CMOEWESGeocache1.120680-TRIAL2012-03-08 10:32:48
STEFANOSFinance-Bank-DE-NetBank-Check0.12012-03-08 12:16:34
BOBTFISHNet-AMQP-PP0.012012-03-08 16:27:24
ATODOROVApp-Monupco-OpenShift-Express0.012012-03-08 17:24:20
MSTPLBGAllKnowingDNS1.02012-03-08 18:05:32
WWOLFSque0.0012012-03-09 05:38:02
MARIABWWW-TMDB-API0.012012-03-09 06:09:50
PLYTLEWWW-WuFoo0.0012012-03-09 06:27:25
DLAMBLEYShipIt-Step-JenkinsCheck0.012012-03-09 08:41:54
CHANSENPlack-Handler-Net-FastCGI0.012012-03-09 10:58:44
REALHOLGIOpenID-Login0.1.02012-03-09 12:29:32
KISEKITest-EasyMock0.012012-03-09 15:44:47
MOOSALingua-AR-Abgad0.012012-03-09 17:36:00
PLYTLETest-WWW-Selenium-Sencha0.0012012-03-09 22:14:34
AZAWAWIPadre-Plugin-Snippet0.012012-03-10 02:09:29
GAISSMAIApp-DNS-Zonewalk0.012012-03-10 10:44:59
STEVEBFreeRADIUS-Database0.052012-03-10 20:11:16
BOBTFISHIPC-Lock-RabbitMQ0.0052012-03-11 07:51:00
KEICHNERAcme-Indent0.012012-03-11 11:21:06
ZWONCatalyst-Model-Redis0.012012-03-11 12:08:53
VAXMANArray-APX0.12012-03-11 13:00:00
PDRAuthen-OATH-OCRA1.002012-03-11 14:30:10
FIBOPerl-Node-Interface0.28_012012-03-11 14:38:02
CJMDateTimeX-Seinfeld0.012012-03-11 17:36:53
RSAVAGECGI-Snapp1.002012-03-12 02:21:50
RSAVAGECGI-Snapp-Demo-Four1.002012-03-12 02:22:02
RSAVAGECGI-Snapp-Demo-One1.002012-03-12 02:22:14
RSAVAGECGI-Snapp-Demo-Three1.002012-03-12 02:22:25
RSAVAGECGI-Snapp-Demo-Two1.002012-03-12 02:22:36
RSAVAGECGI-Snapp-Plugin-Forward1.002012-03-12 02:22:48
RSAVAGECGI-Snapp-Plugin-Redirect1.002012-03-12 02:23:04
RSAVAGEConfig-Plugin-Tiny1.002012-03-12 02:24:31
RSAVAGEConfig-Plugin-TinyManifold1.002012-03-12 02:24:43
RSAVAGELog-Handler-Plugin-DBI1.002012-03-12 02:24:51
SKITask-Elkhound0.012012-03-12 03:15:29
JQUELINORDB-CPAN-Mageia1.1207202012-03-12 05:20:08
JROBINSONDBIx-Class-Manual-SQLHackers1.12012-03-12 10:01:36
KIMOTOMojolicious-Plugin-MySQLViewerLite0.012012-03-12 10:39:46
DAMOGDancer-Plugin-EmptyGIF0.12012-03-12 12:22:09
KUBINAText-Summarize0.502012-03-12 13:24:35
NANISOpenSSL-Versions0.0012012-03-12 15:44:09
ZEFRAMApp-olson0.0002012-03-12 18:23:02
DMAKIZMQ1.00_012012-03-12 21:49:24
SHARYANTOPerinci-To-Text0.052012-03-12 23:50:39
NARAZAKAConfig-Column1.002012-03-13 01:58:58
CSIDEUNIVERSAL-source_location_for0.012012-03-13 05:01:55
SHARYANTOPerinci-To-POD0.212012-03-13 05:08:31
AZAWAWIPadre-Plugin-PDL0.022012-03-13 05:13:55
CLADISmarTalkv0.12012-03-13 07:17:02
GILLMAUSCatalyst-View-Image-Text2Image0.012012-03-13 14:17:56
JANPAZLogfile-Read0.62012-03-13 17:40:42
GRANDPAWin32-MSI-HighLevel1.00082012-03-14 03:30:14
DAKKARNet-Stomp-MooseHelpers0.1_012012-03-14 07:52:42
HJANSENMojolicious-Plugin-CountryDropDown0.042012-03-14 08:03:04
DAKKARNet-Stomp-Producer0.1_012012-03-14 08:07:09
DAKKARPlack-Handler-Stomp0.1_012012-03-14 08:11:13
DAKKARCatalyst-ActionRole-JMS0.1_012012-03-14 08:15:22
DAKKARCatalystX-ComponentsFromConfig0.1_012012-03-14 08:16:48
DAKKARCatalystX-ConsumesJMS0.1_012012-03-14 08:23:17
AWNCORPEmail-Sender-Server0.01_012012-03-14 08:48:00
MOOSALingua-EN-AR0.012012-03-14 12:45:30
SHARYANTOPerinci-Object0.052012-03-14 21:57:40
PJBMIDI-SoundFont1.002012-03-15 05:50:00
BRADHSub-Monkey0.0012012-03-15 07:11:50
KIMOTOMojolicious-Plugin-SQLiteViewerLite0.012012-03-15 07:56:37
AZAWAWIPadre-Plugin-ParserTool0.012012-03-15 09:11:03
IDIVISIONnginx0.0.12012-03-15 11:06:05
KARUPAAnyEvent-ForkManager0.012012-03-15 12:26:26
SLUApp-TimeClock0.012012-03-15 17:22:47
SHARYANTOPerinci-To-HTML0.012012-03-15 21:57:21
JBERGERAlien-Base0.000_0012012-03-15 23:20:48
LTPCisco-UCS-Common-PSU0.12012-03-16 00:36:48
LTPCisco-UCS-FEX0.12012-03-16 00:42:12
TOBYINKSyntax-Feature-Qwa0.0012012-03-16 05:51:11
MONSCrypt-OpenSSL-Blowfish-CFB640.012012-03-16 09:43:50
ANDREMARBit-Compare0.0012012-03-16 10:55:37
WARRINGDElive-StandardV30.01_12012-03-16 16:50:40
TOBYINKXML-LibXML-Devel-SetLineNumber0.000_002012-03-16 18:05:14
DOHERTYWWW-Hashbang-Pastebin0.0012012-03-16 18:44:31
DOHERTYWWW-Hashbang-Pastebin-Client0.0012012-03-16 18:46:16
KARMANDezi-UI0.0010002012-03-16 22:48:12
FCOMojolicious-Plugin-EventSource0.12012-03-17 01:50:55
HOLLYTest-Fixture-KyotoTycoon0.012012-03-17 03:24:21
IDIVISIONcPanel-3rdparty-nginxv0.01_012012-03-17 04:54:43
PITCHLESSMooseX-Getopt-Usage0.062012-03-17 12:15:28
SHERWINPlack-Middleware-RealIP0.012012-03-18 03:35:38
KOJIMAGIAcme-AirRead0.012012-03-18 13:33:24
MDORMANZMQ-AnyEvent0.0012012-03-18 17:06:47
NAVNEETCmdArguments1.002012-03-18 23:48:30
BOWMANBSPlack-Middleware-ReverseProxyPath0.02-TRIAL2012-03-19 01:02:34
DOYLastFM-Export0.012012-03-19 02:47:25
VIGITHOgg-Vorbis-LibVorbis0.012012-03-19 06:23:00
IDIVISIONcPanel-nginxv0.012012-03-19 12:05:36
NNUTTERMetrics0.0012012-03-19 13:14:47
BLUEFEETMooseX-BuildArgs0.012012-03-19 13:56:41
BLUEFEETMooseX-SingleArg0.012012-03-19 17:56:39
EDENCCatalystX-Test-MockContext0.0000012012-03-19 18:26:27
YANICKDist-Zilla-Plugin-NextVersion-Semantic0.1.02012-03-19 19:11:21
YANICKDist-Zilla-Plugin-Covenant0.1.02012-03-19 19:39:32
YANICKDist-Zilla-Plugin-SchwartzRatio0.1.02012-03-19 20:35:31
WSDOOKADRHash-Override0.012012-03-19 22:04:06
KHUSSEINDancer-Logger-ConsoleAggregator0.0012012-03-19 23:07:24
BLUEFEETConfig-Locale0.012012-03-19 23:33:04
RENEEBEPublisher-Source-Plugin-MetaCPAN0.12012-03-20 05:14:04
HABEDBIx-Retry0.0032012-03-20 05:34:46
SHARYANTOPod-Weaver-Plugin-Perinci0.082012-03-20 07:36:46
TOBYINKAny-Mo0.302012-03-20 11:07:02
COLINSCBusiness-Edifact-Interchange0.022012-03-20 12:23:24
PEVANSIO-Async-Loop-Mojo0.012012-03-20 14:42:46
CAGAOHTML-FormHandlerX-Form-Login0.012012-03-20 15:54:42
BEANZDevice-Onkyo1.1208002012-03-20 16:58:41
SHAWMojolicious-Plugin-ParamExpand0.012012-03-21 02:15:24
DAMOGGeo-PostalCode-NoDB0.012012-03-21 11:56:45
CJFIELDSDist-Zilla-PluginBundle-BioPerl0.012012-03-21 15:45:31
ANDREFSText-Perfide-PartialAlign0.01_012012-03-21 21:08:43
SHARYANTOPerinci-Sub-Gen-AccessTable0.072012-03-22 05:51:03
PEVANSIO-Async-Loop-EV0.012012-03-22 07:51:21
DJOOSWin32-JobAdd1.002012-03-22 08:05:43
TULSOFTDist-Zilla-Plugin-Pod2Html0.1.02012-03-22 09:08:32
ACRUSSELLCompellent-CompCU0.022012-03-22 15:41:23
ANDREFSApp-TeXMine0.01_012012-03-22 16:00:00
CAGAOCatalystX-Controller-Auth0.012012-03-22 19:04:03
MITHALDUEmail-Enkoder1.1208302012-03-22 20:54:23
SHARYANTOSHARYANTO-String-Util0.012012-03-22 22:47:56
AASSADFace-Client0.032012-03-23 00:52:42
HJANSENMojolicious-Plugin-Captcha-reCAPTCHA0.032012-03-23 05:45:27
AWWAIIDApp-metacpansearch0.012012-03-23 09:37:49
KENTNLModule-Data0.0012012-03-23 11:38:47
KENTNLPath-ScanINC0.0012012-03-23 13:33:49
TOBYINKList-MapMulti0.0012012-03-23 18:18:27
OMNIBot-BasicBot-Pluggable-Module-Shutdown0.012012-03-23 19:13:27
SKITask-DualLived0.012012-03-24 03:49:02
DMAKIZMQ-Constants1.00_012012-03-24 09:03:05
DMAKIZMQ-LibZMQ21.00_012012-03-24 09:09:53
DMAKIZMQ-LibZMQ31.00_012012-03-24 09:27:09
RSIMOESAlien-GMPv0.0.1-TRIAL2012-03-24 17:17:14
GETTYDist-Zilla-Plugin-AutoModuleShareDirs0.0012012-03-24 18:09:56
YURYPOSIX-Socket0.012012-03-24 18:19:18
ANDREFSDist-Zilla-MintingProfile-Author-Andrefs0.01_022012-03-24 22:18:23
DIEDERICHIPC-Transit0.01_12012-03-25 00:12:12
RSMITHIkiWiki-Plugin-disqus0.012012-03-25 00:50:55
HOREALog-Log4perl-Appender-File-FixedSize0.012012-03-25 07:05:39
AJCTApp-Scrobble0.012012-03-25 09:00:38
PATCHTest-BSON0.012012-03-25 16:30:58
DMAKIZMQ-CZMQ1.00_012012-03-25 21:07:00
LTPCisco-UCS-Blade0.12012-03-26 00:18:25
LTPCisco-UCS-Common-Fan0.12012-03-26 00:35:58
LTPCisco-UCS-Common-FanModule0.12012-03-26 01:19:21
SHERWINPlack-Middleware-GeoIP0.012012-03-26 01:32:31
REVMISCHAMooseX-Callbacks0.012012-03-26 01:37:58
WHITNEYK0.012012-03-26 03:17:16
DMCBRIDETerm-ReadLine-Event0.012012-03-26 09:49:37
AZAWAWIPadre-Plugin-Experimento0.012012-03-26 11:01:00
ROMANFHTML-FormHandlerX-Field-DateTimeNaturalv0.1.02012-03-26 11:46:27
HOREAFile-RoundRobin0.042012-03-26 15:12:30
BRADHObject-Nano0.0012012-03-26 15:25:28
LTPCisco-UCS-Chassis0.12012-03-26 19:18:04
DAGOLDENMooseX-Types-Stringlike0.0012012-03-26 22:55:19
MARKFDevel-CompiledCalls1.002012-03-27 03:03:56
TOBYINKXML-LibXML-Augment0.0012012-03-27 06:17:33
SAXJAZMANNet-Abuse-Utils-Spamhaus0.00_012012-03-27 11:31:09
DAGOLDENMooseX-Types-Path-Class-MoreCoercions0.0012012-03-27 12:44:47
RHOELZDist-Zilla-Plugin-Git-ExcludeUntracked0.012012-03-27 13:56:44
APERROTTDevice-ELM3270.012012-03-27 17:19:24
BENNIETkx-Login1.042012-03-27 20:10:23
SHARYANTOBuiltin-Logged0.012012-03-27 22:26:56
PHAMBusiness-Stripe0.012012-03-27 22:32:24
UNDEFTwiggy-TLS0.00102012-03-28 05:33:00
HIMACHOCOSWFEditor0.012012-03-28 08:22:39
SHARYANTOSetup1.0.02012-03-28 08:40:53
SHARYANTOTest-Setup1.012012-03-28 10:55:08
RUEYCHENGText-KwikiFormat0.012012-03-28 12:55:10
MGANNONXBRL0.012012-03-28 12:55:22
ATODOROVApp-Monupco-dotCloud0.012012-03-28 16:13:03
SYPText-SpeedyFx0.0012012-03-28 18:14:16
SHARYANTOTask-Setup0.012012-03-28 21:58:39
SHARYANTOPerinci-Gen-ForModule0.032012-03-28 22:00:06
ILMARIApp-Prove-Plugin-SetEnv0.0012012-03-29 08:42:10
SYPText-Fingerprint0.0012012-03-29 14:11:19
SYPDist-Zilla-MintingProfile-SYP0.0012012-03-29 15:56:34
MSTROUTRole-Tiny1.0000002012-03-29 16:09:47
BJOERNMath-CMA0.12012-03-29 16:34:38
VPITre-engine-Hooks0.012012-03-29 17:58:31
SHARYANTOPerinci-Access-HTTP-Server0.132012-03-30 06:43:34
BARBIECPAN-Testers-WWW-Reports-Query-AJAX0.012012-03-30 08:52:39
AVENJApp-bmkpasswd0.032012-03-30 10:26:12
AVENJApp-authkeymgr0.0102012-03-30 10:26:23
MARTMogileFS-REST0.012012-03-30 12:42:53
SMUELLERZMQ-Declare0.012012-03-30 13:00:28
HWATSWF-ForcibleConverter0.012012-03-30 13:11:19
MCONNERDevel-Decouplev0.0.12012-03-30 15:10:47
BINGOSCPANPLUS-Test-Dummy-HasScript0.00042012-03-30 17:48:16
BINGOSCPANPLUS-Test-Dummy-UsesScript0.00022012-03-30 18:13:05
DMUEYlib-findbin0.12012-03-30 19:51:27
STEVEBDevel-ExamineSubs0.042012-03-30 20:37:29
JAITKENDigest-Bcrypt0.1.02012-03-30 20:56:44
STEVEBDevel-Examine-Subs0.062012-03-30 22:03:34
RSRCHBOYTask-BeLike-RSRCHBOY-Web0.0012012-03-31 00:22:05
DAGOLDENTie-Handle-Offset0.0012012-03-31 02:18:44
BARBIECPAN-Testers-WWW-Reports-Query-Reports0.012012-03-31 03:26:12
MAHIROData-Freq0.012012-03-31 03:54:11
RGARCIAPerl-SVCount0.012012-03-31 07:36:43
LEONTDist-Zilla-Role-ModuleIncluder0.0012012-03-31 11:08:29
MITHALDUPerl-Tidy-Komodo1.1209102012-03-31 11:44:03
JHTHORSENMojolicious-Plugin-Cloudinary0.012012-03-31 14:50:25

New Distributions for April 2012 (214)

AuthorDistributionVersionRelease Date/Time
NATELEWISFWS-V2-SocketLabs0.012012-03-31 22:46:44
LOGIECatalyst-Model-Lucy0.0012012-04-01 01:05:17
TOBYINKMooseX-hasn-t0.0012012-04-01 05:23:40
NPEREZMetaCPAN-API-Tiny1.1209202012-04-01 05:58:37
DAGOLDENCPAN-Test-Dummy-Perl5-RecSug0.0012012-04-01 06:03:03
LEONTCPAN-Meta-Check0.0012012-04-01 06:47:04
DAGOLDENCPAN-Meta-Requirements2.1212012-04-01 09:06:26
MIYAGAWACPAN-cpanfile0.90002012-04-01 09:12:58
GRAFWebService-XING0.0012012-04-01 09:16:41
POTYLHTTP-Soup-Gnome0.012012-04-01 10:30:48
MJFLICKDrogo0.072012-04-01 13:17:21
JBERGERMooseX-RememberHistory0.0012012-04-01 14:00:32
RSIMOESAlien-Autotoolsv0.0.1-TRIAL2012-04-02 01:40:42
ILVOnlineJudge-Progra0.012012-04-02 01:48:42
LOGIEData-Classifier-NaiveBayes0.0022012-04-02 02:21:05
LIOSHAGeo-Openstreetmap-Parser0.012012-04-02 04:31:59
ROCKYB-CodeLines1.02012-04-02 05:38:14
SEWIDBD-Simulated0.012012-04-02 06:10:51
BRADHClass-Monkey0.0012012-04-02 17:44:21
SHARYANTOModule-Patch0.012012-04-02 22:42:17
SHARYANTOHTTP-Daemon-patch-ipv60.012012-04-02 22:46:31
SHARYANTOLWP-UserAgent-patch-https_hard_timeout0.012012-04-02 23:59:12
PERIGRINCrixa0.012012-04-03 04:01:53
MNUNBERGJSON-SL0.0_12012-04-03 05:22:16
SCHWIGONDist-Zilla-PluginBundle-SCHWIGON0.0012012-04-03 08:41:07
JBERGERPhysics-RayTransfer0.0012012-04-03 11:03:28
SHELLINGUNIVERSAL-filename0.012012-04-03 11:54:58
SYPHTML-Untemplate0.0012012-04-03 12:00:20
SSCAFFIDISet-CartesianProduct-Lazy0.0012012-04-03 15:34:47
JJNAPIORKCatalyst-Plugin-URLMap0.0012012-04-03 15:50:20
JANDREWData-Walk-Extractedv0.05_032012-04-03 17:09:07
CUSTARDHam-Packet-DXSpider0.012012-04-03 17:13:23
SHARYANTOPerinci-Access-HTTP-Client0.022012-04-03 21:25:34
REDSNet-Stream0.282012-04-03 23:07:59
SHELLINGNamespace-Dispatch0.012012-04-04 03:46:36
BOBTFISHModule-Install-Authority0.012012-04-04 04:24:48
DDICKArchive-Har0.012012-04-04 05:15:27
SHARYANTODist-Zilla-PluginBundle-SHARYANTO0.012012-04-04 06:41:39
SCHWIGONPod-Weaver-PluginBundle-SCHWIGON0.0012012-04-04 07:02:26
SCHWIGONConfig-INI-Serializer0.0012012-04-04 07:19:35
PRAVUSProc-Topus0.002012-04-04 15:21:01
HAARGWin32-ShellQuote0.0010002012-04-04 20:11:40
EVERYBODYBoolean-String0.012012-04-05 05:13:12
SHERWINData-Password-passwdqc0.022012-04-05 14:03:29
JJNAPIORKCatalyst-Plugin-EnableMiddleware0.0012012-04-05 19:11:50
NYAKNYANMongoDB-Async0.452012-04-05 21:41:42
NYAKNYANCoro-LocalScalar0.12012-04-06 03:39:53
JQUELINDist-Zilla-PluginBundle-Author-JQUELIN2.1209702012-04-06 05:52:32
SARGIECatalystX-PSGIApp0.012012-04-06 13:32:20
JJNAPIORKCatalyst-Plugin-Session-Store-TestMemcached0.0012012-04-06 16:14:22
HALKEYEGitalist-Git-CollectionOfRepositories-Gitolite0.0012012-04-06 18:18:56
PHREDApache2-TaintRequest0.012012-04-06 19:58:28
JTPALMERMath-Fractal-Julia0.0000012012-04-06 20:59:14
AWNCORPTest-Qcmbr0.00_012012-04-06 23:38:16
MAROSMooseX-App1.002012-04-07 06:20:11
ALEXBIOWWW-API0.01-TRIAL2012-04-07 11:25:17
PAWELKROLArchive-ByteBoozer0.012012-04-07 13:12:03
TOMFAHLETask-BeLike-TomFahle0.112012-04-07 14:29:19
MSTOCKPlack-App-Gearman-Status0.0010002012-04-08 14:10:28
LEONTPerlIO-utf8_strict0.001-TRIAL2012-04-08 17:09:00
FUSINVFusionInventory-Agent-Task-Deploy2.0.02012-04-08 18:11:00
BLUEFEETMooseX-Types-Data-Serializer0.012012-04-08 20:26:07
GETTYMooX-HasEnv0.0012012-04-08 20:41:55
CJKWebService-Flixster0.012012-04-08 21:08:51
ROMANFHTML-FormHandlerX-Field-URI-HTTPv0.12012-04-08 21:59:12
ONEGRAYDigest-combined0.12012-04-09 02:17:39
AARBoost-Geometry-Utils0.022012-04-09 05:14:30
GVENKATJSON-HPack0.0.12012-04-09 08:41:49
FUSINVFusionInventory-Agent-Task-NetInventory2.02012-04-09 15:39:49
BENNIEACME-KeyboardMarathon1.072012-04-09 17:50:54
PHREDApache2-Proxy0.042012-04-10 03:33:21
GNGSpreadsheet-WriteExcel-Extended-FitColumnWidth1.012012-04-10 07:06:42
AMDDist-Zilla-PluginBundle-AMD0.0012012-04-10 07:33:59
AMDPod-Weaver-PluginBundle-AMD0.0012012-04-10 07:35:27
JAITKENAcme-Addslashes0.1.02012-04-10 08:37:04
DEXTERDateTime-Format-SCTS0.012012-04-10 11:10:49
DEXTERDateTime-Format-EMIUCP0.012012-04-10 11:38:04
DMCBRIDECoro-PrioChannel0.0012012-04-10 23:42:16
KAZEBUROApache-BumpyLife0.012012-04-10 23:59:08
QUENTUSAnyEvent-FreeSWITCH0.012012-04-11 02:30:30
SAXJAZMANIodef-Pb-Simple0.00_012012-04-11 07:25:11
TULSOFTApp-Cmdline0.1_02012-04-11 09:54:31
AZAWAWIMojolicious-Plugin-Pedro0.012012-04-11 14:44:15
RHOELZDevel-REPL-Plugin-Editor0.012012-04-11 16:21:27
GNUSTAVOOCS-Client0.0022012-04-11 16:22:54
AWNCORPCommand-Do0.012012-04-11 20:48:23
BKBGeo-Postcodes-JP0.0012012-04-11 23:04:30
RSAVAGECGI-Snapp-Dispatch1.002012-04-11 23:14:15
RENEEBPerl-Critic-RENEEB0.012012-04-12 03:57:00
MIYAGAWAModule-CPANfile0.90042012-04-12 05:33:32
MIYAGAWAModule-Install-CPANfile0.012012-04-12 07:19:30
MOTEMENHTTP-Response-Maker0.012012-04-12 08:08:22
DOLMENExporter-WithBase0.012012-04-12 18:25:00
MNUNBERGPOE-Component-ProcTerminator0.012012-04-12 22:40:00
DANFRUMonitisMonitorManager3.02012-04-13 00:36:03
SHAWMojolicious-Plugin-FormFields0.01_012012-04-13 02:27:39
LEONTPOSIX-RT-Scheduler0.0012012-04-13 18:39:41
CAGAOImage-Empty0.012012-04-13 18:42:42
KUBINAFile-Shuffle0.102012-04-13 18:44:21
ZZZHere-Template0.12012-04-13 18:54:56
DROLSKYDatabase-Migrator0.012012-04-13 21:42:37
DROLSKYDatabase-Migrator-mysql0.012012-04-13 21:48:58
IOANRWebService-Simplenote0.1.02012-04-13 22:05:46
IOANRApp-SimplenoteSync0.12012-04-13 22:07:14
BKBLingua-EN-PluralToSingular0.012012-04-13 22:37:50
ALEXBYKMojolicious-Plugin-RedirectHost0.01_012012-04-13 23:28:59
CLADICsv2Xlsv0.22012-04-14 02:33:27
SUNNAVYRT-Extension-CustomizeContentType0.012012-04-14 04:34:54
STUIFZANDMarpaX-Simple-Rulesv0.2.02012-04-14 06:08:41
IPHAnyEvent-Redis-RipeRedis0.8041002012-04-14 08:19:13
BRADHTest-Reuse0.0012012-04-14 08:20:53
AVENJIRC-Indexer0.012012-04-14 17:09:45
ZETAZeta-Util0.012012-04-14 22:53:02
BKBC-Utility0.0012012-04-15 00:39:41
BKBC-Template0.012012-04-15 01:11:41
JANDREWTest-And-Outputv0.003_0032012-04-15 02:43:22
ZETAZeta0.012012-04-15 04:30:52
IVANWILLSData-Contextv0.0.12012-04-16 06:41:11
VOJApp-padadoy0.1202012-04-16 07:29:52
VOJApp-Padadoy0.1222012-04-16 08:30:18
CAGAOCatalyst-View-Image-Empty0.012012-04-16 15:32:08
MCGRUFFAudio-Ardour-Irc0.102012-04-16 16:37:08
NRRData-UUID-Concise0.1210822012-04-17 06:16:47
AYOUNGOpenVZ0.012012-04-17 18:53:27
DCONWAYTest-Effects0.0000042012-04-18 01:33:52
GREGORMAS-TIFF0.12012-04-18 02:10:54
KENTAROPlack-Middleware-AutoReloadCSS0.012012-04-18 03:41:45
NHORNECGI-Untaint-CountyStateProvince-US0.012012-04-18 04:52:13
MOTEMENApp-htmlcat0.012012-04-18 06:26:03
ALEXBIOFFI-Raw0.012012-04-18 11:36:49
XENUDBD-IngresII0.602012-04-18 13:54:44
RWSTAUNERAnyEvent-HTTP-Message0.1002012-04-18 21:30:12
SIMONWCPU-Emulator-DCPU160.12012-04-19 02:55:08
KMXApp-module-version1.0032012-04-19 09:03:41
TOMCLingua-EN-BioLemmatizer1.0022012-04-19 11:02:29
JANDREWDateTimeX-Mashup-Shirasv0.007_0032012-04-19 13:48:48
CAGAOLog-AutoDump0.012012-04-19 15:21:47
WWOLFUbic-Service-Starman0.0012012-04-19 15:27:11
ANDREFSLingua-EN-Sentences-Offsets0.01_022012-04-19 18:26:55
KUBINAGraph-Undirected-Components0.302012-04-19 20:15:21
JOHANLTest-Case0.0.12012-04-20 08:04:57
SARGIEWWW-Mechanize-Boilerplate0.012012-04-20 09:15:25
DWATSONNet-DNS-Dynamic-Adfilter0.05_012012-04-20 09:38:34
JOHANLDBIx-Class-Row-Delta0.0.12012-04-20 10:08:00
ELIZABETHString-Lookup0.012012-04-20 13:28:42
BUGOVPony-Object0.022012-04-20 14:26:26
JPINKHAMBusiness-SiteCatalyst1.0.02012-04-20 16:03:26
TOBYINKMooseX-Prototype0.0012012-04-20 18:00:31
KYLEDObject-KeyValueCoding0.12012-04-21 00:22:47
JSWARTZPoet0.012012-04-21 00:43:22
KUNIYOSHINet-TinyIp0.012012-04-21 05:24:40
SMUELLERShardedKV0.012012-04-21 12:12:35
JHIVERPetal-Tiny1.02012-04-21 15:39:18
LOSYMELog-Dispatch-Socket0.012012-04-21 17:15:02
JZOBELApache2-ModXml20.012012-04-22 05:16:37
RHOELZDevel-REPL-Plugin-LazyLoad0.012012-04-22 10:24:10
FCOMongooseX-JSMethod0.012012-04-22 15:23:47
LOSYMEEV-Cron0.012012-04-22 18:17:38
BKBData-Kanji-KanjiVG0.012012-04-22 21:19:47
REVMISCHAAnyMQ-RawSocket0.012012-04-22 22:07:49
GSTRAUSSMCDB_File0.012012-04-23 03:40:03
IOANRNet-LCDproc0.1.02012-04-23 04:36:20
VDANJEANMath-TamuAnova1.0.02012-04-23 15:08:15
JHTHORSENMojolicious-Plugin-ValidateMoose0.012012-04-23 15:51:33
CORIONText-CleanFragment0.012012-04-23 16:57:54
GBARRMesoderm0.1211402012-04-23 19:54:49
KHSTemplate-Reverse0.0012012-04-23 22:41:39
WWOLFApp-Notes0.0012012-04-24 02:23:48
TOBYINKBetween0.0012012-04-24 05:02:40
RHOELZAcme-Emoticarp0.012012-04-24 10:30:32
CPANELArchive-Tar-Builder0.32012-04-24 11:23:24
TAGAnyEvent-Peer390.32012-04-24 13:12:58
SHLOMIFMediaWiki-CleanupHTMLv0.0.12012-04-24 15:03:59
DFRETTAuthen-CAS-UserAgent0.92012-04-24 16:22:05
PEDLARSys-RunAlone-User0.012012-04-24 17:41:35
DAVIDOList-BinarySearch0.01_0012012-04-24 19:26:51
JHIVERMIME-Type-FileName0.12012-04-24 23:20:58
TOKUHIROMnana0.012012-04-24 23:28:52
JHIVERXML-Parser-REX1.02012-04-25 06:53:23
SUPERASNWWW-Mechanize-Query0.012012-04-25 10:35:03
DWHEELERApp-Sqitch0.10-TRIAL2012-04-25 16:48:37
AJGBMooX-Singleton1.1211602012-04-25 19:27:03
BKBData-Kanji-Kanjidic0.012012-04-25 21:49:28
NORBUTrue-Truth0.12012-04-25 21:55:18
BLUETAnyEvent-CallbackStack0.012012-04-26 01:18:31
JHIVERSynapse-MailSender1.02012-04-26 07:41:32
CAVACNet-Server-Mail-ESMTP-SIZEpatched0.012012-04-26 07:43:00
JSWARTZDist-Zilla-Plugin-PodWeaverIfPod0.012012-04-26 08:00:26
LIOSHAGeo-Shapefile-Writer0.0022012-04-26 09:24:30
TOBYINKUnicode-Debug0.0012012-04-26 12:00:32
TRONSQL-Abstract-Builderv0.1.12012-04-26 16:19:29
LSFApp-Prove-Plugin-Distributed0.012012-04-26 23:49:20
CAGAOMooseX-Registry0.012012-04-27 11:03:13
MARCCPersec0.0-TRIAL2012-04-27 12:54:03
RFREIMUTHRandomJungle0.012012-04-27 22:19:46
ALEXPFormValidator-Simple-Plugin-CustomConstraint0.012012-04-28 10:27:57
FREWDBIx-Class-UnicornLogger0.0010002012-04-28 14:54:05
KABLAMOMooseX-CachingProxy0.0012012-04-28 20:28:08
KABLAMOLog-JSON0.0012012-04-28 21:13:41
AGJZenIRCBot0.01_012012-04-28 22:50:02
PMQSArchive-Zip-SimpleZip0.0012012-04-29 08:42:56
DARKSMOFile-CleanupTask0.012012-04-29 18:36:12
BKBUnicode-Diacritic-Strip0.012012-04-29 19:50:21
LCONSNo-Worries0.22012-04-30 06:34:08
JORISVRGraph-Matching0.022012-04-30 06:47:07
CYCLESNet-CoverArtArchive0.99-TRIAL2012-04-30 07:45:27
AAMENDRADIUS-Parser1.02012-04-30 08:02:07
AAMENDRADIUS-XMLParser1.02012-04-30 09:02:28
AAMENDRADIUS_XMLParser1.02012-04-30 09:15:46
JVApp-File-Grepper0.022012-04-30 09:21:40
JHIVERSynapse-CLI-Config0.12012-04-30 11:04:03
DCMERTENSAlien-FFCall0.012012-04-30 14:19:03
ALTREUSCatalyst-Authentication-Store-MongoDB-1e42012-04-30 17:28:03
EWATERSText-UnicodeBox0.012012-04-30 19:26:18

New Distributions for May 2012 (226)

AuthorDistributionVersionRelease Date/Time
MLAWRENApp-githook-perltidy0.032012-04-30 22:35:17
NRRDist-Zilla-PluginBundle-NRR0.1212202012-05-01 11:50:36
MOTEMENClass-Accessor-Lite-Lazy0.012012-05-01 11:59:47
PEVANSAlien-unibilium0.012012-05-01 13:33:38
JEREMYTemplate-Plain1.002012-05-01 16:53:37
XAICRONSQL-Format0.012012-05-01 17:17:10
RHAXTONGetopt-CommandLineExports0.012012-05-01 22:19:47
TYPESTERData-Apple-PriceTier0.012012-05-02 03:44:45
CARLVINCEDateTime-Format-Salesforce0.01_012012-05-02 04:45:18
TOBYINKPlack-Middleware-Apache2-ModSSL0.0012012-05-02 12:52:08
JSWARTZCHI-Memoize0.012012-05-02 14:34:41
AVARMooseX-Attribute-TypeConstraint-CustomizeFatal0.012012-05-02 16:14:03
AVARApp-Inotify-Hookable0.012012-05-02 16:55:32
TILLYTemplate-ExpandHash0.012012-05-02 19:36:52
AJGBApp-livehttperf0.012012-05-02 19:56:12
BKBC-Tokenize0.012012-05-02 22:34:32
RHAXTONData-PrintUtils0.012012-05-03 00:36:32
TANTALORNumber-UN0.0012012-05-03 09:44:15
BENBOOTHIntervalTree0.012012-05-03 13:50:15
MSTROUTImport-Into1.0000002012-05-03 16:08:27
JHIVERSynapse-Monitor-Listener0.12012-05-03 17:02:22
BBYRDSoftware-License-CCpack1.02012-05-03 17:34:59
MORNINDEDSub-Attempt0.012012-05-03 22:35:43
RHAXTONTest-BoostUnit0.012012-05-04 00:28:45
BKBDevice-Router-RTX0.012012-05-04 02:04:36
HOREAMojolicious-Plugin-WWWSession0.052012-05-04 05:36:16
ATODOROVApp-Monupco-OpenShift0.102012-05-04 11:32:22
DAGOLDENIO-Prompt-Tiny0.0012012-05-04 13:47:01
BRUMMETTApp-Prove-Plugin-Cluster0.012012-05-04 14:11:02
JCLEMENTSCatalyst-Plugin-Compress-WithExclusions0.012012-05-04 15:20:29
SHURDDMTF-CIMv0.032012-05-04 17:52:54
SHURDDMTF-CIM-MOFv0.032012-05-04 17:53:11
SHURDDMTF-WSManv0.032012-05-04 17:53:22
SHURDDMTF-CIM-WSManv0.032012-05-04 17:53:33
KARASIKIO-Lambda-Inotify1.002012-05-04 17:55:00
THALJEFApp-Pinto0.040_022012-05-04 18:38:09
CSIDESub-Inspector0.012012-05-04 23:29:26
MJFLICKIPTables-Mangle0.012012-05-04 23:36:03
WWOLFApp-Nopaste-Service-Dancebin0.0012012-05-05 01:51:32
BKBGames-Commentator0.012012-05-05 02:21:01
DJZORTCatalyst-Model-PayPal-API0.12012-05-05 09:30:27
BYTEROCKMojolicious-Plugin-Authorization1.012012-05-05 09:47:07
WOLDRICHApp-epic0.0142012-05-05 11:12:09
WOLDRICHApp-vidir0.030-woldrich2012-05-05 11:12:23
LBROCARDWWW-UsePerl-Server0.362012-05-05 16:00:00
CLIFFORDJNet-DSLProvider0.012012-05-05 18:52:40
TNAGAPHP-Functions-File0.012012-05-05 21:20:43
SHIBAZAKICinnamon0.012012-05-06 08:30:24
MIKIText-SimSearch0.01_0012012-05-06 13:27:37
ROHANPMWin32-Status0.802012-05-06 22:25:59
SITETECHBPM-Engine0.012012-05-07 00:20:28
ROHANPMQMake-Project0.802012-05-07 03:27:01
JHIVERSynapse-Logger0.12012-05-07 04:54:31
BOOKAcme-MetaSyntactic-Themes1.0002012-05-07 07:07:17
NICSCatmandu0.012012-05-07 10:37:14
NICSCatmandu-Cmd-repl0.012012-05-07 10:45:06
NICSCatmandu-Store-MongoDB0.012012-05-07 10:51:44
AFFCConvert-Color-ScaleModels0.01_012012-05-07 11:37:07
MUGENKENHelper-Commit0.0000012012-05-07 12:03:35
TOBYINKWeb-ID1.910_012012-05-07 15:50:57
GETTYMooX0.0012012-05-07 16:27:40
DGLApp-wmiirc1.0002012-05-07 17:59:22
NICSDancer-Plugin-Locale0.012012-05-08 03:05:05
NICSTemplate-Plugin-LanguageName0.012012-05-08 04:38:02
SCHWIGONTask-BeLike-SCHWIGON0.0012012-05-08 04:43:22
NICSCatmandu-MARC0.012012-05-08 04:47:33
NICSCatmandu-OAI0.012012-05-08 04:54:09
AMDTask-BeLike-AMD0.0012012-05-08 09:10:21
JBERGERPerlGSL-Integration-MultiDim0.0012012-05-08 12:51:17
LEONTPerlIO-buffersize0.0012012-05-08 15:04:03
JEFFOBERReddit-API0.012012-05-08 15:11:03
LTPCisco-UCS-Common-EthernetPort0.12012-05-08 21:56:04
LTPCisco-UCS-Common-SwitchCard0.12012-05-08 22:53:32
TOBYINKCache-Moustache0.0012012-05-09 04:40:12
NICSCatmandu-LDAP0.012012-05-09 05:29:14
ADAMBAJuno0.0012012-05-09 10:02:03
JBERGERPerlGSL-Integration-SingleDim0.0012012-05-09 11:44:44
KHWUnicode-casing10_022012-05-09 13:07:10
SARGIEData-Google-Visualization-DataSource0.012012-05-09 15:24:59
JBERGERPerlGSL-DiffEq0.082012-05-09 16:09:14
MLEHMANNAnyEvent-ReadLine-Gnu0.12012-05-09 22:22:47
JBERGERPerlGSL0.0012012-05-10 12:16:26
ARJONESICal-Format-Natural1.1213102012-05-10 14:13:51
ANDREFSYAML-Merge-Simple0.01_012012-05-10 17:35:45
DAGOLDENAcme-Acme-Module-Build-Tiny0.062012-05-10 19:08:01
LTPCisco-UCS-Interconnect0.12012-05-11 02:45:56
KOORCHIKMojolicious-Plugin-HTMLLint0.022012-05-11 08:20:04
JANPAZLogfile-Tail0.72012-05-11 18:23:00
HOBBESTIGDancer-Plugin-SSLify0.1213302012-05-12 15:49:11
CJMMedia-LibMTP-API0.012012-05-12 15:49:22
AUBERTGDBIx-ScopedTransaction1.0.02012-05-12 17:57:59
HOBBESTIGDancer-Plugin-RequireSSL0.1213312012-05-12 18:24:54
BOWTIEPadre-Plugin-Cookbook0.232012-05-13 08:15:02
GENEHACKHiD0.12012-05-13 18:31:23
PAWAPAWALingua-JA-WebIDF0.012012-05-13 22:09:46
DROLSKYType0.01-TRIAL2012-05-13 23:17:24
KOORCHIKMojolicious-Plugin-RenderFile0.012012-05-14 05:05:18
RAPMANKINFinance-Loan-Private0.012012-05-14 10:10:37
SYMKATFile-Set-Writer0.0000012012-05-14 13:44:49
DAGOLDENDist-Zilla-Plugin-Test-ReportPrereqs0.0012012-05-14 14:51:32
RSAVAGEWWW-Scraper-Wikipedia-ISO31661.002012-05-15 02:38:16
PHILLIPSIPTables-Rule0.012012-05-15 05:33:47
MITHUNString-Range-Expand0.012012-05-15 08:34:59
BKBLingua-JA-Name-Splitter0.012012-05-15 09:47:00
JGAMBLEGames-Mazes1.042012-05-15 19:13:44
HACHIDDLock-Server0.502012-05-15 20:58:32
HACHIDDLock-Client0.502012-05-15 20:58:44
HSURENGraph-Writer-Cytoscape1.002012-05-16 00:59:09
DCANTRELLDBIx-Class-QueryLog-WithStackTrace1.02012-05-16 07:40:03
AMDTapper4.02012-05-16 09:55:19
EWATERSApp-AltSQL0.012012-05-16 10:15:48
FKALTERWWW-Scraper-F10.001-TRIAL2012-05-16 10:25:59
DAGOLDENMetabase-Backend-AWS1.0002012-05-16 13:48:41
IKEGAMIfeature-loopv1.2.02012-05-16 15:10:25
AMDTapper-Producer4.0.12012-05-16 15:55:14
AMDTapper-TestSuite-Netperf4.0.12012-05-16 15:58:30
AMDTapper-Notification4.0.12012-05-16 16:00:08
AMDTapper-SimNow4.0.12012-05-16 16:00:31
AMDTapper-Action4.0.12012-05-16 16:14:15
IRONCAMELDancer-Plugin-Res0.00012012-05-16 20:18:07
YANICKEmail-Simple-Markdown0.1.02012-05-16 21:38:12
DJZORTNet-Proxmox-VE0.0012012-05-17 08:41:32
STUIFZANDData-OpeningHours0.2.02012-05-17 10:30:02
MJEMMESONWWW-Mechanize-Plugin-Sleepy0.0012012-05-17 11:49:10
DAGOLDENMetabase-Backend-SQL1.0002012-05-17 12:42:46
MIKIImage-libsiftfast0.01_012012-05-17 13:18:38
JBERGERPerlGSL-RootFinding-SingleDim0.0012012-05-17 14:19:55
DAGOLDENMetabase-Backend-MongoDB1.0002012-05-17 15:25:29
ABIGAILAcme-MetaSyntactic-Themes-Abigail20120517012012-05-17 17:38:59
YEWENBINCalendar-Any0.52012-05-18 06:11:17
YVESData-Undump0.012012-05-18 07:32:21
TOBYINKHash-DefaultValue0.0012012-05-18 09:55:49
DAGOLDENCPAN-Testers-Metabase-MongoDB0.0012012-05-18 10:25:30
DAGOLDENCPAN-Testers-Metabase-AWS1.9990022012-05-18 10:32:22
INGYStackato-Stackrad0.012012-05-18 13:56:46
HOBBESTIGDancer-Plugin-Locale-Wolowitz0.1213902012-05-18 15:25:33
MSCHUETTText-AI-CRM1140.032012-05-18 16:03:09
IKEGAMISyntax-Feature-Loopv1.4.02012-05-18 16:38:48
AJGBClio0.012012-05-18 20:03:00
SALVANet-SSH-Any0.012012-05-18 20:50:02
IKEGAMISyntax-Feature-QwCommentsv1.12.02012-05-19 14:30:39
VVELOXData-SImeasures0.0.02012-05-19 17:12:55
UNERADR-Tarantool0.012012-05-19 18:56:27
JHTHORSENCloudinary0.102012-05-20 10:05:03
ANDKDevel-Symdump-test-please-ignore2.08_522012-05-20 15:41:26
DIONYSMojoX-Transaction-WebSocket760.022012-05-20 16:19:50
KOORCHIKLingua-UK-Numbers0.042012-05-21 02:56:25
MANWARBankAccount-Validator-UK0.012012-05-21 11:08:30
MOBILEARTNet-SIGTRAN0.0.12012-05-21 13:55:52
SKAUFMANLog-Caller0.012012-05-21 17:29:48
RSAVAGEBenchmark-Featureset-SetOps1.002012-05-21 22:46:45
AVIKAKAlgorithm-ExpectationMaximization1.02012-05-22 00:06:59
LTPCisco-UCS-ServiceProfile0.12012-05-22 01:01:49
AVENJBot-Cobalt0.0012012-05-22 02:16:42
AVENJBot-Cobalt-Plugin-RSS0.0012012-05-22 02:41:25
VVELOXData-SIprefixes0.0.02012-05-22 16:56:45
LUKECTest-WebDriver0.012012-05-22 20:11:35
YANICKDist-Zilla-Plugin-ChangeStats-Git0.1.02012-05-22 22:28:58
CORNELIUSNet-Jenkins0.012012-05-22 22:37:10
AVENJBot-Cobalt-Plugin-Calc0.0012012-05-23 01:26:34
AVENJBot-Cobalt-Plugin-Silly0.0012012-05-23 01:28:02
TOBYINKPlack-Middleware-GepokX-ModSSL0.0012012-05-23 04:45:54
ZAGWriteat0.012012-05-23 04:55:08
MARKFTest-Recent1.002012-05-23 08:38:35
MYSZTry-Tiny-Extended0.12012-05-23 14:05:37
RHOELZTie-Hash-Blame0.012012-05-23 15:45:23
DAVIDOPassword-SaltSha0.012012-05-23 19:16:59
AVENJBot-Cobalt-DB-Term0.0012012-05-23 19:45:36
JCONERLYZeroMQ-Poller-Timer0.012012-05-23 23:27:07
JMATESMusic-AtonalUtil0.022012-05-24 02:27:00
SARGIECatalystX-RequestRole-StrictParams0.012012-05-24 09:16:45
SONGMUPlack-Middleware-Auth-QueryString0.012012-05-24 11:24:00
CORNELIUSJenkins-NotificationListener0.012012-05-24 15:26:22
MYSZTry-Tiny-SmartCatch0.22012-05-24 18:02:19
TJENNESSAstro-PAL1.002012-05-24 20:09:08
LTPCisco-UCS-MgmtEntity0.12012-05-24 23:29:00
KHSIPC-AnyEvent-Gearman0.0012012-05-25 02:28:20
DCLARKEPPM-Win32-PrintBox0.0012012-05-25 14:42:15
DCLARKEWin32-PrintBox0.0012012-05-25 14:43:42
CORNELIUSPlack-App-JenkinsNotification0.012012-05-25 23:46:05
CORNELIUSPlack-Middleware-JenkinsNotification0.032012-05-26 04:25:14
CORNELIUSWeb-JenkinsNotification0.052012-05-27 02:35:25
BOBTFISHMessage-Passing-STOMP0.001_012012-05-27 03:39:37
BOBTFISHMessage-Passing-ZeroMQ0.002_012012-05-27 03:45:07
DAVIDOAuthen-Passphrase-SaltedSHA5120.012012-05-27 03:51:45
BOBTFISHMessage-Passing-Output-WebHooks0.002_012012-05-27 03:52:05
BOBTFISHMessage-Passing-Syslog0.001_012012-05-27 04:10:07
BOBTFISHLog-Dispatch-Message-Passing0.0032012-05-27 04:13:01
BOBTFISHMessage-Passing0.002_012012-05-27 04:18:28
BOBTFISHMessage-Passing-Input-Freeswitch0.0022012-05-27 04:31:22
GETTYLocale-Simple0.0012012-05-27 05:39:11
JDDPAUSEWin32-Unicode-Shortcut0.012012-05-27 12:50:55
DIONYSCatalyst-Plugin-Server-JSONRPC-Batch0.022012-05-27 18:44:44
LTPCisco-UCS-Fault0.12012-05-27 22:51:15
DBRTask-BeLike-DBR0.0012012-05-28 04:58:01
DBRDist-Zilla-PluginBundle-DBR0.0012012-05-28 08:32:23
LEONMEDIAVK0.012012-05-28 09:26:15
JOBATinkerForge0.012012-05-28 11:40:42
XENOMooseX-RemoteHelper0.001010-TRIAL2012-05-28 21:45:16
KENTNLGit-PurePerl-Walker0.0010012012-05-29 01:24:40
MONSDevel-Hexdump0.012012-05-29 06:38:44
JAITKENDancer-Session-DBI0.1.02012-05-29 13:21:21
GROUSSEParse-EDID1.02012-05-29 14:13:56
EDENCCatalystX-OAuth20.0010012012-05-29 14:24:41
CHROMATICMath-BaseConvert1.72012-05-29 16:08:47
FIBOPNI-Devel0.012012-05-29 16:50:06
TOBYINKperl5-tobyink0.0012012-05-29 18:06:08
TOBYINKTask-BeLike-TOBYINK-RDF2012.1502012-05-29 18:16:07
TOBYINKTask-BeLike-TOBYINK-Data2012.1502012-05-29 18:20:17
TOBYINKTask-BeLike-TOBYINK-Moose2012.1502012-05-29 18:23:14
TOBYINKTask-BeLike-TOBYINK-Plack2012.1502012-05-29 18:23:26
TOBYINKTask-BeLike-TOBYINK-Utils2012.1502012-05-29 18:23:38
TOBYINKTask-BeLike-TOBYINK-Web2012.1502012-05-29 18:25:18
TOBYINKTask-BeLike-TOBYINK2012.1502012-05-29 18:51:25
JOELJACDBIx-Pg-CallFunction0.0022012-05-30 06:52:56
TOBYINKRDF-TrineX-Functions0.0012012-05-30 08:34:09
JEREMYSys-LoadAvg0.032012-05-30 10:29:43
ATOOMICTest-Parallel0.102012-05-30 13:00:18
SSCAFFIDIIPC-OpenAny0.0012012-05-30 17:32:06
KAZEBUROTwiggy-Prefork0.012012-05-30 22:42:30
ELIZABETHDevel-ThreadsForks0.012012-05-31 06:03:49
TOBYINKMath-Erf-Approx0.0012012-05-31 06:32:17
VTIText-APL0.012012-05-31 10:39:16
BOBTFISHMessage-Passing-AMQP0.0012012-05-31 17:25:23
GENEGame-Battleship0.05012012-05-31 17:58:13
BOBTFISHMessage-Passing-Redis0.0012012-05-31 18:10:17

New Distributions for June 2012 (262)

AuthorDistributionVersionRelease Date/Time
RHAXTONImage-DCMTK0.012012-05-31 20:43:59
JEFFOBERReddit-Client0.022012-05-31 22:07:49
JEFFOBERFilter-Cleanup0.012012-05-31 22:36:16
CLWOLFEClass-ReluctantORM0.52_02012-06-01 00:53:51
TYPESTERData-MessagePack-Stream0.012012-06-01 05:45:34
CAGAOPID-File0.012012-06-01 07:51:47
CJMPod-Weaver-Section-AllowOverride0.012012-06-01 15:07:25
ELIZABETHDevel-MaintBlead0.012012-06-01 16:47:40
SIRMXEPOE-Component-IRC-Plugin-WubWubWub0.012012-06-01 20:27:24
AASSADWebService-Face0.042012-06-02 01:40:12
UNERAAnyEvent-Callback0.022012-06-02 14:21:59
ANDREFSLingua-EN-Tokenizer-Offsets0.01_012012-06-02 20:41:03
RSRCHBOYCatalyst-TraitFor-Request-Plack-Session0.0012012-06-03 03:25:04
TOBYINKTask-BeLike-TOBYINK-Packaging2012.1552012-06-03 03:46:07
SCHWIGONTest-TAPv130.0012012-06-03 06:36:42
JFRIEDRex-IO-Client0.0.12012-06-03 08:15:43
JFRIEDRex-IO-CMDB0.0.12012-06-03 08:15:59
JFRIEDRex-IO-Server0.0.12012-06-03 08:16:11
LLAPPlack-Middleware-DirIndex0.012012-06-03 11:07:11
DAMISQL-Abstract-FromQuery0.012012-06-03 16:24:37
DANAJMath-Prime-Util0.012012-06-04 07:21:47
ACPGUEDESP50Tools0.52012-06-04 16:12:21
EDUARDOWDHTMLX-Core0.0012012-06-04 17:48:53
EDUARDOWDHTMLX-Connector0.0012012-06-04 18:02:29
TOKUHIROMDBIx-Tracer0.012012-06-04 18:54:05
CELOGEEKText-CGILike0.12012-06-05 12:18:24
TEMPIREMojolicious-Command-deploy0.012012-06-05 14:57:28
TEMPIREMojolicious-Command-deploy-heroku0.012012-06-05 15:00:31
ATOOMICSimple-Accessor0.102012-06-05 16:05:22
ROMANFMooseX-Types-PerlVersionv0.1.02012-06-05 17:07:12
RSRCHBOYCatalyst-TraitFor-Request-REST-ForBrowsers-AndPJAX0.0012012-06-06 04:48:57
RAYMDist-Zilla-PluginBundle-Author-RAYM0.0012012-06-06 07:03:07
RAYMIterator-Simple-Util0.0012012-06-06 07:21:49
RGRAUNet-ThreeScale-Client2.0.22012-06-06 11:22:26
SHARYANTOPerinci-Sub-Gen-Undoable0.012012-06-06 11:48:36
PAWAPAWALingua-JA-TFWebIDF0.012012-06-06 12:58:04
DBMOLESTALivelink-DAV0.00122012-06-06 19:38:27
KHSGearman-SlotManager0.0012012-06-06 21:36:43
DBRDist-Zilla-MintingProfile-MooseXDeclare0.100-TRIAL2012-06-07 05:38:25
SDENMendeleySQLite0.0012012-06-07 06:06:27
DBRDist-Zilla-PluginBundle-Author-DBR0.500-TRIAL2012-06-07 07:25:59
RJBSDist-Zilla-Plugin-Git-Describe0.0012012-06-07 10:43:24
EAXVK-MP30.012012-06-07 11:36:29
MOBHash-SafeKeys0.012012-06-07 17:04:06
SHUFFWebService-Pushoverv0.0.12012-06-07 17:40:14
BOBTFISHDevel-InterpreterSize0.012012-06-07 18:47:03
BPMEDLEYCGI-Go0.012012-06-07 20:06:04
MLAWRENOptArgs0.0.1_12012-06-07 20:45:39
WESMLingua-EN-Pseudolocalize0.0012012-06-07 22:27:22
AMBSBiblio-Thesaurus0.432012-06-08 12:36:26
DMCBRIDEautopackage0.0012012-06-08 14:32:22
JJNAPIORKPatterns-UndefObject0.0012012-06-08 14:38:02
JIMBOBMemoize-Memcached-Attribute0.102012-06-08 18:22:59
LETOore-Beer0.012012-06-08 18:58:21
JSOBRIERNet-Google-SafeBrowsing2-Redis0.12012-06-08 21:22:01
RGARTONLingua-Norms-USF0.012012-06-09 03:44:53
RGARTONLingua-Orthon0.012012-06-09 04:10:31
MACROFAGEParallax-App0.012012-06-09 08:02:15
DRUXATest-Deep-This1.002012-06-09 11:48:13
SEVEASNet-SMS-WorldText1.02012-06-09 13:51:35
MARCCtext-anagram0.02012-06-09 14:41:35
MARCCmarc-mir0.02012-06-09 14:49:42
MARCCperlude-sh0.02012-06-09 14:52:45
MSCHOUTTemplate-Plugin-Map0.012012-06-09 15:39:39
KRYDEWx-Perl-PodBrowser12012-06-09 20:46:19
JAITKENDist-Zilla-PluginBundle-JAITKEN0.1.02012-06-09 23:36:13
DAVIDOClass-User-DBI0.01_0012012-06-10 02:20:10
YURYDevel-Malloc0.012012-06-10 03:32:27
BULKDDExample-XS-FasterHashes0.012012-06-10 03:49:32
TEAMTAP-Formatter-Event0.0012012-06-10 11:50:28
DBRDist-Zilla-MintingProfile-Author-DBR0.2502012-06-10 12:28:56
PAWAPAWALingua-JA-NormalizeText0.012012-06-10 12:48:29
BOBTFISHMessage-Passing-PSGI0.0012012-06-10 14:07:27
BLUHMOSPF-LSDB1.002012-06-10 19:58:33
DOHERTYFile-Symlink-Atomic0.0012012-06-10 21:25:35
ABLUMDB-SPEEDYB0.12012-06-10 22:59:39
MIKIAlgorithm-FeatureSelection0.012012-06-11 08:42:19
DBRApp-OS-Detect-MachineCores0.0112012-06-11 09:34:31
TONYCHaiku-SysInfo0.0012012-06-11 10:05:32
RVOSABio-PhyloTastic0.12012-06-11 12:51:50
IOANRLinux-AtaSmart1.0.02012-06-11 20:07:14
SARTAKGit-Status-Tackle0.012012-06-11 20:51:42
SHARYANTOFinance-Bank-ID-BPRKS0.012012-06-12 02:49:41
CDRAKECrypt-MatrixSSL33.3_192012-06-12 03:29:34
WWOLFWebService-Pocket0.0012012-06-12 11:59:35
STEVANHTTP-Headers-ActionPack0.012012-06-12 15:35:06
STEVANWeb-Machine0.012012-06-12 15:35:19
SGLADKOVKafka0.012012-06-12 17:54:35
PERRETTDLTest-Proto0.0102012-06-12 18:07:37
ASHLEYWIO-Socket-CLI0.012012-06-12 19:07:09
DORIANURI-mid0.012012-06-12 20:50:45
DORIANURI-di0.012012-06-12 20:52:12
PERRETTDLWordLists0.0102012-06-13 07:00:00
MARCCxml-tags0.02012-06-13 14:48:52
CNIGHSBusiness-US-USPS-IMB0.012012-06-13 15:32:01
DWCARDERAcme-dwcarder0.012012-06-13 15:57:36
LTHARRISACME-ltharris0.012012-06-13 15:57:48
DEMIANAcme-Demian0.012012-06-13 15:58:04
MTINBERGAcme-MTINBERG0.012012-06-13 15:58:16
BDFOYAcme-BDFOY0.012012-06-13 15:58:27
ROHLFSCAcme-RohlfsC0.012012-06-13 15:58:38
MLXAcme-MLX0.012012-06-13 15:58:53
BCARMERAcme-BCARMER0.012012-06-13 15:59:10
BRYANAcme-Bryan0.012012-06-13 15:59:27
BOATESAcme-BOATES0.012012-06-13 15:59:43
YARROWAcme-YARROW0.012012-06-13 15:59:59
JJCARMANAcme-JJCARMAN0.012012-06-13 16:00:21
CTREPTOWAcme-ctreptow0.012012-06-13 16:00:38
PHILLUPAcme-phillup0.012012-06-13 16:02:06
ACFERENAcme-Acferen0.012012-06-13 16:02:18
KEVINZAcme-kevinz0.012012-06-13 16:02:24
MBHALLACME-MBHall0.012012-06-13 16:02:32
WALLISDSAcme-WallisdsFirstModule0.012012-06-13 16:02:33
BEASTAcme-WTF0.012012-06-13 16:02:42
KJAMAcme-KJAM0.012012-06-13 16:05:59
KENOAcme-KENO0.012012-06-13 16:11:22
JARICHACME-YAPC-NA-20120.022012-06-13 16:15:25
STICKPINAcme-stickpin0.022012-06-13 16:18:15
JLRUSHAcme-Jrush0.012012-06-13 16:19:12
ABHIISNOTAcme-AbhiIsNot0.022012-06-13 16:19:36
JANEZHANGAcme-JANEZHANG0.012012-06-13 16:27:46
IAMBAcme-IAMB0.012012-06-13 16:28:04
DYOUNGAcme-Dyoung0.012012-06-13 16:32:36
MARVINAcme-MARVIN0.012012-06-13 16:32:47
TOBYINKGlobal-Rainbow-Map0.0012012-06-13 17:50:45
ANELSONDateTime-Format-x5090.012012-06-13 22:49:53
CDRAKECryptMatrixSSL32012-06-14 01:38:21
SHAWMojolicious-Command-secret0.012012-06-14 02:00:24
KAZEBUROProclet0.012012-06-14 04:32:25
MAMAWEApp-Iptables2Dotv0.0.12012-06-14 05:47:13
MARKFErr0.012012-06-14 09:42:29
NUBANeo4j0.01_012012-06-14 11:05:38
PAWAPAWALingua-JA-Halfwidth-Katakana0.012012-06-14 12:43:52
LONERRCatalystX-VCS-Lookup0.012012-06-14 13:08:14
HANENKAMPAcme-Fork-Bomb1.02012-06-14 15:16:46
TOBYINKAcme-Pony-Pink0.0012012-06-14 18:19:29
ADROFFNEREcho-StreamServer0.012012-06-14 18:30:33
LTPCisco-IronPort0.012012-06-14 18:51:27
APNICTest-WWW-Selenium-HTML0.012012-06-14 20:10:54
NMOLDAVUserAgentString-Parser0.6.12012-06-14 23:53:25
NMOLDAVHTTP-UserAgentString-Parser0.6.12012-06-15 00:06:20
JSTEBENSLog-Log4perl-Appender-Socket-UNIX1.002012-06-15 05:22:55
MAJLISLingua-Metadata0.0012012-06-15 05:30:10
TOBYINKData-Dumper-Declare0.0012012-06-15 08:32:38
MSCHWERNCarp-Fix-1_251.0000002012-06-15 11:04:44
MARKWINSew-Color1.002012-06-15 11:18:49
MJEMMESONPlack-Middleware-CustomErrorDocument0.0012012-06-15 12:36:27
KRYDEImage-Base-Wx12012-06-15 19:37:14
ISHIGAKIArchive-Any-Plugin-Bzip20.012012-06-16 09:45:42
DOHERTYDist-Zilla-Plugin-UploadToGoogleCode0.0022012-06-16 13:03:44
TOBYINKURI-duri0.0012012-06-16 16:35:43
JSWARTZCode-TidyAll0.012012-06-17 10:13:33
SLANNINGNet-Graphite0.012012-06-17 11:18:04
FRACTALCallback-Frame0.12012-06-17 13:19:36
FRACTALSession-Token0.72012-06-17 13:29:59
BRYANIn-Korean-Numbers-SinoKorean0.012012-06-17 17:12:16
SAMBArray-GroupByv0.0.12012-06-17 18:10:15
ANELSONData-Riak0.12012-06-17 23:12:57
KAZEBUROModule-Install-ShareFile0.012012-06-18 02:21:43
KJETILKRDF-Generator-Void0.01_102012-06-18 06:02:08
ICIBINMessage-Passing-Output-MongoDB0.0022012-06-18 06:51:08
YURYTie-Array-Atomic0.012012-06-18 07:00:19
TOSHIOITOTest-AnyEvent-Time0.012012-06-18 09:01:34
ISHIGAKIArchive-Any-Lite0.012012-06-18 11:06:21
RSRCHBOYDist-Zilla-Plugin-RemovePrereqsMatching0.0012012-06-18 13:05:40
KEEDIPod-Weaver-Section-Contributors0.0012012-06-18 15:35:08
KEEDIPod-Weaver-PluginBundle-KEEDI0.0012012-06-18 16:03:57
DJERIUSPDL-FuncND0.05_012012-06-18 16:54:10
TOKAREVApache-ExtDirect0.902012-06-18 18:55:38
MSMITHHTTP-CDN0.72012-06-18 20:18:40
WKINUREG-Automation0.032012-06-19 03:49:16
SKIMError-Pure-Always0.012012-06-19 04:24:06
CHISELPlack-App-FakeApache1v0.0.1_022012-06-19 10:48:28
ALUCASConfig-YAARG0.012012-06-19 11:35:32
KIXXProc-PidFile-Info0.0012012-06-19 12:46:46
MIKEMCrypt-OpenSSL-EC0.22012-06-19 20:07:56
DOUGLISHTemplate-Plugin-HTML-2Text0.012012-06-20 08:31:32
SANTEXAI-MicroStructure0.012012-06-20 11:42:43
LEONTDevel-FindPerl0.0012012-06-20 14:39:05
OVENMANWWW-Socrata0.012012-06-20 15:42:46
TOKAREVRPC-ExtDirect-Server0.012012-06-20 18:49:44
DIZCatalyst-Authentication-Credential-Upstream-Headers0.012012-06-20 20:09:27
TOKAREVRPC-ExtDirect-Client0.012012-06-20 21:24:36
TOKAREVTest-WWW-Jasmine0.012012-06-21 00:34:09
TOKUHIROMmRuby0.012012-06-21 02:15:28
SMUELLERMath-Histogram1.002012-06-21 04:37:31
BOOKAcme-MetaSyntactic-errno1.0002012-06-21 04:45:30
STRANGEMySQL-Binlog_RBR_Data1.022012-06-21 07:05:38
JANUSCSS-Compressor0.012012-06-21 07:16:17
NPEREZReflexive-ZmqSocket1.1217302012-06-21 07:25:05
NPEREZCloudPAN1.1217302012-06-21 08:46:44
KENTNLGentoo-Overlay-Group0.1.02012-06-21 09:35:14
BOOKperlsecret1.0002012-06-21 09:51:56
DAMSMessage-Passing-Output-ElasticSearch0.0012012-06-21 10:53:42
BRADHAcme-Testing0.0012012-06-21 11:53:18
AGORDONAuthen-ModAuthPubTkt0.1.12012-06-21 15:30:13
KENTNLGentoo-Overlay-Group-INI0.1.02012-06-21 17:08:35
CFOUTSMARC-Record-Generic0.0012012-06-21 17:27:08
CFOUTSMARC-File-JSON0.0012012-06-21 17:30:17
SKIMConfig-Utils0.012012-06-21 19:29:34
SKIMConfig-Dot0.012012-06-21 19:35:01
BKBCPAN-Nearest0.012012-06-21 23:27:54
TJCTest-PostgreSQL0.102012-06-22 01:49:11
SSINYAGINRRD-Tweak0.012012-06-22 06:00:30
RHOELZMooseX-Getopt-Explicit0.012012-06-22 15:33:08
IONCACHEDBIx-Class-AuditLog0.1.02012-06-22 15:59:34
ETHERTest-Mock-LWP-UserAgent-ButAwesome0.0012012-06-22 20:12:41
HEIKKIPipeline-Simple0.9_12012-06-23 03:25:42
HEIKKIApp-Pipeline-Simple0.9_12012-06-23 03:40:09
ETHERTest-LWP-UserAgent0.0022012-06-23 12:38:52
XLATXML-Tiny-Simple0.012012-06-23 17:03:12
HIRAFOOPickles-Dispatcher-Auto0.012012-06-24 00:02:51
AWOHLDTimer-Runtime0.022012-06-24 00:21:04
TSUCCHISQL-Executor0.102012-06-24 01:01:02
MARCCxml-tag0.12012-06-24 05:12:27
MARCCmarc-mir-template0.02012-06-24 05:28:43
MIKEMDevice-BCM28351.02012-06-24 05:45:32
KEICHNERXML-Parsepp0.012012-06-24 09:56:27
MAGVK-App0.012012-06-24 11:35:27
FREWCatalyst-Action-FromPSGI0.0010002012-06-24 18:50:19
ANELSONDist-Zilla-PluginBundle-ANELSON0.012012-06-25 00:21:25
MAJLISLingua-YALI0.0012012-06-25 01:49:05
TAGOMORISNet-Hadoop-WebHDFS0.12012-06-25 06:23:43
JDDPAUSEWin32-Unicode-InternetShortcut0.012012-06-25 16:17:23
CAGAOHTML-FormHandlerX-Form-Contact0.012012-06-25 17:18:45
IVANNet-Vitelity0.032012-06-25 21:11:05
BANGCache-Memcached-Queue0.0.12012-06-25 22:38:40
TAGOMORISNet-Hadoop-DFSAdmin-ReportParser0.12012-06-25 23:39:06
TAGOMORISNet-Hadoop-HuahinManager0.012012-06-26 00:36:24
HEYTRAVApp-Git-CheckMergeConflicts0.012012-06-26 02:07:31
MITHALDUNumber-Format-FixedLocale1.1217802012-06-26 07:24:03
GRUBERNet-SNMP-QueryEngine-AnyEvent0.012012-06-26 10:30:32
OESTERHOLGtk2-OSXApplication0.012012-06-26 14:22:04
JOENIOGoogleApps0.0012012-06-26 15:08:46
SARGIETemplate-Plugin-StashValidate0.012012-06-26 16:40:15
FRACTALLog-Defer0.12012-06-26 19:51:13
SHARYANTOData-Dump-Color0.012012-06-27 03:15:40
VLADOCGI-AuthRegister0.12012-06-27 14:54:16
AUBERTGPerl-Critic-Policy-CodeLayout-TabIndentSpaceAlign1.0.02012-06-27 16:31:32
FRACTALAnyEvent-FDpasser0.3.02012-06-28 00:20:09
FRACTALAnyEvent-Task0.5.12012-06-28 00:58:27
CORNELIUSGit-Hook-PostReceive0.012012-06-28 05:45:11
MDIETRICHCatalyst-TraitFor-Request-GeoIP0.0012012-06-28 13:12:57
CHRISFRBio-Graphics-Glyph-decorated_gene0.012012-06-28 14:52:22
MAUKEQuote-Code0.012012-06-28 16:26:23
ANELSONPassword-Policy0.022012-06-28 18:01:08
ANELSONPassword-Policy-Encryption-MD50.022012-06-28 18:04:05
ANELSONPassword-Policy-Encryption-SHA10.022012-06-28 18:08:21
CHRISFRBio-Draw-FeatureStack0.012012-06-28 18:43:25
YANICKDist-Zilla-Plugin-HelpWanted0.1.02012-06-28 20:53:50
FREWDBIx-Class-MaterializedPath0.0010002012-06-28 23:06:32
KANDynGig-CLI0.012012-06-29 02:14:09
KANDynGig-Range-Cluster0.012012-06-29 02:23:03
MKJELLMANperlcassa0.032012-06-29 03:45:06
KUMYParse-Arcconf0.012012-06-29 06:44:24
BKBEncode-Detective0.012012-06-29 07:58:44
TOBYINKP5U0.0012012-06-29 17:36:08
KNMAmbrosia0.0102012-06-30 03:09:43
BSINGERLingua-EN-Clarity0.012012-06-30 08:43:30
JKUTEJFile-Find-Age0.012012-06-30 14:53:22
LETOApp-Beeminder-Hook0.0012012-06-30 18:09:33
CPANICParams-Callbacks1.002012-06-30 19:09:15

New Distributions for July 2012 (273)

AuthorDistributionVersionRelease Date/Time
MOTONAROLNet-PulseMeter0.012012-07-01 12:52:32
KANDynGig-Range-Time0.012012-07-01 22:59:22
LINKDDLemonldap-NG-Cli0.12012-07-02 08:38:30
KANDynGig-Schedule0.012012-07-02 10:38:37
CRABTREEBioX-CLPM0.012012-07-02 16:22:14
XSAWYERXAcme-rafl-Everywhere0.0012012-07-03 07:03:30
VOJTurtle-Writer0.0012012-07-03 17:52:21
SARGIEClass-ConfigHash0.0012012-07-04 04:07:44
SHANTANUTask-BeLike-Shantanu0.0012012-07-04 05:43:12
UNERATest-Debian0.012012-07-04 06:15:17
REHSACKNet-Radio-oFono0.0012012-07-04 09:36:52
REHSACKNet-Radio-Modem0.0012012-07-04 09:41:01
REHSACKNet-Radio-Modem-Adapter-oFono0.0012012-07-04 09:45:07
REHSACKNet-Radio-Location-SUPL-Test0.0012012-07-04 09:54:09
SHARIFULNMojolicious-Plugin-I18N0.82012-07-04 11:25:22
MIKKOIText-HistogramChart0.0012012-07-04 12:27:07
GARUData-Printer-Filter-ClassicRegex0.012012-07-04 14:47:43
CPANICWith1.000_0002012-07-04 16:40:30
SDTTemplate-Plugin-DataPrinter0.001-TRIAL2012-07-04 21:43:15
BAGETAudio-Scrobbler20.012012-07-05 03:11:08
SHARYANTOPerinci-Sub-Gen-AccessTable-DBI0.012012-07-05 04:01:23
TOBYINKAcme-Perl-Consensual0.000_012012-07-05 06:05:39
REVTAP-Runner0.00012012-07-05 09:59:25
RJBSException-Reporter0.0012012-07-05 11:16:40
TAGData-Validator-Role-Ordered0.012012-07-05 17:14:45
CJUANHam-Resources-Utils0.012012-07-05 19:25:40
BOFTXDateTime-Fiscal-Retail4540.022012-07-05 20:07:04
MUTANTNet-Thumper0.012012-07-05 22:48:40
CWWAlgorithm-Functional-BFS0.012012-07-06 00:55:18
GETTYlib-absolute0.0012012-07-06 01:34:45
TNISHPDL-CholeskyPP0.0.22012-07-06 04:00:15
SHARYANTOBusiness-BankCard0.012012-07-06 05:36:17
SHARYANTOBusiness-BankList0.012012-07-06 06:42:04
SHARYANTOBusiness-BankList-Indonesia0.012012-07-06 08:04:20
SHARYANTOBusiness-BankCard-Indonesia0.012012-07-06 08:36:45
ABHIISNOTSample-Module0.1.02012-07-06 11:24:13
CPANICTopicalizer-Block1.002012-07-06 14:54:52
GETTYDist-Zilla-PluginBundle-Author-GETTY0.0012012-07-06 16:21:00
GSBApp-SourcePlot1.172012-07-06 18:57:32
VANAMBURGVANAMBURG-MAGIC-BCS1.0.12012-07-06 20:28:23
INGYParse-SQLOutput0.012012-07-06 21:39:21
RSRCHBOYDist-Zilla-Stash-PAUSE-Encrypted0.001-TRIAL2012-07-07 04:10:55
KENTNLDist-Zilla-Plugin-Author-KENTNL-Prereqs-Latest-Selective0.1.02012-07-07 04:46:38
CASIANOGit-Export0.012012-07-07 08:14:02
LEPREVOSTCobweb0.012012-07-07 12:37:46
DRTECHElastic-Model0.01-TRIAL2012-07-07 16:39:46
WINTERCoro-Localize0.1.02012-07-08 00:42:09
RAZWebService-Steam0.12012-07-08 06:24:02
CELOGEEKDist-Zilla-PluginBundle-Author-Celogeek0.12012-07-08 08:37:48
ANAZAWABlosxom-Plugin0.000012012-07-08 08:44:32
BOBTFISHMessage-Passing-Collectd0.0012012-07-08 10:30:07
HERNANTutorial-DBIx-Class-Perl-ORM-Conexao-Com-Banco-de-Dados-PT0.012012-07-08 15:48:34
HERNANTutorial-Elastic-Search-With-Perl-First-Steps-Cheat-Sheet0.012012-07-08 16:02:52
HERNANTutorial-Perl-Como-Criar-Utilizar-Instalar-Publicar-Modulos-do-CPAN-PT-BR0.012012-07-08 16:17:05
TOKUHIROMMySQL-BinLog0.012012-07-09 06:08:13
STEVENLMooseX-Types-Date-Piece0.012012-07-09 07:35:19
TOBYINKIO-Detect0.0012012-07-09 09:20:37
BITMANTwitter-Daily0.1.02012-07-09 14:53:34
ATODOROVApp-Difio-OpenShift2.002012-07-10 09:21:25
GAISSMAIConfig-TT20.502012-07-10 10:06:55
ATODOROVApp-Difio-dotCloud2.002012-07-10 10:18:57
PSILVASystem-Wrapperv0.0.12012-07-10 10:28:13
PSILVAApp-PortDistances0.0.12012-07-10 11:21:48
OHOUSHYARWebService-Lymbix0.012012-07-10 11:51:48
SHARYANTOLog-Any-For-Class0.052012-07-10 12:19:46
SHARYANTOLog-Any-For-DBI0.032012-07-10 12:21:17
PEVANSTime-timegm0.012012-07-10 13:09:17
IAMBMooseX-ScopedConfig0.012012-07-10 15:48:44
TJENNESSPDL-IO-NDF1.042012-07-10 18:03:19
AWOHLDData-ESN0.012012-07-10 18:06:29
AWOHLDData-MEID0.012012-07-10 18:06:40
GNUSTAVOGit-Hooks0.0012012-07-10 20:12:11
TOBYINKDie-Hard0.0012012-07-10 20:15:03
KILNABackticks1.02012-07-11 02:35:31
KILNAFilter-Undent1.02012-07-11 02:37:00
AMBSText-RewriteRules0.252012-07-11 07:17:22
SHLOMIFApp-Notifier-Service0.01002012-07-11 07:51:24
AMBSLingua-PT-Speaker0.122012-07-11 09:17:57
BIESZCZADArchive-Tar-Wrapper-IPC-Cmd0.0012012-07-11 09:50:13
VOJSKOS-Simple0.09_012012-07-11 10:50:33
KUMYParse-cfggen0.022012-07-11 11:25:46
XSAWYERXPerlbal-Plugin-SessionAffinity0.0012012-07-11 13:01:57
UNERACoro-Twiggy0.012012-07-11 16:04:29
MYDMNSNClass-Ref0.012012-07-11 17:50:32
FALCONERT-Extension-DateTAI640.012012-07-11 21:15:47
SHARYANTOFile-Trash-FreeDesktop0.012012-07-12 01:17:22
PEVANSIO-Async-Loop-Event0.012012-07-12 05:34:52
TAGOMORISWoothee0.2.12012-07-12 06:35:09
IVANWILLSMooseX-Exception-Basev0.0.12012-07-12 07:01:00
IVANWILLSW3C-SOAPv0.0.12012-07-12 07:47:27
XAICRONWWW-Google-Cloud-Messaging0.012012-07-12 10:18:48
MSTROUTObject-Remote0.0010012012-07-12 17:56:56
FRACTALString-Compare-ConstantTime0.202012-07-12 20:08:31
SHARYANTONet-HTTP-patch-log_request0.012012-07-12 21:27:11
SHARYANTONet-HTTP-Methods-patch-log_request0.012012-07-12 21:28:41
AYOUNGNet-CloudStack-API0.022012-07-13 03:48:53
KUERBISTerm-Choosev0.7.12012-07-13 06:00:00
KIMOTOMojolicious-Plugin-AutoRoute0.012012-07-13 06:40:58
SHARYANTOData-Unixish-Implementation0.012012-07-13 08:26:10
SHARYANTOData-Unixish1.0.02012-07-13 08:28:03
SHARYANTOTask-Data-Unixish0.012012-07-13 08:30:54
DOUGLISHPlack-App-CLI0.012012-07-13 09:44:22
SHARYANTOTie-Diamond0.012012-07-13 12:40:06
SHARYANTOLWP-UserAgent-patch-log_response0.012012-07-13 14:43:56
MATTPDancer-Plugin-Resource1.1219502012-07-13 15:31:21
KOMAROVPlack-ResponseHelper0.012012-07-13 17:26:10
XAICRONNet-APNs-Extended0.022012-07-14 06:16:42
BILLHAILSLang-Tree-Builder0.12012-07-14 09:21:18
SSCAFFIDIGetopt-Long-Spec0.0012012-07-14 11:55:56
CJMPod-Elemental-MakeSelector0.012012-07-14 12:29:02
MMORRISLibCAS0.012012-07-14 15:16:29
FBORSHEVRedmine-Stat0.012012-07-14 15:29:29
DRTECHDancer-Plugin-ElasticModel0.012012-07-14 16:11:24
CLBECKERWiktionary-Parser0.062012-07-14 16:31:32
MASAKILWP-Protocol-Hosts0.012012-07-14 17:02:15
MIKONumber-Misc1.02012-07-14 18:09:43
BINGOSAcme-MetaSyntactic-legoharrypotter0.022012-07-14 18:35:22
DANAJMath-Prime-Util-GMP0.012012-07-15 05:33:15
MASAKILWP-UserAgent-DNS-Hosts0.022012-07-15 07:07:05
KAOSAGNTCGI-Session-Serialize-php1.02012-07-15 10:04:34
INGYAlt0.012012-07-15 16:16:56
TOBYINKHTML-HTML5-DOM0.0012012-07-15 17:08:34
COLEMINORGames-EternalLands-Binary-Float160.012012-07-15 20:52:08
COLEMINORGames-EternalLands-Binary-Unitvec160.012012-07-15 21:09:24
COLEMINORGames-EternalLands-Loader0.012012-07-15 22:36:59
MASAKITest-Deep-Matcher0.012012-07-16 04:20:56
ALEXBIOClang0.012012-07-16 06:05:15
SHARYANTOMonkey-Patch-Context0.03.012012-07-16 11:15:57
BBYRDsanity0.92012-07-16 14:22:34
MARKFArray-Windowed1.002012-07-16 17:48:41
DEMMYMinecraft-RCONv0.1.12012-07-16 19:28:34
PERFORBFinance-Bank-JP-MUFG0.012012-07-16 21:12:32
SHARYANTOLog-Any-For-LWP0.012012-07-17 00:20:17
SHARYANTOCPAN-Critic-Module-Abstract0.012012-07-17 02:39:35
SHARYANTOFinance-Currency-Convert-KlikBCA0.012012-07-17 04:25:03
TYPESTERSub-Rate0.012012-07-17 06:41:10
SALVAModule-CAPIMaker0.012012-07-17 06:42:37
SALVAMath-Vector-Real-XS0.012012-07-17 08:01:53
BRADHAcme-Modo0.0012012-07-17 09:15:59
CELOGEEKMovies-Organizer0.42012-07-17 14:01:00
TOSHIOITOAsync-Selector0.012012-07-17 18:31:13
MALLENAcme-Github-Test0.012012-07-18 01:05:13
BKBText-Fuzzy0.012012-07-18 04:10:18
SHARYANTOParse-VarName0.012012-07-18 06:27:59
MSTROUTSafe-Isa1.0000002012-07-18 11:43:24
HWATNet-NicoVideo0.01_202012-07-18 12:25:34
OESTERHOLGtk2-AppIndicator0.062012-07-18 12:28:00
BBYRDAcme-Prereq-BigDistro0.012012-07-18 16:12:12
MSLAGLEAlgorithm-LeakyBucket0.052012-07-18 16:29:15
DCONWAYVar-Pairs0.0010002012-07-18 16:54:54
DCONWAYTest-Simpler0.0000022012-07-18 17:12:16
PDCAWLEYTest-Routine-AutoClear0.001-TRIAL2012-07-18 17:41:44
SHARYANTOText-PrettyTable0.002012-07-18 20:18:06
SHARYANTOPerinci-Access-TCP-Server0.012012-07-19 01:37:03
KEEKUNGCatalyst-Authentication-Credential-Crowd0.012012-07-19 02:42:13
ZAGWriteAt0.022012-07-19 03:33:11
MMCLERICDBD-Safe0.062012-07-19 04:06:36
SHARYANTOPerinci-Access-TCP-Client0.012012-07-19 04:14:56
CPANELTask-Cpanel-Core11.36.0012012-07-19 12:03:59
CPANELTask-Cpanel-Kensho11.36.0012012-07-19 12:05:31
CPANELTask-Cpanel-Internal11.36.0012012-07-19 12:05:39
CPANELTask-Cpanel-Catalyst11.36.0012012-07-19 12:05:50
CPANELTask-Cpanel11.36.0012012-07-19 12:06:01
CPANELTask-Cpanel-3rdparty11.36.0012012-07-19 12:06:12
DCONWAYRegexp-Debugger0.0010002012-07-19 12:49:57
KHUSSEINBusiness-BalancedPayments0.0001-TRIAL2012-07-19 14:22:05
ALEXBIOApp-etcvs0.012012-07-19 16:30:00
KEEKUNGCatalyst-Authentication-Store-Crowd0.012012-07-20 01:11:24
CELOGEEKRedmine-API0.012012-07-20 06:20:33
CELOGEEKNet-HTTP-Spore-Middleware-Header0.012012-07-20 09:17:29
SHLOMIFApp-Notifier-Client0.01002012-07-20 12:03:24
CJCOLLIERGuard-State-Washington0.012012-07-20 14:05:51
THORGISConfig-Param3.0000012012-07-20 14:21:20
AQUILINADate-RangeParser-EN0.012012-07-20 21:04:39
PHREDStrava-GPX0.012012-07-20 22:53:23
SHARYANTOUnixish1.0.12012-07-20 23:21:59
SHARYANTOSah0.9.02012-07-20 23:45:19
SHARYANTOTask-BeLike-SHARYANTO-Spec0.012012-07-20 23:46:46
IVANWILLSGetopt-Altv0.0.12012-07-21 06:24:14
TRIZENLinux-DesktopFiles0.022012-07-21 09:02:49
RULIXPDB-Molecule0.012012-07-21 13:57:57
JTPALMERGames-SolarConflict0.0000012012-07-21 14:04:42
RULIXBio-PDB-Structure0.012012-07-21 14:31:59
TOBYINKApp-perlrdf0.0012012-07-22 02:09:49
TOBYINKApp-perlrdf-Command-Query0.0012012-07-22 02:10:02
EHSANDate-Jalali20.022012-07-22 04:01:42
ROSlibsoldout0.012012-07-22 06:55:07
ALEXBIOLLVM0.012012-07-22 07:27:21
SEBAAsyncore0.012012-07-22 18:06:42
TEAMX11-WindowHierarchy0.0012012-07-22 23:38:04
HOLLYApp-digestarchive0.022012-07-23 03:04:51
BBYRDDist-Zilla-Role-MetaCPANInterfacer0.902012-07-23 12:06:13
JLAPEYREPDL-DSP-Windows0.0022012-07-23 12:32:13
STEVENLMooseX-Types-Time-Piece0.012012-07-23 13:59:40
MOBCatalyst-View-Template-PHP0.022012-07-23 14:23:39
DRTECHApp-Cerberus0.012012-07-23 14:33:17
EZDBData-Table-Excel0.12012-07-24 02:23:11
KARASIKTest-podimage0.012012-07-24 07:09:00
DAGOLDENObjectify0.0012012-07-24 11:39:26
DRTECHDancer-Plugin-Cerberus0.012012-07-24 14:26:34
DAGOLDENHash-Objectify0.0012012-07-24 14:41:44
RCLWWW-Pixelletter0.22012-07-24 15:22:29
SHARYANTOPerinci-Web0.002012-07-24 15:40:42
AVENJBot-Cobalt-Plugin-YouTube0.0012012-07-24 15:44:05
DRLAROHTML-CruftText0.012012-07-24 18:08:13
ANDREFSText-Math-NumExp0.01_112012-07-25 09:44:00
DRTECHDancer-Plugin-Lexicon0.012012-07-25 10:27:42
DRTECHI18N-String0.012012-07-25 12:47:40
IAMBMooseX-Role-Tempdir0.012012-07-25 13:50:56
BBYRDDist-Zilla-Role-PluginBundle-Merged0.902012-07-25 13:55:03
BDUGGANDBIx-TryAgain0.012012-07-25 14:07:59
MDORMANModule-Build-Service0.902012-07-25 16:00:27
BBYRDDist-Zilla-PluginBundle-Prereqs0.902012-07-25 16:44:25
INGYAlt-IO-All-new0.012012-07-25 17:44:54
JZAWODNYAnyEvent-Redis-Federated0.012012-07-25 18:48:44
INGYAlt-Sex-INGY0.012012-07-25 19:53:53
KAZEBUROApp-LoadWatcher0.012012-07-25 21:58:39
MANWARGames-Domino0.012012-07-25 23:31:08
EGORMath-SegmentedEnvelope0.0012012-07-25 23:52:18
SHARYANTOFile-Trash-Undoable0.012012-07-26 04:24:40
MANWARGames-Cards-Pair0.012012-07-26 07:38:17
MARKOVPOSIX-Util0.102012-07-26 07:52:45
KENTNLFile-Tempdir-ForPackage0.1.02012-07-26 08:59:30
KENTNLFile-Tempdir-ForPackage-FromArchive0.1.02012-07-26 10:05:32
KILNAInline-JSON1.02012-07-26 19:39:37
SHARYANTOfeature-each_on_array0.012012-07-27 06:00:08
CODEBREAKWWW-RenRen0.012012-07-27 06:46:05
FARHADApp-Taskflow0.12012-07-27 08:31:53
FERNANDESPpa_json2ppa_csv.pl0.012012-07-27 08:38:34
AVIKAKAlgorithm-TicketClusterer1.02012-07-27 10:38:14
SHARYANTOSyntax-Feature-EachOnArray0.022012-07-27 10:39:41
MATTPDBIx-Class-FilterColumn-ByType1.1220902012-07-27 11:47:23
JTPALMERGames-Snake0.0000012012-07-27 17:17:59
PAWAPAWALingua-JA-WebIDF-Driver-TokyoTyrant0.012012-07-28 03:37:29
DRTECHApp-Cerberus-client0.072012-07-28 07:00:29
DRTECHPlack-Middleware-Cerberus0.012012-07-28 08:46:08
HORNBURGEmail-Sender-Transport-Redirect0.00012012-07-28 09:36:43
BBYRDDist-Zilla-TravisCI0.902012-07-28 09:57:45
CJMPod-PluginCatalog0.012012-07-28 15:17:03
SKITask-Mechanistic0.012012-07-28 17:07:50
JLAPEYREPDL-DSP-Fir0.0042012-07-28 19:39:47
RCAPUTOIO-Pipely0.0012012-07-29 00:19:02
WINTEREvent-Wrappable0.1.02012-07-29 03:32:14
WINTERAnyEvent-Collect0.1.02012-07-29 03:54:48
WINTERAnyEvent-Capture0.1.02012-07-29 03:56:15
TCONSTExpense-Tracker0.12012-07-29 04:49:13
JLAPEYREPDL-DSP-Iir0.0012012-07-29 05:22:40
PAWAPAWALingua-JA-TermExtractor0.012012-07-29 05:28:05
FREWSub-Exporter-Progressive0.0010002012-07-29 17:45:22
MLAWRENAlt-Config-Tiny-utf80.0.12012-07-29 21:12:28
AUBERTGTest-Type1.0.02012-07-29 23:25:42
TYPESTERTest-RedisServer0.012012-07-30 04:49:57
LOICRegexp-ERE0.012012-07-30 05:38:41
TEXSMS-Send-Smstrade0.012012-07-30 06:34:21
TEXSMS-Send-DE-Sipgate0.012012-07-30 07:50:11
JBERGERAcme-Alien-DontPanic0.0012012-07-30 09:33:56
BBYRDMooX-Types-CLike0.902012-07-30 10:41:45
JBERGERGalileo0.0012012-07-30 13:03:42
PSHANGOVCPAN-Faker-HTTP0.0012012-07-30 13:23:00
PSHANGOVCPAN-Index-API0.0012012-07-30 13:23:12
PSHANGOVCPAN-Local0.0012012-07-30 13:24:39
PSHANGOVCPAN-Local-Plugin-DistroList0.0012012-07-30 13:24:53
ASBTk-TipEntry0.012012-07-30 17:49:21
TBRMooseX-Types-CIDR1.0000002012-07-30 21:35:07
LTPNet-Radiator-Monitor0.012012-07-30 23:01:21
SHARYANTOPerinci-Sub-property-curry0.012012-07-31 05:41:12
DRTECHElasticSearchX-UniqueKey0.012012-07-31 06:15:12
SHARYANTOPod-Weaver-Section-Changes0.012012-07-31 07:47:23
SHARYANTOPerinci-Sub-property-dies_on_error0.012012-07-31 09:18:08
GBARRDBIx-Class-ColumnDefault0.1221302012-07-31 13:19:59
DADERUSArray-CompareAndFilter1.0.02012-07-31 14:03:16
MPASTERNApache2-Authen-OdinAuth0.12012-07-31 15:03:09
KENTNLGentoo-Perl-Distmap0.1.02012-07-31 16:43:17

New Distributions for August 2012 (213)

AuthorDistributionVersionRelease Date/Time
SHARYANTOPerinci-Access-Simple-Client0.042012-08-01 01:31:48
SHARYANTOPerinci-Access-Simple-Server0.052012-08-01 01:35:10
SHARYANTOTask-Data-Sah0.012012-08-01 02:46:01
SHARYANTOPerinci-Util0.012012-08-01 07:02:43
JOAOCOSTAFinance-FXCM-Simple0.0062012-08-01 07:40:14
KIELSTRWWW-MobileDevice012012-08-01 08:25:27
SKYENDMarkdown-Foswiki0.012012-08-01 09:53:47
MUCKERApp-wrapspeak0.12012-08-01 10:53:20
TOBYINKreturning0.0012012-08-01 11:06:39
PFISCHERApp-Foca0.012012-08-01 14:15:50
TSIBLEYRT-Extension-UsernameFormat-Organization0.012012-08-01 16:30:42
SULLRNet-IMP0.12012-08-01 17:42:01
DAOTOADData-Abridge0.02.042012-08-01 18:33:21
RSAVAGELingua-EN-StopWordList1.002012-08-02 00:47:27
SHARYANTOPerinci-Exporter0.012012-08-02 01:23:29
TOKUHIROMAnyEvent-IMAP0.012012-08-02 02:01:17
SISYPHUSMath-Decimal640.012012-08-02 07:52:43
SYMKATConfig-Layered0.0000012012-08-02 20:59:55
RPICARDWWW-Coderwall0.0012012-08-03 01:59:30
SHARYANTOAlt-Monkey-Patch-SHARYANTO0.012012-08-03 03:10:43
TYPESTERSub-Exception0.012012-08-03 03:31:14
SHARYANTOTask-BeLike-SHARYANTO-Patches0.012012-08-03 04:03:36
AKIYMAcme-Collector640.012012-08-03 05:12:37
DLAMBLEYMessage-Passing-AMQP-Proxy0.0022012-08-03 06:36:36
SKIMConfig-Dot-Array0.012012-08-03 06:48:48
SHARYANTOData-Clean-JSON0.012012-08-03 08:51:22
FARHADApp-Birthday0.12012-08-03 12:29:42
SHARYANTOLingua-SU-Nums2Words0.012012-08-03 12:36:21
ARISTOTLEParse-MIME1.0002012-08-03 14:19:13
EWATERSThrift-Parser0.012012-08-03 17:25:11
EWATERSPOE-Component-Sequence0.012012-08-03 17:33:18
AQUILINAAcme-Warn-LOLCAT0.012012-08-03 19:11:31
REVMISCHAMooseX-Storage-DBIC0.012012-08-03 23:30:24
TOKAREVTest-ExtDirect0.012012-08-04 00:37:44
RWSTAUNERPerl-PrereqScanner-Scanner-MooseXTypesCombine0.0012012-08-04 01:36:42
BEROVMojolicious-Plugin-DSC0.042012-08-04 04:26:51
FREWSyntax-Feature-Gather1.0020002012-08-04 23:25:29
SKIMIO-Barf0.012012-08-05 04:37:09
SKIMAcme-CPANAuthors-Czech0.012012-08-05 05:40:57
ALEXBIOGit-Raw0.012012-08-05 07:44:00
TOBYINKHTML-Inject0.0012012-08-05 09:12:04
JSWARTZCode-TidyAll-Plugin-Perl-AlignMooseAttributes0.012012-08-06 00:47:53
JSWARTZCode-TidyAll-Plugin-Perl-IgnoreMethodSignaturesSimple0.012012-08-06 00:51:05
MUCKERText-MarkPerl0.12012-08-06 05:14:40
JLMORELOpenGL-FTGL0.012012-08-06 06:43:14
TELKINSWWW-Testafy1.002012-08-06 10:43:45
AGORDONData-Random-Nucleotides0.12012-08-06 18:58:30
MAHIROMail-IMAPQueue0.012012-08-06 23:43:14
DEXTERPlack-Middleware-TrafficLog0.012012-08-07 07:15:51
SHARYANTOApp-dux1.232012-08-07 12:59:22
CLSNFilter-Unpound12012-08-07 16:57:00
SHARYANTODist-Zilla-Plugin-Extras0.012012-08-07 23:37:25
ATIFKnmrwdog0.12012-08-08 03:19:14
SHARYANTOApp-LintPrereqs0.012012-08-08 04:20:47
MDORMANEmail-Sender-Transport-QMQP0.0012012-08-08 09:38:37
KEICHNERXML-Reader-PP0.012012-08-08 09:44:19
KEICHNERXML-Reader-RS0.012012-08-08 09:44:31
SHLOMIFTest-TrailingSpace0.01002012-08-08 14:53:06
UNERADR-SunDown0.012012-08-08 15:43:32
DAGOLDENDist-Zilla-Plugin-CheckMetaResources0.0012012-08-08 19:42:10
RSAVAGELingua-EN-GivenNames1.002012-08-08 23:56:06
SHARYANTOPerinci-Sub-Property-retry0.042012-08-09 01:18:43
SHARYANTOPerinci-Sub-Property-timeout0.042012-08-09 01:30:21
SHARYANTOPerinci-Sub-Property-result_postfilter0.052012-08-09 01:34:37
SHARYANTOPerinci-Sub-Property-drops_privilege0.052012-08-09 01:44:34
SHARYANTOPerinci-Sub-Property-dies_on_error0.032012-08-09 01:50:03
SHARYANTOPerinci-Sub-Property-curry0.032012-08-09 01:54:10
SHARYANTOLWP-UserAgent-Patch-LogResponse0.032012-08-09 02:57:10
SHARYANTOLWP-UserAgent-Patch-HTTPSHardTimeout0.042012-08-09 03:04:23
SHARYANTOHTTP-Daemon-Patch-IPv60.052012-08-09 03:13:35
SHARYANTONet-HTTP-Methods-Patch-LogRequest0.072012-08-09 04:14:58
CUBWebService-PagerDuty0.052012-08-09 16:43:25
RBUSHNet-DNS-DurableDNSv12012-08-09 19:54:45
KENTNLElasticSearchX-Model-Generator0.1.02012-08-10 03:49:38
SHARYANTOPerinci-Sub-Gen0.012012-08-10 07:08:21
SHARYANTOPerinci-Access0.282012-08-10 07:51:17
SHARYANTOPerinci-Access-Base0.282012-08-10 07:55:38
SHARYANTOPerinci-Access-InProcess0.282012-08-10 08:27:22
SHARYANTOPerinci-Tx-Manager0.282012-08-10 08:41:30
SHARYANTOPerinci-Easy0.282012-08-10 08:48:11
SHARYANTOPerinci-Result-Format0.282012-08-10 08:52:21
SHARYANTOPerinci-Sub-Dep-pm0.282012-08-10 08:58:03
NHORNECHI-Driver-SharedMem0.012012-08-10 11:26:44
ECARROLLCatalyst-Plugin-Static-Simple-ButMaintained0.302012-08-10 12:40:41
SHOHEIKGraph-Similarityv0.0.12012-08-10 19:15:23
CJCOLLIERWordPress-Plugin-WallFlower0.0.22012-08-10 21:11:05
POTYLMail-SendGrid-SmtpApiHeader0.012012-08-11 02:57:56
JFRIEDRex-Endpoint-HTTP0.31.02012-08-11 19:27:44
SYMKATDBIx-Config0.0000012012-08-12 13:32:36
AWNCORPClass-Forward0.012012-08-12 15:19:20
DEXTERApp-soapcli0.012012-08-12 15:25:07
EDAMWWW-Bing-Search0.0102012-08-12 22:29:21
TOKUHIROMData-Difflet0.012012-08-13 01:53:47
ASHLEYCatalystX-Test-Most0.012012-08-13 02:22:17
SMUELLERData-Dumper-Limited0.012012-08-13 07:03:11
NUBAData-Printer-Filter-JSON0.012012-08-13 13:58:22
MSTROUTHTML-String1.0000002012-08-13 16:36:42
NEKOKAKData-RuledCluster0.022012-08-14 03:40:17
BABFDancer-Session-ElasticSearch0.0012012-08-14 05:10:48
REHSACKWWW-Mechanize-Script0.1002012-08-14 06:15:09
YAPPOParse-JapanesePostalCode0.012012-08-14 06:24:38
DEXTERPlack-Middleware-Proxy-Requests0.012012-08-14 10:03:30
GWILLIAMSRDF-EARL0.000_012012-08-14 12:26:11
MJFLICKSysync0.12012-08-14 18:48:22
MICHIELBTask-OTRS-Win321.012012-08-15 04:06:42
GODECrypt-Present0.012012-08-15 05:35:53
BINGOSWin32-ADRecurse0.022012-08-15 11:24:37
SCHWIGONBenchmark-Perl-Formance-Cargo0.042012-08-15 16:50:29
RSAVAGEMojoX-ValidateHeadLinks1.002012-08-15 21:58:29
AJWANSAttribute-Exporter0.012012-08-15 22:40:39
TRCJRMooseX-Role-HTML-Grabber0.0012012-08-15 22:46:04
CORNELIUSGit-Release0.012012-08-16 00:10:08
PEVANSStruct-Dumb0.012012-08-16 07:30:22
MOTEMENDevel-Comment-Output0.012012-08-16 07:52:10
SCHRORGFirefox-Sync-Client0.012012-08-16 11:49:13
BDUGGANClustericious-Log0.102012-08-16 13:32:42
BDUGGANClustericious-Config0.102012-08-16 13:34:13
BDUGGANClustericious0.99012012-08-16 13:34:21
BDUGGANModule-Build-Database0.282012-08-16 13:34:32
BDUGGANRose-Planter0.282012-08-16 13:34:55
NEWELLCMooseX-NotRequired0.092012-08-16 14:17:04
BKBData-Kanji-Tomoe0.012012-08-16 23:53:18
RSAVAGEBenchmark-Featureset-StopwordLists1.002012-08-17 04:22:19
GROUSSEFusionInventory-Agent-Task-Network1.0.02012-08-17 04:51:51
JELUXMLRPC-Transport-HTTP-Server0.122012-08-17 07:58:47
JELULog-Log4perl-Appender-Lim-CLI0.122012-08-17 08:00:18
JELULim0.122012-08-17 08:00:35
JELULim-Plugin-OpenDNSSEC0.122012-08-17 09:00:00
JELULim-Plugin-SoftHSM0.122012-08-17 09:01:00
CGRAUTAP-Formatter-Elapsed0.012012-08-17 09:09:06
BDUGGANClustericious-Client0.642012-08-17 09:33:00
OVERLASTApporo0.0000012012-08-17 11:27:20
PYTHIANOraperl1.502012-08-17 11:43:45
NVBINDINGnvidia-ml-pl-RC4.304_12012-08-17 16:26:30
CGRAUCarp-Syslog0.012012-08-17 20:10:26
KARMANDezi-Stats0.0010002012-08-17 22:41:55
JONALLENOpenERP-XMLRPC-Simple0.122012-08-18 14:14:01
DOYTry0.012012-08-18 19:04:10
VPITTask-Devel-Cover-Recommended0.93.02012-08-19 04:08:02
DOYFun0.012012-08-19 10:33:41
KEICHNERXML-Parsepp-Testgen0.012012-08-19 12:47:17
TEEJAYHTML-FormHandlerX-Form-JQueryValidator0.012012-08-20 01:30:36
JSWARTZDist-Zilla-Plugin-TidyAll0.012012-08-20 02:56:19
TOBYINKMooseX-Declare-Context-WithOptions-Patch-Extensible0.0012012-08-20 04:04:15
MELOProc-PidChange0.0012012-08-20 08:07:27
SONGMUPlack-App-Directory-Markdown0.012012-08-20 10:01:07
JSWARTZDist-Zilla-Plugin-PkgVersionIfModuleWithPod0.012012-08-20 12:45:45
NEILBModule-Path0.012012-08-20 16:04:27
CPANICDBI-Fetch0.102012-08-20 16:28:49
OALDERSHTTP-CookieMonster0.012012-08-21 01:22:41
JONALLENOpenERP-OOM0.122012-08-21 01:51:05
TOBYINKMooseX-ABCD0.0012012-08-21 05:41:52
TOBYINKMooseX-DeclareX0.0012012-08-21 08:21:15
SSCAFFIDIThrift-API-HiveClient0.0012012-08-21 14:06:52
JACQUELINDir-Rocknroll0.222012-08-21 15:46:42
TOBYINKMooseX-Interface0.0012012-08-21 18:40:53
AMBSLingua-PT-ProperNames0.102012-08-22 04:06:26
DMUEYDevel-Kit0.12012-08-22 09:28:16
TOBYINKMooseX-DeclareX-Keyword-interface0.0012012-08-22 10:36:30
KAZUNORIClass-orMapper0.012012-08-22 10:44:54
AJPAGEBio_MLST_check1.122350-TRIAL2012-08-22 11:26:31
TOBYINKMooseX-DeclareX-Plugin-abstract0.0032012-08-22 17:28:22
TOBYINKMooseX-DeclareX-Privacy0.0032012-08-22 17:28:38
SISYPHUSMath-LongDouble0.012012-08-23 04:17:40
SKIMIndent0.012012-08-23 07:52:33
TOBYINKMooseX-DeclareX-Plugin-singleton0.0012012-08-23 09:32:35
BRIANSKINumber-Range-Regex0.012012-08-23 11:34:28
SONGMUPlack-App-DataSection0.012012-08-23 12:19:03
SREZICAcme-Study-SREZIC1.002012-08-23 16:28:58
WESALRT-Extension-GroupBroadcast0.1.12012-08-23 21:16:13
SCHWIGONApp-Bootstrap-Perl0.032012-08-24 09:25:16
TAGAsync-ResourcePoolv0.0.12012-08-24 22:51:48
DORIANApache2-CondProxy0.012012-08-25 02:06:48
MRFMooseX-CoercePerAttribute0.8012012-08-25 05:51:32
DJERIUSMath-Rational-Approx0.00_012012-08-26 01:23:15
GRAHJENKFile-Index0.012012-08-26 03:30:17
JFRIEDRex-Gearman0.32.02012-08-26 14:54:08
BKATZUNGData-XHash0.012012-08-27 00:51:14
BPMEDLEYNet-GDrive0.012012-08-27 01:28:28
OALDERSDist-Zilla-Plugin-PrePAN0.012012-08-27 11:10:02
SGLADKOVRedis-JobQueue0.012012-08-27 11:56:17
CPANELBuild-PPK0.012012-08-27 13:01:00
TIMNet-Amazon-Glacier0.032012-08-27 14:36:23
TIMNet-Amazon-Signature-V40.042012-08-27 15:01:25
BPMEDLEYNet-GoogleDrive0.022012-08-27 19:04:20
SHARYANTOApp-HasPrereqs0.012012-08-28 06:47:01
RUZRT-Extension-RepliesToResolved0.012012-08-28 09:28:46
MICHIELBApp-OTRS-CreateTicket1.0.12012-08-28 10:10:20
SCHWIGONTask-PerlFormance0.0012012-08-28 10:47:32
KJETILKURI-NamespaceMap0.012012-08-28 12:05:34
PEVANSTickit-Widgets0.012012-08-28 15:22:20
SPAZMApp-PM-Website0.1224202012-08-29 02:32:59
BLABOSMAD-Loader0.0000012012-08-29 04:37:18
SHLOMIFWWW-LinkChecker-Internalv0.0.12012-08-29 07:57:53
DIZBot-BasicBot-Pluggable-Module-Puppet1.002012-08-29 15:18:55
MAJENSENREST-Neo4p0.12012-08-30 00:40:26
KAZEBUROFile-RotateLogs0.012012-08-30 02:46:33
SHARYANTOMonkey-Patch-Action0.022012-08-30 04:08:07
FUKATAWWW-Asg0.012012-08-30 05:09:14
SCHWIGONBash-Completion-Plugins-pinto0.0012012-08-30 06:11:49
JONTAYLORClass-Method-Delegate0.012012-08-30 08:16:42
ALTREUSCatalyst-Authentication-Store-MongoDB0.022012-08-30 08:25:52
SEWIEncode-Deep0.012012-08-30 10:43:39
SHARYANTOUnix-Passwd-File0.012012-08-30 13:05:01
PHAYLONJSON-Diffable0.0000012012-08-30 13:52:20
PHAYLONFile-Tree-Snapshot0.0000012012-08-30 15:22:11
PHAYLONSystem-Introspector0.001_0012012-08-30 17:32:14
DAGOLDENMongoDBx-Queue0.0012012-08-30 17:35:12
ROCKYPerl-Syntax1.002012-08-30 21:47:57
JACBio-SeqReader0.0.22012-08-31 00:34:14
VSESPBNet-Amazon-TreeHash0.72012-08-31 09:21:50
COSMICNETLocale-CLDR-Lite0.01_012012-08-31 11:54:23
BPMEDLEYMojolicious-Plugin-ParamCondition0.0012012-08-31 19:36:40

New Distributions for September 2012 (231)

AuthorDistributionVersionRelease Date/Time
BABKINtriceps1.0.1_002012-09-01 07:35:23
AVARgit-deploy6.002012-09-01 14:47:18
TOBYINKScalar-Does0.0012012-09-01 19:32:53
TOKUHIROMApp-ph0.012012-09-01 21:03:16
CWIMMERNet-Amazon-SignatureVersion40.0012012-09-02 00:09:32
DELPHINUSdelphinus35-Amon2-Plugin-Web-FormValidator-Simple0.02-0-g0fbefee2012-09-02 01:42:01
DELPHINUSAmon2-Plugin-Web-FormValidator-Simple0.032012-09-02 01:50:30
MADCATMojolicious-Plugin-Dotcloud1.002012-09-02 07:50:06
SONGMUText-Markup-Any0.012012-09-02 10:17:19
AASSADData-FR-Town0.022012-09-02 12:39:42
GOMORNet-Write-Fast0.112012-09-02 12:51:29
RHOELZBash-Completion-Plugin-Test0.012012-09-02 14:58:34
RHOELZBash-Completion-Plugins-App-Cmd0.012012-09-02 16:35:22
JAMEftndb0.352012-09-02 17:32:38
RHOELZBash-Completion-Plugins-dzil0.012012-09-02 18:27:27
BARTENDERCouchDB-Utils0.12012-09-02 18:47:14
AVENJIRC-Server-Tree0.012012-09-02 23:33:27
JHTHORSENMojo-Facebook0.022012-09-03 01:19:13
AZAWAWIFarabi0.012012-09-03 06:32:07
TYPESTERJSON-Types0.012012-09-03 07:19:31
SDAODENS-SymObj0.6.02012-09-03 07:56:34
JACKMANEYHypatia0.012012-09-03 11:50:27
JACKMANEYHypatia-Chart-Clicker0.012012-09-03 11:51:54
AUBREYJABundle-WeBWorK0.012012-09-03 13:35:36
PANIKALThread-Workers0.12012-09-03 14:38:03
CWIMMERWebService-Amazon-Glacier0.0012012-09-03 18:32:10
SHARYANTOTask-Function-Tx0.012012-09-03 22:58:40
TYPESTERCocoa-BatteryInfo0.012012-09-04 05:15:40
TOBYINKMooseX-ArrayRef0.0012012-09-04 08:54:01
NUDDLEGGWebService-Cmis0.032012-09-04 15:14:48
MSTROUTRakudo-Star2012.08_0002012-09-04 16:59:29
KCLARKBio-SSRTool0.012012-09-04 18:03:46
DTORRESGOOGLE-ADWORDS-PERL-CLIENT2.7.22012-09-04 18:36:22
WWOLFApp-Sass0.0012012-09-04 20:40:35
SHARYANTOFile-Copy-Undoable0.012012-09-05 04:44:32
SHARYANTOFile-Move-Undoable0.012012-09-05 07:24:08
TOBYINKPerlX-ArraySkip0.0012012-09-05 08:03:35
VOJPlack-Middleware-Negotiate0.012012-09-05 08:51:33
HORSTXDI0.012012-09-05 11:57:49
GBJKCatalyst-TraitFor-Model-DBIC-Schema-RequestConnectionPool0.10002012-09-05 15:16:48
BOOKApp-Wallflower1.0002012-09-05 17:51:34
MARCCperlude0.532012-09-05 19:18:46
SHARYANTOCrypt-Password-Util0.012012-09-05 22:18:49
DORIANData-Grid0.01_012012-09-05 23:43:40
SHARYANTOUUID-Random-Patch-UseMRS0.012012-09-06 06:10:40
AMDTask-Tapper0.0012012-09-06 07:57:19
AMDTask-Tapper-Client0.0012012-09-06 07:58:46
AMDTask-Tapper-Installer0.0012012-09-06 07:59:07
AMDTask-Tapper-Server0.0012012-09-06 07:59:21
AMDTask-Tapper-Server-Automation0.0012012-09-06 07:59:36
SDOWIDEITData-Foswiki0.012012-09-06 08:38:13
SHARYANTOFile-Truncate-Undoable0.012012-09-06 08:41:18
SHARYANTOFile-Append-Undoable0.012012-09-06 09:23:20
VOJApp-Run0.012012-09-06 10:41:52
SHARYANTOFile-Prepend-Undoable0.012012-09-06 11:14:08
SSQQData-Structure-Compare0.012012-09-06 12:51:29
RGARTONStatistics-Sequences-Joins0.062012-09-06 13:02:15
DWHEELERDist-Zilla-LocaleTextDomain0.102012-09-06 18:13:29
DAVIDOBytes-Random-Secure0.012012-09-06 19:01:50
TRAVISREST-Consumer0.072012-09-06 19:46:19
SHARYANTOFile-Patch-Undoable0.012012-09-07 04:15:57
EBAUDREZTest-PDL0.02-TRIAL2012-09-07 04:46:10
ABRAXXAMessage-Passing-Output-Log-Any-Adapter0.0012012-09-07 08:40:45
KARINILSBundle-Bio-Phylo-PhyLoTA0.12012-09-07 11:49:16
PLICEASEMojolicious-Plugin-Ident0.12012-09-07 12:18:45
KIONet-Sentry-Client0.001-TRIAL2012-09-07 14:49:35
TOBYINKthanks0.0012012-09-07 15:39:24
BPHILLIPSApp-Presto0.0012012-09-07 17:42:57
TEMPIREMojolicious-Plugin-JSONP0.012012-09-07 18:38:39
AUBERTGAudit-DBI1.4.02012-09-07 20:38:15
DELPHINUSWebService-Pastefire0.022012-09-08 00:20:06
LINUSWSDL-XML-Generator0.022012-09-08 08:45:54
RSRCHBOYlib-if-dev0.0012012-09-08 23:26:02
MRSLXM3U80.002012-09-09 02:02:49
MRSLXVideo-M3U80.02012-09-09 02:34:47
LESPEANet-IANA-Services0.0010002012-09-09 10:48:35
MSTROUTcurry1.0000002012-09-09 14:35:33
DYLANTerm-Chart0.012012-09-09 15:54:58
ZBLAIRNet-Tshark0.022012-09-09 19:19:53
VOJPlack-Middleware-REST0.012012-09-10 05:38:51
SMUELLERSereal-Encoder0.062012-09-10 05:43:11
SMUELLERSereal-Decoder0.062012-09-10 05:44:39
CALDRINDBICx-Backend-Move1.0000012012-09-10 05:54:04
KAZUNORIClass-orMapper-Memcached0.012012-09-10 10:37:28
TOBYINKIO-Callback-HTTP0.0012012-09-10 19:19:23
TOKUHIROMCache-Memory-Simple0.012012-09-10 23:50:11
RGARTONStatistics-Sequences-Turns0.032012-09-11 02:15:19
CPORTMANWebService-NZBMatrix0.001-TRIAL2012-09-11 07:15:22
EARONESTYText-Tidx0.922012-09-11 11:25:06
KAZEBUROPlack-Middleware-AxsLog0.012012-09-12 01:16:22
BRENTDAXDir-Iterate0.012012-09-12 04:57:33
SHARYANTOText-Fragment0.012012-09-12 06:04:49
SHARYANTOSetup-File-TextFragment0.012012-09-12 07:02:34
TOBYINKP5U-Command-Changes0.0012012-09-12 08:30:47
PSHANGOVlib-ini0.0012012-09-12 10:19:57
JSWARTZMason-Tidy0.012012-09-12 14:03:58
JNQUINTINSimplePermutation0.012012-09-12 14:14:34
GEEKLADYMySQL-RunSQL1.02012-09-12 15:44:30
KITOMERData-DEC0.012012-09-12 17:26:13
KITOMERParse-Highlife0.012012-09-12 17:45:14
RENEEBOTRS-OPM-Maker0.012012-09-12 17:50:59
TAGAsync-Blackboardv0.3.42012-09-12 18:43:47
AERDANFile-XDG0.012012-09-12 20:37:14
INGYDJSON0.0.12012-09-12 21:04:04
MOLECULESBio-App-SELEX-RNAmotifAnalysis0.00842012-09-13 00:55:02
SDOWIDEITModule-Install-ORLite2Pod1.0002012-09-13 01:15:14
ARISTOTLEPlack-App-Hash0.0012012-09-13 01:16:43
PEVANSTickit-Widget-Menu0.012012-09-13 02:35:31
SHAWMojolicious-Plugin-ParamLogger0.012012-09-13 03:00:13
JNQUINTINMath-Permute-Array0.022012-09-13 05:05:57
PDURDENMojolicious-Command-listdeps0.012012-09-13 07:25:58
GAISSMAIConfig-Any-TT20.102012-09-13 09:35:19
SEKIMURAsekimura-text-markdown-discount0.03-0-gfb30c432012-09-13 14:24:16
INGYJSONY0.0.12012-09-13 15:31:39
AURUMText-Tradition-Analysis1.02012-09-13 19:25:54
SHARYANTOApp-Perl-Stripper0.012012-09-14 00:30:24
SHARYANTOPerl-Stripper0.032012-09-14 02:15:10
SHARYANTODefHash1.0.02012-09-14 02:40:29
TOBYINKExporter-Everything0.0012012-09-14 06:12:40
MAXSAnyEvent-Sereal0.0012012-09-14 07:36:47
SHARYANTOHash-DefHash0.012012-09-14 09:13:49
CAVACAcme-XKCD-DebianRandom1.002012-09-14 10:45:23
TVIGNAUDMDK-Common1.2.292012-09-14 12:23:25
TVIGNAUDHal-Cdroms0.042012-09-14 12:25:15
AURUMText-Tradition-Directory1.02012-09-14 17:03:41
TOKUHIROMLWPx-ParanoidHandler0.012012-09-14 19:27:02
PEVANScircle-fe-term0.012012-09-14 22:44:29
DIEGOKMojolicious-Plugin-Resque0.012012-09-15 08:56:11
ARJONESWWW-ArsenalFC-TicketInformation1.1225902012-09-15 11:03:27
KBAMooseX-LazyCoercion0.0012012-09-15 13:35:25
MSTRATWWW-ASN0.012012-09-15 21:23:15
TOKUHIROMNet-DNS-Paranoid0.042012-09-16 02:56:59
AGJWWW-Snooze0.01_012012-09-16 04:37:09
MIKETPlack-Middleware-Debug-Log4perl0.012012-09-16 13:31:15
CHROMATICPlack-Middleware-BotDetector1.20120916.20352012-09-16 16:36:19
KAWAMURAYImager-Heatmap0.022012-09-17 08:00:23
CEBJYRENet-Google-Storagev0.1.02012-09-17 09:54:38
TOBYINKMooseX-FunkyAttributes0.0012012-09-17 12:04:04
DAMIHTTP-Server-PSGI-Mortal0.012012-09-17 22:35:49
DAMITree-Navigator0.012012-09-17 23:00:04
AJPAGEBio_Assembly_Improvement20120918.15452012-09-18 11:45:20
AARAlien-qd0.012012-09-18 12:51:24
PEVANSAlgorithm-Cron0.012012-09-18 17:16:00
DAOTOADDBIx-PreQL0.01.002012-09-18 20:37:03
NICWOLFFIO-File-Cycle0.012012-09-19 01:26:48
SYAGINet-SSH-Tunnel0.012012-09-19 02:20:55
FAXMODEMTest-Collectd-Plugins0.10032012-09-19 07:50:59
FAYLANDWWW-PunchTab0.012012-09-19 08:58:59
YSASAKIText-Xslate-Bridge-FillInForm-Lite0.012012-09-19 12:50:47
LEONTDevel-cst0.0012012-09-19 19:36:47
TOBYINKTest-Tabs0.0012012-09-20 08:45:28
RENTOCRONBusiness-BR-NFe-RPS-TXT0.012012-09-20 12:02:30
DCPETROVPlack-Middleware-BrowserDetector0.012012-09-20 14:52:41
RJBSMasonX-Resolver-AutoInherit0.0012012-09-20 15:04:56
TOBYINKXT-Util0.0012012-09-20 15:32:24
TOBYINKXT-Manager0.0012012-09-20 16:25:22
ARJONESDist-Zilla-Plugin-Test-Fixme1.1226402012-09-20 17:38:52
RJBSMasonX-Compiler-Strict0.0012012-09-20 23:04:58
RJBSMasonX-Component-RunMain0.0012012-09-20 23:15:39
SYAGIApp-Myinst0.012012-09-21 01:37:48
RENEEBEPublisher-Source-Plugin-PerltutsCom0.12012-09-21 03:06:51
EWATERSTapir0.012012-09-21 13:00:22
JMEGERMANNet-WMIClient0.622012-09-21 14:48:36
TSIBLEYRT-Extension-QuoteSelection0.012012-09-21 21:14:51
YANICKDBIx-NoSQL-Store-Manager0.1.02012-09-21 22:29:51
SHOHEIKNet-Rexster-Clientv0.0.12012-09-22 00:29:06
KAZUNORINet-WebCL0.012012-09-22 09:04:09
GOMORNet-SinFP31.002012-09-22 09:37:16
OLOFText-FileTree0.12012-09-22 10:59:25
SAXJAZMANNet-DNS-Match0.012012-09-22 14:29:28
YTURTLENephia0.012012-09-22 22:56:08
DQNEOAmazon-S3-FastUploader0.012012-09-23 03:14:26
AARAlien-GEOS0.012012-09-23 11:20:21
BGPMONBGPmon-Archiver-1002012-09-23 15:55:11
BGPMONBGPmon-Analytics-db-1002012-09-23 15:55:33
BGPMONBGPmon-core-1002012-09-23 15:57:02
BGPMONBGPmon-Client-1002012-09-23 15:59:03
BGPMONBGPmon-CPM-1002012-09-23 16:57:00
BGPMONBGPmon-CPM-Prefix-Finder-1002012-09-23 16:57:00
WHITNEYAsync-Util0.012012-09-23 17:40:00
GARUURI-magnet0.012012-09-23 18:50:27
RJBSHTML-MasonX-Free0.0022012-09-24 11:24:10
DOYWeb-Request0.012012-09-24 11:51:58
WIMLMac-Alias-Parse0.102012-09-25 00:48:17
MINIMALConfig-Hash0.912012-09-25 03:15:01
VOJPICA-Modification0.1342012-09-25 03:43:47
DOZZIESys-Facter1.002012-09-25 03:55:35
WESALMojolicious-Command-generate-dbicdumpv0.1.12012-09-25 16:41:43
SGOVINDShatterproof0.012012-09-25 17:54:40
GETTYWWW-Asana0.0012012-09-25 20:55:11
SYOHEXWebService-DMM0.012012-09-25 21:32:57
DOYOX0.012012-09-25 23:42:15
GETTYWWW-Authy0.0012012-09-26 02:44:00
VOJPlack-Middleware-Auth-AccessToken0.12012-09-26 08:07:58
LUYSEYALDBD-Plibdata0.062012-09-26 11:28:51
KOCEASYDancer-Plugin-FakeCGI0.22012-09-26 16:33:41
DJERIUSIO-ReStoreFHv0.012012-09-26 17:57:53
SANBEGImage-ValidJpeg1.002012-09-26 19:45:28
TOKUHIROMAcme-Module-Checker0.012012-09-26 22:13:08
AUFFLICKMath-Derivative_XS0.012012-09-26 22:55:55
KAZEBURODBIx-DSN-Resolver0.012012-09-27 02:34:36
VOJPlack-Middleware-JSONP-Headers0.12012-09-27 08:20:40
VOJPlack-Middleware-SuppressResponseCodes0.12012-09-27 09:25:21
PERLOVERWWW-Ruler0.12012-09-27 10:19:56
JUDIOOXML-Constructor0.012012-09-27 12:09:06
LUYSEYALApache2-AuthTicketLDAP0.012012-09-27 14:10:59
SANBEGMediaWiki-EditFramework0.012012-09-27 19:58:16
TQISJIMXML-Parser-Nodes0.012012-09-27 23:24:32
GFUJIAcme-YAPC-Asia-2012-LTthon-Hakushu0.012012-09-27 23:28:32
YHPENGNet-DNSbed0.012012-09-28 06:15:13
AGORDONDancer-Plugin-WindowSession0.012012-09-28 13:36:03
BBYRDNetAddr-BridgeID0.952012-09-28 17:04:45
TOKUHIROMGearman-Glutch0.012012-09-28 19:33:05
AKIYMCocoa-Skype0.012012-09-28 22:15:52
AKIYMNet-DBus-Skype-API0.012012-09-28 23:06:28
AKIYMSkype-Any0.012012-09-29 01:23:19
GETTYReflexive-Client-HTTP0.0012012-09-29 01:30:03
KAZUNORIFurl-Cookies0.012012-09-29 07:16:12
BESSARABVAkado-Account0.012012-09-29 11:45:31
JFRIEDRex-Template-TT0.33.02012-09-29 13:57:04
LETOMath-Factoring0.012012-09-30 00:54:50
TYPESTERUV0.12012-09-30 02:51:31
YAPPOGeoHash0.012012-09-30 03:09:31
TOKUHIROMHTML-Escape0.012012-09-30 03:11:03
MNIKHILNet-ZKMon0.012012-09-30 04:48:13
PUNYTANPAD0.022012-09-30 05:51:31
GBLMail-Exchange0.012012-09-30 10:32:45
DJCOLLINSLinux-Ext2-Attributes0.102012-09-30 12:18:46
DOYStream-Buffered0.012012-09-30 16:48:55
RSAVAGEGraphViz2-Marpa-PathUtils1.002012-09-30 19:14:17
DCHESTERTemplate-Swig0.012012-09-30 19:17:30

New Distributions for October 2012 (261)

AuthorDistributionVersionRelease Date/Time
GETTYTask-BeLike-GETTY20121001.0002012-09-30 22:16:18
SANKOTemplate-Liquidv0.9.0_12012-10-01 03:48:09
JONTAYLORDBIx-Class-MassAssignable0.012012-10-01 05:49:09
EWATERSDancer-Plugin-Tapir0.022012-10-01 10:01:40
SONGMUPlack-Middleware-Auth-OAuth0.032012-10-01 11:46:01
KMCGRATHkmcgrath-Rose-DBx-Object-Cached-CHI-Rose-DBx-Object-Cached-CHI0.20-0-gc8296042012-10-01 14:19:59
GUGODData-HanConvert1.02012-10-01 15:48:37
BBYRDDist-Zilla-PluginBundle-Author-BBYRD0.902012-10-01 17:16:28
THORGISText-ASCIIPipe1.0000002012-10-01 17:56:06
ADAMKHTTP-Online0.012012-10-01 18:05:41
ADAMKGitHub-Extract0.012012-10-01 19:42:35
JACKMANEYHypatia-GraphViz20.012012-10-01 20:09:41
CRLYJEPRobotC-Wrapper0.012012-10-01 21:40:31
HAYAJOMojolicious-Plugin-Directory0.022012-10-01 21:50:58
HAYAJOData-Petitcom0.012012-10-01 22:20:13
SHARYANTOTask-BeLike-SHARYANTO-Favorited0.012012-10-01 23:41:58
SHARYANTODist-Create-TaskBeLikeFavorited0.012012-10-01 23:49:21
SHARYANTOTask-GudangData-User0.012012-10-02 00:26:01
SHARYANTOTask-BeLike-SHARYANTO-AutomatedUpdate0.012012-10-02 00:36:31
PLICEASEAnyEvent-Open3-Simple0.12012-10-02 01:23:23
YAPPOGeohash0.022012-10-02 01:24:51
GRANTMDancer-Plugin-CDN1.0002012-10-02 06:23:22
TOBYINKMooseX-ErsatzMethod0.0012012-10-02 11:30:29
BDUGGANString-Template0.102012-10-02 11:39:26
JHALLOCKGappX-Dialogs0.0012012-10-02 15:29:18
OAXLINLog-Scrubber0.052012-10-02 16:26:21
TIMBDevel-SizeMe0.020_0802012-10-02 17:50:45
RJESCHMIArchive-BagIt0.012012-10-02 22:42:02
RSRCHBOYTAP-SimpleOutput0.0012012-10-02 23:30:33
MOTEMENTest-Deep-JSON0.012012-10-03 04:26:52
ANAZAWACGI-Header0.012012-10-03 05:11:36
TOBYINKP5U-Command-Peek0.0012012-10-03 05:52:18
SAULIUSDate-Holidays-LT0.012012-10-03 10:49:45
JFRIEDRex-Bundle0.5.02012-10-03 12:05:59
JHALLOCKGappX-FormTraits0.2002012-10-03 12:17:39
JHALLOCKGappX-NoticeBox0.2002012-10-03 14:42:23
BDUGGANData-Downloader0.99012012-10-03 15:17:00
JJNAPIORKDBIx-Class-Migration-RunScript-Trait-AuthenPassphrase0.0012012-10-03 16:27:19
GSBStarlink-ATL0.012012-10-03 16:54:13
NICWOLFFURI-Based1.012012-10-03 20:27:18
IXAPerl-Critic-Policy-CodeLayout-ProhibitSpaceIndentation1.002012-10-04 02:41:06
PRAGMATICConfig-Any-Properties0.0010002012-10-04 02:43:56
JDALBERGDevice-ZyXEL-IES0.012012-10-04 08:06:54
JHALLOCKGappX-SSNEntry0.022012-10-04 11:39:34
JHALLOCKGappX-FileTree0.2002012-10-04 13:03:29
RTWARDHG0.0012012-10-04 15:32:29
GSBWWW-Crab-Client0.012012-10-04 16:05:59
JHALLOCKGapp-App0.001-TRIAL2012-10-04 18:09:26
TOBYINKMooX-Struct0.0012012-10-04 18:54:40
MASAKIBrownie0.062012-10-04 20:36:02
LTPWWW-Myki0.012012-10-05 00:19:41
HAYAJOMooseX-Types-Email-Loose0.012012-10-05 03:24:18
JOKERGOOR-Comment2DocDraft0.12012-10-05 03:58:41
KJELLMTest-Spec-RMock0.0012012-10-05 07:21:22
NICSCatmandu-ArXiv0.012012-10-05 10:11:37
NICSCatmandu-DOI0.012012-10-05 10:14:40
NICSCatmandu-PLoS0.012012-10-05 10:17:33
NICSCatmandu-PubMed0.012012-10-05 10:21:45
NICSCatmandu-Z39500.012012-10-05 10:27:08
NICSCatmandu-SRU0.012012-10-05 10:28:35
EAUMaple0.012012-10-05 14:24:26
TOKUHIROMTask-Amon20.012012-10-06 04:58:41
AKIYMApp-Tacochan0.012012-10-06 06:09:36
NGLENNSoar-Production-Parser1.1228002012-10-06 18:50:00
MIKIHOSHISmart-Options0.012012-10-07 00:27:40
DOYPlack-Middleware-Xslate0.012012-10-07 01:56:23
DDUMONTConfig-Model-Dpkg2.0272012-10-07 08:42:10
SANBEGDirectory-Iterator1.0002012-10-07 17:36:09
SANBEGDirectory-Iterator-PP1.0002012-10-07 17:36:21
SANBEGDirectory-Iterator-XS1.0002012-10-07 17:36:35
BAYASHIPlack-Middleware-Debug-TraceENV0.012012-10-07 20:13:38
MASAKISelenium-Server0.012012-10-07 21:16:10
XYFWin32-Utilization0.12012-10-07 22:46:11
VOJPlack-Middleware-Static-Combine0.012012-10-08 10:08:34
RUBATTELDBIx-Class-LookupColumn0.01-TRIAL2012-10-08 12:20:28
YAKEXAnyEvent-HTTP-LWP-UserAgent-Determined0.01.1.062012-10-08 12:37:16
FODData-PcAxis0.0.32012-10-08 17:15:55
RTWARDHg0.0022012-10-08 17:24:29
DOYText-Handlebars0.012012-10-08 18:26:47
JBERGERAcme-Ford-Prefect0.0012012-10-08 19:34:28
MBASTOSNetDNA0.12012-10-08 22:17:45
MOTEMENWight0.012012-10-08 23:05:54
AANOAAAnyEvent-HTTP-ScopedClient0.0.12012-10-09 04:40:13
MOOCOWAlgorithm-BinarySearch-Vec0.012012-10-09 09:12:30
HAARGTest-Lib0.0012012-10-09 14:55:47
DEXTERPOSIX-strftime-GNU0.012012-10-09 17:16:00
KRYDEMath-NumSeq-Alpha12012-10-09 20:57:26
RIZENBox-Calc0.01002012-10-09 21:10:36
DOYMooseX-Validation-Doctypes0.012012-10-10 00:20:31
DAVIDOIO-Prompt-Hooked0.012012-10-10 00:37:32
KHEDINGraph-Subgraph0.02022012-10-10 03:34:26
TYPESTERGitDDL0.012012-10-10 05:44:33
AANOAAAnyEvent-Campfire-Stream0.0.12012-10-10 07:21:16
BBYRDTransform-Alert0.90_0012012-10-10 15:09:04
KAZEBURODBIx-DSN-Resolver-Cached0.012012-10-11 00:35:50
AMIRITEApp-escurl0.0012012-10-11 03:46:33
AANOAAAnyEvent-Campfire-Client0.0.12012-10-11 04:27:14
PLICEASELingua-Alphabet-Phonetic-LAPD0.012012-10-11 09:53:56
DGRAHAMsimplexmlparsev1.12012-10-11 10:46:19
HIDEAKIOArangoDB0.01_012012-10-11 14:26:17
AANOAAHubot0.0.12012-10-11 14:36:39
MBETHKEArchive-Zip-Crypt0.01_12012-10-11 17:54:59
MUDDYDIXNData-ObjectGenerator0.0.22012-10-11 22:18:37
SMUELLERRedis-ScriptCache0.012012-10-12 09:18:53
BKATZUNGText-TemplateLite-Standard0.012012-10-12 10:01:07
BKATZUNGText-TemplateLite0.012012-10-12 11:00:00
YAKEXfilteredv0.0.12012-10-12 12:03:49
MOZNIONAcme-AjiFry0.012012-10-12 13:43:17
TIEDEMANNLingua-Identify-Blacklists0.012012-10-12 17:18:54
GETTYWWW-Chain0.0012012-10-13 01:32:08
FRACTALProtect-Unwind0.3002012-10-13 02:01:55
ALFIEData-PathSimplev1.0.02012-10-13 08:26:32
FLYGOASTRedis-RdbParser0.012012-10-13 14:05:33
GETTYMooX-ClassStash0.0012012-10-13 21:56:26
STRZELECNet-DNS-Nameserver-Trivial0.12012-10-14 07:17:29
SHARIMail-DMARC-opendmarc0.04_022012-10-14 08:43:30
BBYRDP9Y-ProcessTable0.902012-10-14 16:39:40
NEILBPAUSE-Permissions0.012012-10-14 17:31:03
JOKERGOOCrypt-DNASequence0.12012-10-15 03:53:17
KNIXML-Perl0.042012-10-15 04:04:56
SMUELLERIPC-ConcurrencyLimit-Lock-Redis0.012012-10-15 10:23:42
SHARYANTOIOD0.9.02012-10-15 11:22:39
SYPTest-HTTP-AnyEvent-Server0.0032012-10-15 15:51:00
ECARROLLMooseX-Types-Vehicle0.012012-10-15 16:09:17
ELBEHOAcme-MetaSyntactic-morning_musume1.0002012-10-15 19:07:35
UVOELKERProtocol-TWS0.000_012012-10-15 21:41:26
UVOELKERAnyEvent-TWS0.000_012012-10-15 22:34:39
UVOELKERFinance-TWS-Simple0.000_012012-10-15 22:51:51
HLINDancer-Plugin-Auth-Krb50.012012-10-15 22:57:11
YUUKINet-Qiita0.032012-10-16 02:21:03
INGYString-Slice0.012012-10-16 03:25:08
FAYLANDBusiness-eWAY-RapidAPI0.012012-10-16 03:25:26
ASKADNAApp-dropboxapi1.052012-10-16 04:10:46
ZPMORGANGames-Go-Cinderblock0.052012-10-16 05:59:34
LTPAcme-Timecube0.012012-10-16 08:27:46
YAKEXFilter-PPI-Transformv0.0.12012-10-16 13:01:30
SILENCERWoW-Armory-API12012-10-16 13:04:21
JKUTEJCatalyst-Plugin-Authentication-Store-UserXML0.012012-10-16 15:41:14
NGLENNSoar-Production-Printer0.012012-10-16 21:00:38
KARMANLucyX-Suggester0.0012012-10-16 23:35:38
TAUNGERWin32-GlobalHotkey0.01_12012-10-17 03:54:20
NICSCatmandu-Store-Lucy0.012012-10-17 07:28:15
SYOHEXGraphviz-DSL0.012012-10-17 10:30:35
FOXCOOLVK-OAuth0.012012-10-17 11:01:31
JONTAYLORMojolicious-Plugin-ServerSession0.012012-10-17 14:08:55
SGLADKOVRedis-CappedCollection0.012012-10-17 15:41:34
JHTHORSENMojo-SNMP0.012012-10-17 17:39:28
TOBYINKMooseX-RoleQR0.0012012-10-18 03:27:31
MIXIDBIx-AssertIndex0.012012-10-18 07:31:41
MAUKESwitch-Plain0.012012-10-18 08:29:32
KATEBusiness-Tax-Avalara1.0.02012-10-18 10:17:27
YAKEXModule-AnyEvent-Helperv0.0.12012-10-18 11:28:25
DEDMEDVEDVSGDR-UnitTest-TestSet1.002012-10-18 13:00:00
TOBYINKMooseX-Aspect0.0012012-10-18 15:30:42
DROLSKYTest-Bits0.012012-10-18 15:45:15
JANDREWMooseX-ShortCut-BuildInstancev0.003_0032012-10-18 16:44:01
DANNYJQuery-Mobile0.012012-10-18 17:50:40
YANICKDist-Zilla-Plugin-ShareDir-Tarball0.1.02012-10-18 20:17:24
YANICKFile-ShareDir-Tarball0.1.02012-10-18 21:27:41
AANOAAHubot-Scripts-Bundle0.0.12012-10-19 00:00:36
AANOAAHubot-Scripts-standup0.0.12012-10-19 00:21:07
TOBYINKSub-Talisman0.0012012-10-19 05:56:54
TOBYINKSub-Talisman-Struct0.0012012-10-19 05:58:28
UNDEFData-YADV0.0012012-10-19 06:19:31
JMATESMusic-Tension0.012012-10-19 10:15:39
AMDTapper-TestSuite-Benchmark-S34.1.02012-10-19 12:11:29
AMDTapper-Fake4.1.02012-10-19 12:18:09
AMBSFinance-Kitko-Charts0.012012-10-19 13:59:59
AVENJMooX-Role-Pluggable0.012012-10-19 14:48:13
TOBYINKMooseX-ModifyTaggedMethods0.0012012-10-19 17:31:39
SEKIAAlgorithm-AdaBoost0.012012-10-20 04:54:18
NICKSWWW-RSSFeed0.012012-10-20 08:24:11
MAUKEAcme-Lvalue0.022012-10-20 14:24:53
AVENJMooX-Role-POE-Emitter0.012012-10-20 19:06:23
RIZENTheGameCrafter-Client0.01002012-10-20 20:06:50
BAYASHIApp-YG0.022012-10-21 06:26:05
SSQQdata_structure_compare0.032012-10-21 12:37:21
DEXTERResource-Dispose0.012012-10-21 13:26:44
EXODISTDeclare-Args0.0012012-10-21 13:52:37
INGYMoos0.022012-10-21 20:34:56
EXODISTDeclare-Opts0.0012012-10-22 01:10:17
TOBYINKAcme-Constructor-Pythonic0.0012012-10-22 09:59:10
MAHIROEJS-Template0.012012-10-22 11:19:55
BPATELForex1.02012-10-22 12:03:58
CLIFFORDJDancer-Plugin-Auth-RBAC-Permissions-DBIC0.0012012-10-22 12:21:44
GWYNPOEx-Inotify0.01002012-10-22 16:44:31
YAKEXTest-Kwalitee-Extrav0.0.12012-10-23 00:20:58
TOKUHIROMTest-Pretty0.012012-10-23 01:35:14
GLTSLingua-Deva1.002012-10-23 08:56:46
XINZHENGBIE-Data-HDF50.012012-10-23 14:42:09
MSTOCKTemplate-Plugin-Bootstrap-Pagination0.0010002012-10-23 15:30:33
TMCMEEKIExcel-Table1.0102012-10-23 16:04:40
SANBEGEtsy-StatsD1.0002012-10-23 16:35:45
NEILBNo-Such-Module0.012012-10-23 16:39:01
YAKEXDist-Zilla-Plugin-Test-Kwalitee-Extrav0.0.12012-10-23 19:00:34
SHARYANTOProgress-Any0.012012-10-24 01:41:16
SHARYANTOProgress-Any-Output-LogAny0.012012-10-24 01:57:13
SHARYANTOProgress-Any-Output-TermProgressBar0.012012-10-24 02:32:31
DLAMBLEYMogileFS-Plugin-RandomWrites0.022012-10-24 09:35:02
CSIDEAlien-ChromeDriver0.012012-10-24 12:58:24
SYPLWP-Protocol-Net-Curl0.0012012-10-24 14:49:20
MALLENTerm-Spinner-Lite0.012012-10-25 00:10:37
SATOHText-Overflow0.012012-10-25 06:24:43
GRAFMojolicious-Plugin-OnFork0.0012012-10-25 06:46:47
TOKUHIROMTest-Ika0.00_012012-10-25 06:48:17
GOMORLib-Furl0.102012-10-25 09:27:08
JOSEFEcma48-Util0.012012-10-25 12:36:53
MSHELORDigest-SHA30.012012-10-25 21:51:08
TOKUHIROMTest-Should-Engine0.012012-10-25 23:31:18
TOKUHIROMTest-Should0.012012-10-25 23:48:08
SKITask-Mechanistic-Firefox0.012012-10-26 01:09:59
MAKAMAKAPocketIO-Client-IO0.012012-10-26 01:11:29
FOXCOOLOAuth-Simple0.052012-10-26 04:37:00
MCHElib-remote0.012012-10-26 06:24:44
TOBYINKpackage-compute0.0012012-10-26 09:22:50
JMATESMusic-LilyPondUtil0.012012-10-26 10:48:10
JKUTEJmeon-Web0.012012-10-26 12:59:16
PLICEASEDist-Zilla-Plugin-jQuery0.012012-10-26 15:01:57
PLICEASEApp-RegexFileUtils0.022012-10-26 15:04:49
PLICEASEWebService-TwitterBootstrap-Download-Custom0.012012-10-26 15:05:00
PLICEASEShell-Guess0.012012-10-26 15:05:11
PLICEASEShell-Config-Generate0.022012-10-26 15:05:23
PLICEASEDist-Zilla-Plugin-TwitterBootstrap0.012012-10-26 15:05:34
RENTOCRONText2URI0.12012-10-26 16:09:20
TOBYINKRole-Commons0.1002012-10-26 17:19:49
UGEXEText-Levenshtein-Damerau-XS0.102012-10-26 17:57:55
DAMITest-InDomain0.012012-10-26 20:50:04
VICHOUTie-Scalar-Epoch0.0012012-10-27 14:31:00
AKRONMojolicious-Plugin-Util-Endpoint0.012012-10-27 18:59:46
MARKLEEUWSVN-TeamTools-Indexer0.0012012-10-27 20:39:37
BUDNEYSub-Deferrable0.042012-10-27 21:11:29
JMATESApp-MusicTools0.012012-10-27 21:54:22
YANICKDancer-Template-Mustache0.1.02012-10-28 18:20:31
JDSDBIx-Table-TestDataGenerator0.0012012-10-28 19:30:44
ANDREFSLingua-EN-Sentence-Offsets0.01_062012-10-28 20:34:10
FESTYDevice-BCM2835-LCD0.012012-10-29 00:38:16
REVNet-Icecast20.0012012-10-29 10:20:03
ABRAXXASearch-Query-Dialect-DBIxClass0.0012012-10-29 11:23:00
TOREAUURL-Normalize0.012012-10-29 12:06:28
RSRCHBOYNet-Amazon-Signature-V30.0012012-10-29 13:57:59
RSRCHBOYMooseX-Util0.0012012-10-29 14:21:00
RSRCHBOYMooseX-RelatedClasses0.0012012-10-29 14:30:12
RSRCHBOYPod-Weaver-Section-CollectWithIntro0.0012012-10-29 15:33:08
VPITMac-NSGetExecutablePath0.012012-10-29 15:53:37
TOBYINKMooseX-RelatedClasses-Aliased0.0012012-10-29 18:51:40
EXODISTDeclare-CLI0.0052012-10-30 00:16:28
FUKAIDancer-Plugin-KossyValidator0.012012-10-30 03:35:44
HVALVERDEBio-Align-Subset0.012012-10-30 11:56:08
PKAROUKINMojolicious-Plugin-Sugar0.0012012-10-30 12:32:19
FDULAUTie-Array-Cavity0.012012-10-30 13:07:20
WINTRUCarrot0.0.02012-10-30 19:02:16
ABHIISNOTAcme-String-Trim0.0012012-10-31 02:09:05
SATOSINData-Compare-Type0.012012-10-31 05:48:08
DUMBNet-GNUDBSearch1.02012-10-31 08:00:05
TLINDENQuietly-Confident0.012012-10-31 08:10:29
AJPAGEBio-Pipeline-Comparison1.1230502012-10-31 10:07:14
AKRONMojolicious-Plugin-CHI0.012012-10-31 13:02:15
KHEDINAE-AdHoc0.082012-10-31 13:14:06
RSRCHBOYCatalyst-TraitFor-Context-PSGI-FindEnv0.0012012-10-31 15:14:20
KOVENSKYParse-Matroska0.0012012-10-31 17:24:44
GGOLDBACHApp-autotest0.0012012-10-31 18:10:03

New Distributions for November 2012 (277)

AuthorDistributionVersionRelease Date/Time
TOKUHIROMAnyEvent-MessagePack0.192012-11-01 01:58:36
TOBYINKList-AssignRef0.0012012-11-01 06:11:03
MCHELoop-Flow-Object0.012012-11-01 06:18:00
TQISJIMNoSQL-PL2SQL1.002012-11-01 11:52:03
TOKUHIROMTest-Stub0.012012-11-02 02:18:35
RENTOCRONRGB2HSI0.012012-11-02 02:36:55
TOKUHIROMExporter-Constants0.012012-11-02 05:27:25
TOBYINKClass-Method-ModifiersX-Override0.0012012-11-02 08:36:28
TOBYINKClass-Method-ModifiersX-Augment0.0012012-11-02 08:36:39
MDORMANPlack-Middleware-LogAny0.0012012-11-02 11:40:28
KAZUKIMACatalyst-Plugin-Text-Xatena0.012012-11-02 12:18:07
YAKEXPPI-Transform-Sequencev0.0.12012-11-02 13:38:19
TEXPingdom-Client0.112012-11-02 14:00:00
DOHERTYPlucene-SearchEngine-Index-MSOffice0.0012012-11-02 15:28:58
HOLLIEDevice-Plugwise0.42012-11-02 16:42:00
MDORMANDancer-Logger-LogAny0.0012012-11-02 17:38:18
SYAGIAcme-MobileTradeFun0.012012-11-03 01:15:08
GRAFMojolicious-Plugin-AccessLog0.0012012-11-03 03:29:32
JBERGERModule-Build-CleanInstall0.012012-11-03 10:47:06
AKRONMojolicious-Plugin-BlogSpam0.032012-11-03 17:06:13
TOKUHIROMModule-Build-Pluggable0.012012-11-03 22:41:59
NMARLEYParse-SSH2-PublicKey0.012012-11-04 01:09:08
TOKUHIROMModule-Build-Pluggable-ReadmeMarkdownFromPod0.022012-11-04 03:48:32
CALDRINFortune-WWW-Postillion0.0012012-11-04 13:58:44
ALEXMVAnyEvent-RabbitMQ-RPC0.52012-11-04 16:40:20
MEKKPasswd-Keyring-Memory0.212012-11-04 17:09:49
MEKKPasswd-Keyring-Gnome0.212012-11-04 17:11:17
MEKKPasswd-Keyring-Auto0.212012-11-04 17:11:37
REVMISCHAAnyMQ-Pg0.012012-11-04 18:04:59
KOVENSKYWWW-Shorten-Akariv0.12012-11-04 20:49:40
TOKUHIROMModule-Build-Pluggable-PPPort0.032012-11-04 21:12:40
EXODISTVim-Helper0.0012012-11-04 21:32:30
TOKUHIROMText-TestBase0.012012-11-04 23:47:44
NORBUNet-Saasu0.12012-11-05 00:50:14
MARKOVXML-Compile-WSS-Signature0.902012-11-05 08:36:48
PASSANINet-WURFL-ScientiaMobile1.0.22012-11-05 10:24:34
PASSANIPlack-Middleware-WURFL-ScientiaMobile0.012012-11-05 10:24:47
KARMANCatalystX-CRUD-Controller-REST0.0012012-11-05 12:02:20
BDUGGANClustericious-Admin0.212012-11-05 12:32:34
MARIOROYMCE1.0002012-11-05 16:08:03
KENTAROTriglav-Client0.012012-11-06 03:37:39
JHTHORSENMojo-Redis0.992012-11-06 05:05:17
GENEMusic-Duration0.012012-11-06 05:07:07
NAVIDancer-Plugin-Log-DB0.012012-11-06 07:25:13
SHARYANTODist-Zilla-Plugin-Test-Rinci0.012012-11-06 10:43:24
SHARYANTOTest-Rinci0.012012-11-06 10:47:08
SHARYANTODist-Zilla-Plugin-Rinci-Validate0.012012-11-06 10:47:13
PERLOVERCache-Memcached-Fast-Logger0.12012-11-06 12:48:34
SHARYANTORinci-Schema1.1.32.12012-11-06 13:12:51
MDORMANDancer-Plugin-EmailSender0.0012012-11-06 15:08:21
MIYAGAWAforkprove0.1.02012-11-06 15:34:58
NEILBACME-Experiment0.012012-11-06 17:06:48
SHUFFWebService-Scriptogramv0.0.12012-11-06 17:50:43
TOBYINKDevel-PL_origargv0.0012012-11-07 03:11:52
SHARYANTOTest-Sah0.012012-11-07 04:25:50
NEILBACME-Experiment-C0.012012-11-07 06:08:27
SHARYANTOSoftware-Catalog0.012012-11-07 16:12:23
JORDANTerm-RouterCLI1.002012-11-07 22:17:26
YAPPOExclusiveLock-Guard0.012012-11-08 03:06:19
SHARYANTOSoftware-Release-Watch0.012012-11-08 05:04:19
SHARYANTOSoftware-Release-Watch-SW-wordpress0.012012-11-08 05:07:11
MEKKPasswd-Keyring-KDEWallet0.202012-11-08 05:57:22
GARUBusiness-BR-CEP0.012012-11-08 10:51:57
TOMFAHLEWebservice-Trello0.012012-11-08 13:55:05
TOBYINKJSON-MultiValueOrdered0.0012012-11-08 17:07:55
MIYAGAWAlib-require-all0.012012-11-08 22:58:41
PBLAIRACL-Regex0.0001_012012-11-09 00:25:07
TOKUHIROMDevel-CheckCompiler0.012012-11-09 00:33:13
TOBYINKMooseX-ConstructInstance0.0012012-11-09 05:00:20
FUKAIMojolicious-Plugin-KossyValidator0.012012-11-09 06:20:28
DCANTRELLClass-Mockable1.02012-11-09 17:53:56
YANICKDist-Zilla-PluginBundle-Dancer0.00012012-11-09 20:09:07
MAMODURI-Simple0.0022012-11-09 21:02:43
YAKEXData-Stream-Bulk-AnyEventv0.0.12012-11-09 23:48:10
WINTRUMica1.a.02012-11-10 10:33:28
TEXApp-Cerberus-Plugin-Woothee0.012012-11-10 12:32:46
TEXApp-Cerberus-Plugin-ParseBrowser0.012012-11-10 12:35:52
THEOKText-DoubleMetaphone_PP0.032012-11-10 14:05:23
TOSHIOITOAsync-Queue0.012012-11-10 20:30:31
JHTHORSENMojo-TFTPd0.012012-11-10 20:41:06
BAYASHIPlack-App-DummyBox0.012012-11-10 20:45:12
GLITCHMRApp-Reg1.0.02012-11-11 07:19:58
SHELLINGDancer-Plugin-WebDAV0.0.12012-11-11 08:56:37
TEXVersion-Compare0.142012-11-11 10:09:03
TEXDebian-Releases0.142012-11-11 10:13:12
DJCURTISSummerset-IsbnConverterv1.002012-11-11 12:00:50
TEXFile-Blarf0.122012-11-11 13:00:11
MEKKPasswd-Keyring-OSXKeychain0.102012-11-11 14:14:24
TOBYINKlexical-underscore0.0012012-11-11 14:46:00
YANICKDist-Zilla-Plugin-ReadmeMarkdown-CoderwallEndorse0.1.02012-11-11 18:18:20
YANICKDist-Zilla-Plugin-CoderwallEndorse0.1.12012-11-11 20:09:56
NUCLONQless0.012012-11-12 00:10:40
HEYTRAVMojolicious-Plugin-Libravatar1.002012-11-12 05:02:55
DAVEWEBBNet-IPAddress-Filter201211122012-11-12 09:41:43
OALDERSAcme-Experiment-OALDERS0.012012-11-12 17:43:51
NEILBAcme-Experiment-NEILB0.012012-11-12 18:28:21
HVALVERDEBio-EasyYang12012-11-13 05:46:20
HVALVERDELWP-UserAgent-RandomProxyConnect1.102012-11-13 06:01:49
HVALVERDEStatistics-RatioVariance1.002012-11-13 08:46:32
SHLOMIFApp-Countdownv0.0.12012-11-13 10:58:10
HVALVERDEsms2.152012-11-13 13:40:38
VERESCDebug-Fork-Tmux1.0000002012-11-13 13:54:51
APOCADancer-Plugin-String-TT0.012012-11-13 16:09:25
KOORCHIKRose-DBx-Role-NestTransaction0.012012-11-13 16:12:38
HVALVERDEsmscli2.162012-11-13 16:19:32
MJFLICKDBIx-Class-Bootstrap-Simple0.012012-11-13 18:34:22
GRYLLIDAAcme-GRYLLIDA-Utils0.012012-11-13 18:59:16
SHARYANTOSHARYANTO-Acme-TestPause10.012012-11-13 21:56:35
SHARYANTOSHARYANTO-Acme-TestPause20.012012-11-13 22:00:42
LYUMINGLYUMING-Acme-TestPause20.012012-11-13 22:04:47
LYUMINGLYUMING-Acme-TestPause10.012012-11-13 22:11:27
KLOBYONEDevice-BCM2835-NES0.012012-11-14 02:30:07
UMEYUKINumber-Zero0.012012-11-14 02:53:08
FARHADText-ProgressBar0.12012-11-14 03:09:49
AMIRITEScript-Base0.012012-11-14 04:07:33
HVALVERDEApp-SMSCli2.172012-11-14 06:44:34
ROMANFCatalyst-Plugin-Moostashv0.1.02012-11-14 13:38:06
SARTAKText-Quantize0.012012-11-14 14:11:13
TOKUHIROMModule-Build-Pluggable-XSUtil0.012012-11-14 18:37:58
YHPENGEmail-Send-Netease0.012012-11-14 22:59:00
SOHTest-Deep-Teng-Row0.012012-11-15 00:25:24
YHPENGMySQL-mycrud0.012012-11-15 02:17:14
WWOLFUbic-Service-ServerStarter0.0012012-11-15 02:37:03
SILENCEREncode-Multibyte-Detect1.002012-11-15 02:55:52
TOKUHIROMTeng-Plugin-TextTable0.012012-11-15 05:29:11
DBRpdoc0.9002012-11-15 06:11:40
JOHNHFsdb2.272012-11-15 09:10:25
CODECHILDClass-Core0.012012-11-15 14:22:52
AQUILINAData-Pensieve0.012012-11-15 20:42:59
AQUILINACatalyst-Plugin-Data-Pensieve0.012012-11-15 21:02:45
SHARYANTOJSON-Color0.012012-11-15 22:45:16
TOKUHIROMThaiSchema0.012012-11-15 23:30:41
SHARYANTOYAML-Tiny-Color0.012012-11-16 06:11:22
STEVANPromises0.012012-11-16 13:50:55
SMASHLingua-FreeLing3-Utils0.012012-11-16 14:11:32
SHARYANTOHTTP-Headers-Patch-DontUseStorable0.012012-11-16 14:22:22
SHELDRAKEMath-Geometry-Delaunay0.012012-11-16 14:35:18
PRAVUSCatalyst-Model-DBIx-Connector0.002012-11-16 15:12:30
PRAVUSCatalyst-Plugin-Environment0.012012-11-16 15:12:42
DJERIUSMooX-Attributes-Shadow0.012012-11-16 16:42:49
PEVANSFuture0.012012-11-16 17:53:58
XAICRONCache-LRU-WithExpires0.012012-11-17 07:01:24
RUZEmail-Address-List0.012012-11-17 08:24:19
TINITAHTML-Template-Compiled-Plugin-NumberFormat0.01_0012012-11-17 13:54:42
KARASIKTemplate-Iterator-XS0.012012-11-17 14:55:32
MEKKPasswd-Keyring-PWSafe30.102012-11-17 17:35:56
TOBYINKSub-Lazy0.0012012-11-17 18:21:43
MOZNIONStatistics-PhaseOnlyCorrelation0.012012-11-18 10:35:41
GOMORNet-Frame-Layer-SinFP31.002012-11-18 11:30:14
GOMORNet-SinFP3-Plugin-Signature1.002012-11-18 14:29:53
NHORNELocale-CA0.012012-11-18 18:20:31
ROHANPMGerrit-Client0.12012-11-19 00:21:59
FANGLYModule-Install-PodFromEuclid0.012012-11-19 01:38:11
PETAMEMLingua-DEU-Word2Num6662012-11-19 03:38:56
TAPPERTask-Tapper-Hello-World0.0012012-11-19 03:41:54
TAPPERDist-Zilla-PluginBundle-TAPPER0.0012012-11-19 03:46:01
TAPPERPod-Weaver-PluginBundle-TAPPER0.0012012-11-19 03:46:14
DHORNEDBIx-Oracle-Unwrap0.012012-11-19 05:12:04
STUIFZANDNet-PostcodeNL-WebshopAPI0.22012-11-19 05:48:54
DAVEWEBBNet-IPAddress-Filter-IPFilterDat201211192012-11-19 06:40:18
JDALBERGDancer-Plugin-RPC-XML0.022012-11-19 08:43:32
NABOJDVB-Epg0.442012-11-19 11:30:46
NABOJDVB-Carousel0.142012-11-19 11:42:49
AMBSText-WordGrams0.072012-11-19 12:17:31
BENBOOTHXen-API0.012012-11-19 15:10:57
AUBERTGDBIx-NinjaORM2.0.02012-11-19 15:43:28
TOBYINKMooseX-NiftyDelegation0.0012012-11-19 17:05:47
FXZUZWWW-Foursquare0.00012012-11-19 18:26:46
ROHANPMLingua-EN-CommonMistakes201211202012-11-20 01:54:03
TOBYINKMooseX-Does-Delegated0.0012012-11-20 13:48:17
ABRAXXAPadre-Plugin-CSSComb0.0012012-11-20 14:29:20
KIELSTRCron-RunJob0.012012-11-20 22:19:05
FUKATAMojolicious-Plugin-SQLMaker0.012012-11-20 23:20:27
HAYAJOMojolicious-Plugin-Webtail0.012012-11-21 00:36:47
ABALAMACTKlib1.002012-11-21 04:41:57
SWONGNet-AS20.012012-11-21 18:07:05
RSRCHBOYDist-Zilla-Role-RegisterStash0.0012012-11-22 00:33:37
MIKOCGI-Plus0.102012-11-22 03:12:36
MARKOVMozilla-Persona0.122012-11-22 04:57:43
PETRISAnyEvent-Process0.012012-11-22 06:49:51
SULLRApp-HTTP_Proxy_IMP0.12012-11-22 07:18:28
PETAMEMLingua-ENG-Inflect0.0442012-11-22 12:29:28
PETAMEMLingua-POL-Numbers0.0442012-11-22 12:30:55
PETAMEMLingua-POR-Nums2Words0.0442012-11-22 12:31:15
PETAMEMLingua-CES-Word2Num0.0442012-11-22 12:32:41
PETAMEMLingua-DEU-Num2Word0.0442012-11-22 12:32:51
PETAMEMLingua-AFR-Word2Num0.0442012-11-22 12:34:32
PETAMEMLingua-NOR-Num2Word0.0442012-11-22 12:35:59
PETAMEMLingua-CES-Num2Word0.0442012-11-22 12:36:06
PETAMEMLingua-SWE-Num2Word0.0442012-11-22 12:36:17
PETAMEMLingua-JPN-Word2Num0.0442012-11-22 12:37:44
PETAMEMLingua-ENG-Numbers0.0442012-11-22 12:37:53
PETAMEMLingua-ENG-Word2Num0.0442012-11-22 12:38:04
PETAMEMLingua-EUS-Word2Num0.0442012-11-22 12:38:15
PETAMEMLingua-RUS-Word2Num0.0442012-11-22 12:39:43
PETAMEMLingua-NLD-Numbers0.0442012-11-22 12:39:53
PETAMEMLingua-IND-Nums2Words0.0442012-11-22 12:40:04
PETAMEMLingua-ZHO-Word2Num0.0442012-11-22 12:40:16
PETAMEMLingua-POR-Words2Nums0.0442012-11-22 12:41:43
PETAMEMLingua-SWE-Word2Num0.0442012-11-22 12:41:54
PETAMEMLingua-JPN-Number0.0442012-11-22 12:41:55
PETAMEMLingua-ZHO-Numbers0.0442012-11-22 12:42:06
PETAMEMLingua-ITA-Numbers0.0442012-11-22 12:42:18
PETAMEMLingua-ITA-Word2Num0.0442012-11-22 12:43:45
PETAMEMLingua-IND-Words2Nums0.0442012-11-22 12:44:01
PETAMEMLingua-NOR-Word2Num0.0442012-11-22 12:44:22
PETAMEMLingua-Word2Num0.0442012-11-22 12:44:41
PETAMEMLingua-SPA-Word2Num0.0442012-11-22 12:44:57
PETAMEMLingua-EUS-Numbers0.0442012-11-22 12:46:31
PETAMEMLingua-AFR-Numbers0.0442012-11-22 12:46:45
PETAMEMLingua-SPA-Numeros0.0442012-11-22 12:46:49
PETAMEMLingua-FRA-Nums2Words0.0442012-11-22 12:47:01
PETAMEMLingua-POL-Word2Num0.0442012-11-22 12:47:12
PETAMEMLingua-NLD-Word2Num0.0442012-11-22 12:48:40
PETAMEMLingua-RUS-Number0.0442012-11-22 12:48:52
PETAMEMLingua-FRA-Word2Num0.0442012-11-22 13:02:10
NHORNECGI-Untaint-Twitter0.012012-11-22 17:17:45
JETEVEWebService-ReutersConnect0.012012-11-22 19:01:57
FUKATAMojolicious-Plugin-DBIxTransactionManager0.012012-11-22 23:24:53
MIKOArray-OneOf1.002012-11-23 09:42:36
KRIPTStorage-Nexsan-NMP0.052012-11-23 11:15:56
BLUETAlgorithm-Bitonic-Sort0.012012-11-23 13:43:15
TOBYINKModule-Hash0.0012012-11-23 16:59:57
TOBYINKModule-Quote0.0012012-11-23 17:01:25
BAYASHISub-Sequence0.022012-11-23 22:44:33
SFLITMANValidate-NPI0.012012-11-24 01:32:19
GLITCHMRv1.2.42012-11-24 04:28:35
MSTOCKPlack-Middleware-AccessLog-Structured0.0010002012-11-24 10:41:57
MSTOCKPlack-Middleware-AccessLog-Structured-ZeroMQ0.0010002012-11-24 11:11:19
TOKARjQuery-DataTables0.92012-11-24 13:54:21
SBLANTONNamespace-Pollute0.0012012-11-24 14:28:40
GLITCHMRSort-Hash-Values0.1.02012-11-24 15:03:26
ANDREBusiness-CPI0.12012-11-24 15:37:20
ANDREBusiness-CPI-Gateway-PayPal0.12012-11-24 15:41:28
ANDREBusiness-CPI-Gateway-PagSeguro0.12012-11-24 15:44:17
FREWApp-Adenosine2.0000002012-11-24 16:40:03
RWSTAUNERApp-csv2sqlite0.0012012-11-24 21:37:14
PJFWebService-Beeminder0.0012012-11-25 00:32:08
RSRCHBOYDist-Zilla-Plugin-ContributorsFromGit0.0012012-11-25 04:43:01
STRZELECDevice-Video-PWC0.12012-11-25 06:20:56
TEXData-Tree0.162012-11-25 06:47:53
TEXData-Persist0.122012-11-25 06:53:14
TEXData-Pwgen0.122012-11-25 06:58:35
TEXLog-Tree0.142012-11-25 07:34:58
TEXTest-MockObject-Universal0.112012-11-25 07:42:52
TEXMonitoring-Spooler0.012012-11-25 09:10:21
MITHUNConfig-Properties-Commons0.012012-11-25 18:44:00
BSMNet-DiffBot0.012012-11-25 19:04:15
BDUGGANYars0.742012-11-25 21:41:24
BDUGGANYars-Client0.812012-11-25 21:55:44
TAPPERTask-Tapper-Hello-World-Automation0.0012012-11-26 04:03:06
TOBYINKreturn-thence0.0012012-11-26 09:19:00
BIGPRESHDancer-Plugin-Auth-Extensible0.012012-11-26 16:00:00
TEXSys-Run0.112012-11-26 17:31:05
DAVIDOMath-Pandigital0.012012-11-26 19:30:41
SASAKUREMojolicious-Plugin-Message-Locale0.012012-11-27 11:09:34
TEXSys-FS0.112012-11-27 13:47:20
TEXSys-ForkQueue0.112012-11-27 13:51:26
TEXLinux-LVM20.122012-11-27 14:09:43
TEXSys-RotateBackup0.122012-11-27 14:17:39
TEXJob-Manager0.152012-11-27 17:56:03
TEXSys-CmdMod0.162012-11-27 18:12:02
KAZEBUROCache-Memcached-Fast-Safe0.012012-11-27 20:23:00
LKUNDRAKNet-SPDY0.1_12012-11-28 07:54:43
TOBYINKAlien-LibXML0.000_012012-11-28 10:07:32
DROLSKYNet-Works0.012012-11-28 12:19:47
MJEVANSDBIx-LogAny0.012012-11-28 15:35:21
MSCHWERNSay-Compat0.012012-11-28 16:42:42
MARKFMac-KeyboardMaestro1.002012-11-28 18:44:34
RRWOTest-HTML-Spellingv0.1.12012-11-29 08:25:33
ARCANEZPlack-Middleware-DiePretty0.0012012-11-29 12:57:57
NGLENNSoar-WM0.012012-11-29 19:17:36
MARTYLOODarkSky-API0.0012012-11-29 23:36:44
GLITCHMRWWW-Expand0.1.02012-11-30 09:20:06
SBECKcpantorpm1.002012-11-30 10:55:41
ABABLABABDancer-Plugin-DictionaryCheck0.012012-11-30 11:34:24
GTERMARSLog-Dispatch-Twilio0.012012-11-30 13:21:14

New Distributions for December 2012 (290)

AuthorDistributionVersionRelease Date/Time
AKRONMojolicious-Plugin-Piwik0.062012-12-01 11:05:03
TOBYINKAsk0.000_012012-12-01 16:20:56
NGLENNSoar-WM-Grapher0.012012-12-01 16:39:06
TOBYINKMooX-late0.0012012-12-01 16:52:45
SAPERnetsnmp-pcap-perl0.952012-12-01 20:29:34
DVWRIGHTPerl-RunEND0.1.02012-12-01 21:16:21
MAUKEKeyword-Simple0.012012-12-01 22:11:08
BERNHARDCrypt-NSS-X5090.01_12012-12-01 23:59:00
MPORTGeo-GoogleMaps-FitBoundsZoomer1.002012-12-02 02:50:45
SAWAMURDevel-Stubv0.012012-12-02 07:46:47
TOBYINKAcme-Loopy0.0012012-12-02 10:10:30
TEXConfig-Yak0.222012-12-02 13:59:02
TEXLinux-Pidfile0.162012-12-02 15:04:42
SAPERRackMan1.142012-12-02 15:05:00
TEXSys-Bprsync0.172012-12-02 15:34:01
TEXSys-RevoBackup0.162012-12-02 15:49:46
NEILBApp-PrereqGrapher0.012012-12-02 17:18:54
MSCHILLINet-Evernote-Simple0.012012-12-02 19:24:26
MARKOVApache-Solr0.902012-12-03 05:47:35
SMUELLERQueue-Q0.012012-12-03 10:21:16
SHLOMIFSDLx-Betweener0.01002012-12-03 14:41:25
KAZEBURODBIx-DisconnectAll0.012012-12-04 02:21:02
TOKUHIROMKaras0.012012-12-04 02:36:44
FRACTALApp-Unliner0.0052012-12-04 02:43:46
NICSDancer-Session-Catmandu0.022012-12-04 07:44:38
NICSDancer-Plugin-Catmandu-OAI0.022012-12-04 07:46:24
NICSDancer-Plugin-Catmandu-SRU0.022012-12-04 07:49:24
NICSCatmandu-Store-Solr0.022012-12-04 07:52:15
NICSCatmandu-Store-ElasticSearch0.022012-12-04 07:53:40
NICSPlack-Session-Store-Catmandu0.022012-12-04 08:00:26
KAWAMURAYGeo-WKT-Simple0.012012-12-04 09:38:11
MALLENNet-Easypost0.012012-12-04 12:57:23
SHLOMIFTest-XML-Ordered0.0.12012-12-04 14:19:40
TEXLinux-Virt0.152012-12-04 16:51:22
BPHILLIPSWebService-Shutterstock0.0012012-12-04 17:16:26
TQISJIMNoSQL-PL2SQL-Simple0.102012-12-04 17:26:28
JSAILORFoundation-AppleScript0.001_012012-12-04 19:39:36
SHARYANTOLog-Any-Adapter-Core-Patch-UseDataDump0.012012-12-05 05:58:29
SHARYANTOLog-Any-Adapter-Core-Patch-SetDumperIndent0.012012-12-05 06:01:24
TOBYINKModule-Install-Copyright0.0012012-12-05 06:02:51
ADAMDHWWW-Shopify0.012012-12-05 06:54:25
TSAITODBIx-ActiveRecord0.012012-12-05 09:25:55
HAYAJOMojolicious-Plugin-Web-Auth0.012012-12-05 09:31:22
DAGOLDENData-Password-Common0.0012012-12-05 14:00:00
SHARYANTOLog-Any-Adapter-Core-Patch-UseDataDumperPerltidy0.012012-12-05 21:33:57
BERNHARDAlien-NSS0.012012-12-06 05:23:45
MILOVIDOVBingTranslationApi0.012012-12-06 12:29:01
NOUDARDDBIx-Class-InflateColumn-Serializer-CompressJSON0.0032012-12-06 12:49:30
GRAVATTJMySQL-QueryMulti0.012012-12-06 16:23:53
DORIANData-UUID-NCName0.012012-12-06 17:25:08
YHPENGEmail-Send-Zoho0.012012-12-07 11:17:39
ZMUGHALNet-Gmail-IMAP-Label0.0012012-12-07 11:26:53
CTHORWWW-Fimfictionv0.1.42012-12-07 12:46:48
MILOVIDOVLingua-Translate-Bing0.012012-12-07 13:29:10
AKZHANJavaScript-Console0.012012-12-07 15:37:06
TOBYINKWeb-Paste-Simple0.000_012012-12-07 16:50:16
TIEDEMANNLingua-Align0.022012-12-07 17:54:55
SRYNOBIOGVF-Parser0.12012-12-07 23:35:53
PJFTask-OSDC20120.0012012-12-08 00:57:09
YAKEXAnyEvent-Net-Amazon-S3v0.01.0.572012-12-08 03:48:12
DGKONTOPEncode-BetaCode0.012012-12-08 04:15:42
BERNHARDCrypt-SDTree0.012012-12-08 05:04:34
DIEGOKSupers-Search1.1234302012-12-08 09:03:38
CFOUTSDateTime-Format-EraLegis0.0012012-12-08 13:44:50
BERNHARDAlien-OpenSSL0.012012-12-08 17:14:17
KRYDERegexp-Common-Other112012-12-08 18:38:27
AKZHANCatalyst-Plugin-JavaScript-Console0.012012-12-09 04:35:24
DOLMENSystem-Sub0.1234402012-12-09 07:46:03
RENEEBMojolicious-Plugin-JavaScript-Console0.012012-12-09 08:39:59
RENEEBMojoX-Renderer-HTC0.012012-12-09 08:44:10
ISHIGAKICSS-LESS-Filter0.012012-12-09 09:45:11
ISHIGAKIWorePAN0.012012-12-09 10:12:43
TEXApp-Standby0.012012-12-09 12:03:22
TIEDEMANNuplug-main0.3.22012-12-09 14:12:21
TOKUHIROMDBD-PassThrough0.012012-12-09 21:03:52
BLUEFEETMooseX-ExtraArgs0.012012-12-09 21:13:23
JASPERPuppet-Tidy0.12012-12-10 06:31:12
EVOZONHASH-Sanitize0.012012-12-10 08:46:45
CHIMPlack-App-OpenVPN-Status0.1.32012-12-10 10:17:47
CHIMDancer-Session-Redis0.1.82012-12-10 15:06:01
FERZCatalyst-Helper-View-Bootstrap0.00012012-12-10 15:24:00
DAGOLDENPGP-Words-Tiny0.0012012-12-10 21:44:50
ANANTHBVOpenXML-Properties0.022012-12-11 00:42:45
SPAZMFacebook-Graph-Cmdline0.1234602012-12-11 02:27:23
KEICHNERWin32-Readch0.012012-12-11 06:22:03
TOBYINKSort-Key-Top-PP0.0012012-12-11 09:28:37
PSHANGOVCPAN-Faker-HTTPD0.0022012-12-11 10:03:45
PERLOOKperl-println0.1.3.22012-12-11 11:10:53
SARTAKPlack-Middleware-ActiveMirror0.012012-12-11 15:11:35
KRYDEMath-PlanePath-Toothpick12012-12-11 19:59:06
PERLOOKFlexible-Output-Printer0.0.4.12012-12-11 21:18:56
PRAVUSHash-Args0.002012-12-11 22:51:43
KAZEBUROPlack-Middleware-DBIx-DisconnectAll0.012012-12-12 00:27:56
PERLOOKBoolean-Testing-TrueFalse0.1.2.52012-12-12 00:57:58
PERLOOKTesting-Values-Boolean1.2.62012-12-12 02:04:48
EVOZONHash-Sanitize0.022012-12-12 04:13:42
AVERNANagios-Nrpe0.001-TRIAL2012-12-12 07:50:14
SCHWIGONAAAA-Mail-SpamAssassin0.0012012-12-12 08:08:10
DEDMEDVEDTSQL-SplitStatement0.012012-12-12 08:38:09
PMAKHOLMPlack-Middleware-EasyHooks0.012012-12-12 08:58:42
JBERGERPhysics-UEMColumn0.9002012-12-12 12:01:42
MMAURICEPlugin-Tiny0.0022012-12-12 16:05:39
DCMERTENSPDL-Parallel-threads0.022012-12-13 02:06:29
SHARYANTOLog-Any-For-STDERR0.012012-12-13 05:39:37
SONGMUScript-Ichigeki0.012012-12-13 07:02:29
NHORNECGI-Untaint-Facebook0.012012-12-13 09:47:58
SZABGABTask-DWIM0.012012-12-13 10:45:37
MRSCOTTYConnector1.002012-12-13 13:34:10
TOBYINKP5U-Command-Deps0.0012012-12-13 17:11:31
SHARYANTOTime-Duration-id0.012012-12-13 22:55:44
DAGOLDENDancer-Plugin-Queue0.0012012-12-13 23:02:42
DAGOLDENDancer-Plugin-Queue-MongoDB0.0012012-12-13 23:04:05
HAYAJOAcme-Honkidasu0.012012-12-13 23:38:27
SHARYANTOTime-Duration-Patch-Millisecond0.012012-12-14 00:09:10
TOBYINKAcme-Lexical-Thief0.0012012-12-14 09:15:24
DAGOLDENDancer-Plugin-Adapter0.0012012-12-14 12:17:16
FIBOTask-BeLike-FIBO0.002012-12-14 14:37:48
TPEDERSEText-SenseClusters-Wikipedia-LabelEvaluation0.052012-12-14 15:12:11
WESALRT-Extension-TimeWorkedReport1.022012-12-14 17:14:54
GETTYGID0.0012012-12-14 21:42:52
BPMEDLEYUNIVERSAL-has0.012012-12-15 00:41:39
GCJApp-xkcdpass0.12012-12-15 17:58:22
BKBData-MATFile0.012012-12-16 08:58:17
WILLFORANEyeTracking-EYD0.02012-12-16 13:12:46
TOBYINKApp-cpantimes1.5018012012-12-16 16:37:16
NATGData-Workflow0.10_012012-12-16 17:13:47
PLICEASEDist-Zilla-Plugin-CSS-Compressor0.012012-12-16 19:05:31
BPORTERGunMojo0.012012-12-17 02:45:35
BRADHApp-minecraft0.0012012-12-17 04:11:45
PASSANIApache2-WurflSimple0.0022012-12-17 05:22:46
PASSANIApache2-WurflPremium0.0022012-12-17 05:24:13
MOZNIONMath-PhaseOnlyCorrelation0.052012-12-17 08:15:30
JVBSOFTTkx-TclTk-Bind1.0.002012-12-17 09:51:06
JVBSOFTTkx-TclTk-Bind-ImageLibrary1.0.002012-12-17 09:51:17
JVBSOFTTkx-TclTk-Bind-IWidgets1.0.002012-12-17 09:51:29
TIEDEMANNuplug-treetagger0.32012-12-17 11:18:55
TIEDEMANNuplug-en0.22012-12-17 11:20:23
SMUELLERSereal0.202012-12-17 13:06:02
PLICEASEDist-Zilla-Plugin-JavaScript-Minifier0.012012-12-17 13:22:02
PLICEASEDist-Zilla-Plugin-Template-Tiny0.012012-12-17 13:22:14
OLOFParse-M3U-Extended0.12012-12-17 16:44:12
JOSHRLWP-Concurrent0.001_0012012-12-17 20:29:28
KESZLERCatalyst-TraitFor-Controller-jQuery-jqGrid-Search0.012012-12-17 23:29:44
BINGOSAcme-MetaSyntactic-legobatman0.022012-12-18 05:32:43
DEDMEDVEDTSQL-AST0.01_0002012-12-18 05:57:07
UNERAMojolicious-Plugin-MailException0.012012-12-18 06:29:42
BINGOSAcme-MetaSyntactic-legopiratesofthecaribbean0.022012-12-18 06:50:00
ABBYPANNovel-Robot0.012012-12-18 07:18:00
AJPAGEBio-MLST-Check1.1235302012-12-18 07:58:30
BINGOSAcme-MetaSyntactic-legolotr0.022012-12-18 08:56:16
BINGOSAcme-MetaSyntactic-legoindianajones0.022012-12-18 09:17:24
AJPAGEBio_AssemblyImprovement1.1235302012-12-18 10:55:26
TOBYINKThrowable-Factory0.000_012012-12-18 11:09:06
VGIRISHNet-Netcat0.012012-12-18 11:14:03
HARTZELLDist-Zilla-PluginBundle-HARTZELL0.0042012-12-18 13:32:39
JJSCHUTZNet-Amazon-EMR0.102012-12-18 22:04:47
DAGOLDENDancer-Plugin-Auth-Tiny0.0012012-12-18 22:45:17
OVIDCode-CutNPaste0.032012-12-19 01:05:25
MOZNIONAcme-Math-PerfectChristmasTree0.012012-12-19 03:34:21
VGIRISHProgress-PV0.012012-12-19 04:53:24
VGIRISHNet-Ifstat0.012012-12-19 05:30:31
VMOISEEVAlgorithm-MLCS1.02012-12-19 07:13:31
JBERGERMojolicious-Plugin-ModuleBuild0.012012-12-19 11:42:32
CRISPINISagePay-XORForm0.012012-12-19 13:19:27
WESALRT-Extension-TicketPDF0.1.12012-12-19 17:36:04
SMSNet-SMS-CSNetworks0.072012-12-19 21:49:30
DAGOLDENDancer-Plugin-Deferred0.0012012-12-19 21:57:23
PRIEZTSQL-Smart0.012012-12-19 23:03:05
SYAGINet-SNMP-Poller0.012012-12-20 00:23:52
UGEXEAcme-Segfault0.012012-12-20 01:46:25
DEDMEDVEDTSQL-Common-Regexp0.012012-12-20 06:51:14
AORLOVCatalyst-Model-Tarantool0.0.12012-12-20 07:17:04
SYPAlgorithm-SlopeOne0.0012012-12-20 10:31:09
BLABOSWWW-Correios-PrecoPrazo0.0000012012-12-20 10:39:33
HOLLIEText-Cadenceparser1.022012-12-20 15:32:54
OLIVERApp-Netdisco2.00_0112012-12-20 16:16:29
DAGOLDENDancer-Plugin-Syntax-GetPost0.0012012-12-20 17:40:42
JCAMINSTemplate-Plugin-MARC0.012012-12-20 20:43:42
REBXNet_AMQP_Haiku0.12012-12-20 22:15:00
NGLENNTask-XNLSoar-Graphing0.012012-12-20 22:17:16
SHARYANTOPerinci-Sub-PropertyUtil0.012012-12-20 23:56:27
SHARYANTOPerinci-Sub-FeatureUtil0.012012-12-21 00:09:46
SHARYANTOPerinci-Sub-DepUtil0.012012-12-21 00:11:16
AJPAGEBio-Resistome1.1235602012-12-21 05:16:06
SHARYANTOFile-Write-Rotate0.012012-12-21 09:07:23
SHARYANTOTie-Handle-FileRotate0.012012-12-21 09:20:58
SHARYANTOPerinci-Examples-Bin0.012012-12-21 20:04:15
PFAUTVMS-Logical0_52012-12-21 22:05:01
AYOUNGNet-Gitlab0.012012-12-21 22:27:10
TOBYINKHTML-Zoom-Parser-HH5P0.000_012012-12-22 08:59:52
CHENRYNMessage-Passing-Filter-Regexp0.012012-12-22 09:16:00
ABBYPANNovel-Robot-Browser0.012012-12-22 13:21:09
ABBYPANTiezi-Robot0.012012-12-22 13:36:08
SHLOMIFDist-Zilla-Plugin-TestRun0.0.12012-12-22 13:45:16
JKEENANText-CSV-Hashify0.012012-12-22 14:31:52
RSRCHBOYDist-Zilla-Role-EnsureStash0.0012012-12-22 17:21:19
MAMODHTTP-UA-Parser0.0012012-12-22 19:25:26
ABBYPANNovel-Robot-Parser0.012012-12-22 22:45:03
ABBYPANTiezi-Robot-Parser0.022012-12-23 01:02:15
SZABGABTask-DWIM-Catalyst0.062012-12-23 03:57:40
SZABGABTask-DWIM-Database0.062012-12-23 04:42:39
SZABGABTask-DWIM-DistZilla0.062012-12-23 04:44:06
SZABGABTask-DWIM-Spreadsheet0.062012-12-23 04:51:59
SZABGABTask-DWIM-Windows0.062012-12-23 04:52:10
SZABGABTask-DWIM-Dancer0.062012-12-23 04:52:23
SZABGABTask-DWIM-DateTime0.062012-12-23 04:52:35
SZABGABTask-DWIM-Moose0.062012-12-23 04:52:50
SZABGABTask-DWIM-Test0.062012-12-23 04:53:01
SZABGABTask-DWIM-XML0.062012-12-23 04:53:14
CHENRYNMessage-Passing-Output-PocketIO0.012012-12-23 11:06:36
SHLOMIFXML-GrammarBasev0.0.12012-12-23 12:05:09
JBERGERMojolicious-Plugin-InstallablePaths0.022012-12-23 15:36:34
KARUPAHTML-Lint-Pluggable0.012012-12-23 23:47:07
KARUPAPlack-Middleware-HTMLLint0.012012-12-23 23:48:31
MIKERMath-Base-Convert0.052012-12-24 01:59:32
SZABGABTask-DWIM-Async0.072012-12-24 05:00:06
SZABGABTask-DWIM-CLI0.072012-12-24 05:00:29
SZABGABTask-DWIM-Desktop0.072012-12-24 05:01:53
SZABGABTask-DWIM-Email0.072012-12-24 05:02:15
SZABGABTask-DWIM-Encryption0.072012-12-24 05:02:32
SZABGABTask-DWIM-Exceptions0.072012-12-24 05:02:43
SZABGABTask-DWIM-Logging0.072012-12-24 05:02:54
SZABGABTask-DWIM-Modules0.072012-12-24 05:03:05
SZABGABTask-DWIM-NoWindows0.072012-12-24 05:03:28
SZABGABTask-DWIM-OOP0.072012-12-24 05:03:39
SZABGABTask-DWIM-Science0.072012-12-24 05:05:08
SZABGABTask-DWIM-Serialization0.072012-12-24 05:05:20
SZABGABTask-DWIM-Web0.072012-12-24 05:05:54
SZABGABTask-DWIM-WebClient0.072012-12-24 05:05:57
SZABGABTask-DWIM-Compression0.072012-12-24 06:00:00
SZABGABTask-DWIM-Config0.072012-12-24 06:00:00
SZABGABTask-DWIM-CPAN0.072012-12-24 06:01:00
PAWELKROLVector-Object3D0.012012-12-24 08:54:15
SHLOMIFHTML-Widgets-NavMenu-ToJSONv0.0.12012-12-24 13:24:01
JPINKHAMWebService-DataDog0.2.02012-12-24 16:26:03
ECARROLLPulseAudio0.012012-12-24 19:21:12
ZYYCN-Province0.022012-12-25 01:30:17
MADCATWebService-Bukget1.002012-12-25 05:29:47
LIOSHAThread-Pipeline0.0012012-12-25 06:33:12
JBERGERMojolicious-Plugin-Humane0.012012-12-25 09:31:22
CELOGEEKApp-Dancer20.012012-12-25 09:50:19
RKITOVERLingua-EN-Number-IsOrdinal0.012012-12-25 13:21:41
MILOVIDOVLingua-Translate-Yandex0.012012-12-25 14:42:42
DIEGOKWWW-EZTV0.012012-12-25 17:52:35
ARISTOTLEPlack-Middleware-RedirectSSL1.0002012-12-25 21:01:58
SONGMUL0.012012-12-26 01:07:11
FUZZTest-Filesystem0.012012-12-26 01:27:55
MYFINDERData-Riak-Fast0.022012-12-26 04:01:00
SHARYANTOTask-BeLike-SHARYANTO-Noted0.012012-12-26 05:32:04
RKITOVERDist-Zilla-MintingProfile-Author-Caelum0.012012-12-26 06:29:44
SHARYANTOProcess-Govern0.012012-12-26 08:03:02
TEAKData-Dumper-LispLike0.0012012-12-26 09:54:53
SHARYANTOTie-Handle-FileWriteRotate0.022012-12-26 09:59:02
SHARYANTOLog-Dispatch-FileWriteRotate0.012012-12-26 10:10:14
RSRCHBOYNet-Amazon-R530.001-TRIAL2012-12-26 15:56:46
BAREFOOTDist-Zilla-PluginBundle-BAREFOOT0.012012-12-26 16:59:29
SHARYANTOLog-Any-App090.40.9.02012-12-26 21:22:57
KAZEBUROPlack-App-PHPCGI0.012012-12-27 00:27:57
TOKUHIROMMail-Krohn0.012012-12-27 08:44:12
LEEDOPlack-App-Prack0.012012-12-27 09:49:14
NYAKNYANHTTP-Server-EV-ServeStatic0.12012-12-27 13:30:16
VTIAttribute-Contract0.012012-12-27 16:35:27
FUKATAMojolicious-Plugin-FluentLogger0.012012-12-27 20:00:07
SHARYANTOAlt-Base0.012012-12-27 22:02:44
SHARYANTOAlt-Log-Any-App-FWR0.012012-12-27 22:32:39
PREACTIONTerm-FormatColumns0.0012012-12-27 23:09:59
SHARYANTOtainting0.012012-12-28 03:45:04
GBROWNrdapper0.052012-12-28 05:34:28
BAYASHITest-AllModules0.022012-12-28 10:15:47
SHARYANTOHTTP-Tiny-Patch-LogAny0.012012-12-28 11:40:30
SHARYANTOLog-Any-For-HTTP-Tiny0.012012-12-28 11:45:53
DANAJAlt-Crypt-RSA-BigInt0.012012-12-28 11:53:46
MSCHILLINet-Google-Drive-Simple0.012012-12-28 14:28:40
DOZZIELog-Log4perl-Appender-Fluent0.012012-12-28 19:30:08
DOZZIELog-Message-JSON0.012012-12-28 19:30:19
MRUIZRiemann-Client0.012012-12-28 19:33:23
SHAWMooseX-NestedAttributesConstructor0.012012-12-29 00:43:38
AANANDJHAText-SenseClusters-LabelEvaluation0.062012-12-29 18:30:20
PBOYDMooseX-Role-Callback0.012012-12-30 02:04:07
TOREAUHTML-ExtractMeta0.012012-12-30 03:51:08
SBLANTONApp-Services0.0012012-12-30 20:29:51
MOZNIONTest-LimitDecimalPlaces0.012012-12-31 00:02:50
TAGOMORISNet-GrowthForecast0.012012-12-31 00:46:04
EMAZEPNumber-AnyBase1.000002012-12-31 01:07:01
IAMBGnuPG-Crypticle0.0202012-12-31 01:50:43
MLEHMANNAnyEvent-GDB0.12012-12-31 08:02:10
RJBSException-Reporter-Summarizer-Catalyst0.0012012-12-31 08:44:45
JONTAYLORDB-SQL-Migrations0.012012-12-31 14:50:09
BRIANCMath-EllipticCurve-Prime0.0012012-12-31 16:08:23
PFAUTVMS-CMS0_32012-12-31 18:44:02